[[{"header":{"parameterUnit":"m.s-1","parameterCategory":1,"la1":30.6,"la2":28.766,"lo1":-90.7593,"lo2":-88.6598,"dy":0.0162,"dx":0.0183,"nx":116,"ny":114,"refTime":"2023-04-19T12:00:00:Z","depth":0,"parameterNumber":2,"parameterNumberName":"U-component_of_WINDS"},"data":[0.0,0.0,0.0,0.0,0.0,0.0,0.0,0.0,0.0,0.0,0.0,0.0,0.0,0.0,0.0,0.0,0.0,0.0,0.0,0.0,0.0,0.0,0.0,0.0,0.0,0.0,0.0,0.0,0.0,0.0,0.0,0.0,0.0,0.0,0.0,0.0,0.0,0.0,0.0,0.0,0.0,0.0,0.0,0.0,0.0,0.0,0.0,0.0,0.0,0.0,0.0,0.0,0.0,0.0,0.0,0.0,0.0,0.0,0.0,0.0,0.0,0.0,0.0,0.0,0.0,0.0,0.0,0.0,0.0,0.0,0.0,0.0,0.0,0.0,0.0,0.0,0.0,0.0,0.0,0.0,0.0,0.0,0.0,0.0,0.0,0.0,0.0,0.0,0.0,0.0,0.0,0.0,0.0,0.0,0.0,0.0,0.0,0.0,0.0,0.0,0.0,0.0,0.0,0.0,0.0,0.0,0.0,0.0,0.0,0.0,0.0,0.0,0.0,0.0,0.0,0.0,0.0,0.0,0.0,0.0,0.0,0.0,0.0,0.0,0.0,0.0,0.0,0.0,0.0,0.0,0.0,0.0,0.0,0.0,0.0,0.0,0.0,0.0,0.0,0.0,0.0,0.0,0.0,0.0,0.0,0.0,0.0,0.0,0.0,0.0,0.0,0.0,0.0,0.0,0.0,0.0,0.0,0.0,0.0,0.0,0.0,0.0,0.0,0.0,0.0,0.0,0.0,0.0,0.0,0.0,0.0,0.0,0.0,0.0,0.0,0.0,0.0,0.0,0.0,0.0,0.0,0.0,0.0,0.0,0.0,0.0,0.0,0.0,0.0,0.0,0.0,0.0,0.0,0.0,0.0,0.0,0.0,0.0,0.0,0.0,0.0,0.0,0.0,0.0,0.0,0.0,0.0,0.0,0.0,0.0,0.0,0.0,0.0,0.0,0.0,0.0,0.0,0.0,0.0,0.0,0.0,0.0,0.0,0.0,0.0,0.0,0.0,0.0,0.0,0.0,0.0,0.0,0.0,0.0,0.0,0.0,0.0,0.0,0.0,0.0,0.0,0.0,0.0,0.0,0.0,0.0,0.0,0.0,0.0,0.0,0.0,0.0,0.0,0.0,0.0,0.0,0.0,0.0,0.0,0.0,0.0,0.0,0.0,0.0,0.0,0.0,0.0,0.0,0.0,0.0,0.0,0.0,0.0,0.0,0.0,0.0,0.0,0.0,0.0,0.0,0.0,0.0,0.0,0.0,0.0,0.0,0.0,0.0,0.0,0.0,0.0,0.0,0.0,0.0,0.0,0.0,0.0,0.0,0.0,0.0,0.0,0.0,0.0,0.0,0.0,0.0,0.0,0.0,0.0,0.0,0.0,0.0,0.0,0.0,0.0,0.0,0.0,0.0,0.0,0.0,0.0,0.0,0.0,0.0,0.0,0.0,0.0,0.0,0.0,0.0,0.0,0.0,0.0,0.0,0.0,0.0,0.0,0.0,0.0,0.0,0.0,0.0,0.0,0.0,0.0,0.0,0.0,0.0,0.0,0.0,0.0,0.0,0.0,0.0,0.0,0.0,0.0,0.0,0.0,0.0,0.0,0.0,0.0,0.0,0.0,0.0,0.0,0.0,0.0,0.0,0.0,0.0,0.0,0.0,0.0,0.0,0.0,0.0,0.0,0.0,0.0,0.0,0.0,0.0,0.0,0.0,0.0,0.0,0.0,0.0,0.0,0.0,0.0,0.0,0.0,0.0,0.0,0.0,0.0,0.0,0.0,0.0,0.0,0.0,0.0,0.0,0.0,0.0,0.0,0.0,0.0,0.0,0.0,0.0,0.0,0.0,0.0,0.0,0.0,0.0,0.0,0.0,0.0,0.0,0.0,0.0,0.0,0.0,0.0,0.0,0.0,0.0,0.0,0.0,0.0,0.0,0.0,0.0,0.0,0.0,0.0,0.0,0.0,0.0,0.0,0.0,0.0,0.0,0.0,0.0,0.0,0.0,0.0,0.0,0.0,0.0,0.0,0.0,0.0,0.0,0.0,0.0,0.0,0.0,0.0,0.0,0.0,0.0,0.0,0.0,0.0,0.0,0.0,0.0,0.0,0.0,0.0,0.0,0.0,0.0,0.0,0.0,0.0,0.0,0.0,0.0,0.0,0.0,0.0,0.0,0.0,0.0,0.0,0.0,0.0,0.0,0.0,0.0,0.0,0.0,0.0,0.0,0.0,0.0,0.0,0.0,0.0,0.0,0.0,0.0,0.0,0.0,0.0,0.0,0.0,0.0,0.0,0.0,0.0,0.0,0.0,0.0,0.0,0.0,0.0,0.0,0.0,0.0,0.0,0.0,0.0,0.0,0.0,0.0,0.0,0.0,0.0,0.0,0.0,0.0,0.0,0.0,0.0,0.0,0.0,0.0,0.0,0.0,0.0,0.0,0.0,0.0,0.0,0.0,0.0,0.0,0.0,0.0,0.0,0.0,0.0,0.0,0.0,0.0,0.0,0.0,0.0,0.0,0.0,0.0,0.0,0.0,0.0,0.0,0.0,0.0,0.0,0.0,0.0,0.0,0.0,0.0,0.0,0.0,0.0,0.0,0.0,0.0,0.0,0.0,0.0,0.0,0.0,0.0,0.0,0.0,0.0,0.0,0.0,0.0,0.0,0.0,0.0,0.0,0.0,0.0,0.0,0.0,0.0,0.0,0.0,0.0,0.0,0.0,0.0,0.0,0.0,0.0,0.0,0.0,0.0,0.0,0.0,0.0,0.0,0.0,0.0,0.0,0.0,0.0,0.0,0.0,0.0,0.0,0.0,0.0,0.0,0.0,0.0,0.0,0.0,0.0,0.0,0.0,0.0,0.0,0.0,0.0,0.0,0.0,0.0,0.0,0.0,0.0,0.0,0.0,0.0,0.0,0.0,0.0,0.0,0.0,0.0,0.0,0.0,0.0,0.0,0.0,0.0,0.0,0.0,0.0,0.0,0.0,0.0,0.0,0.0,0.0,0.0,0.0,0.0,0.0,0.0,0.0,0.0,0.0,0.0,0.0,0.0,0.0,0.0,0.0,0.0,0.0,0.0,0.0,0.0,0.0,0.0,0.0,0.0,0.0,0.0,0.0,0.0,0.0,0.0,0.0,0.0,0.0,0.0,0.0,0.0,0.0,0.0,0.0,0.0,0.0,0.0,0.0,0.0,0.0,0.0,0.0,0.0,0.0,0.0,0.0,0.0,0.0,0.0,0.0,0.0,0.0,0.0,0.0,0.0,0.0,0.0,0.0,0.0,0.0,0.0,0.0,0.0,0.0,0.0,0.0,0.0,0.0,0.0,0.0,0.0,0.0,0.0,0.0,0.0,0.0,0.0,0.0,0.0,0.0,0.0,0.0,0.0,0.0,0.0,0.0,0.0,0.0,0.0,0.0,0.0,0.0,0.0,0.0,0.0,0.0,0.0,0.0,0.0,0.0,0.0,0.0,0.0,0.0,0.0,0.0,0.0,0.0,0.0,0.0,0.0,0.0,0.0,0.0,0.0,0.0,0.0,0.0,0.0,0.0,0.0,0.0,0.0,0.0,0.0,0.0,0.0,0.0,0.0,0.0,0.0,0.0,0.0,0.0,0.0,0.0,0.0,0.0,0.0,0.0,0.0,0.0,0.0,0.0,0.0,0.0,0.0,0.0,0.0,0.0,0.0,0.0,0.0,0.0,0.0,0.0,0.0,0.0,0.0,0.0,0.0,0.0,0.0,0.0,0.0,0.0,0.0,0.0,0.0,0.0,0.0,0.0,0.0,0.0,0.0,0.0,0.0,0.0,0.0,0.0,0.0,0.0,0.0,0.0,0.0,0.0,0.0,0.0,0.0,0.0,0.0,0.0,0.0,0.0,0.0,0.0,0.0,0.0,0.0,0.0,0.0,0.0,0.0,0.0,0.0,0.0,0.0,0.0,0.0,0.0,0.0,0.0,0.0,0.0,0.0,0.0,0.0,0.0,0.0,0.0,0.0,0.0,0.0,0.0,0.0,0.0,0.0,0.0,0.0,0.0,0.0,0.0,0.0,0.0,0.0,0.0,0.0,0.0,0.0,0.0,0.0,0.0,0.0,0.0,0.0,0.0,0.0,0.0,0.0,0.0,0.0,0.0,0.0,0.0,0.0,0.0,0.0,0.0,0.0,0.0,0.0,0.0,0.0,0.0,0.0,0.0,0.0,0.0,0.0,0.0,0.0,0.0,0.0,0.0,0.0,0.0,0.0,0.0,0.0,0.0,0.0,0.0,0.0,0.0,0.0,0.0,0.0,0.0,0.0,0.0,0.0,0.0,0.0,0.0,0.0,0.0,0.0,0.0,0.0,0.0,0.0,0.0,0.0,0.0,0.0,0.0,0.0,0.0,0.0,0.0,0.0,0.0,0.0,0.0,0.0,0.0,0.0,0.0,0.0,0.0,0.0,0.0,0.0,0.0,0.0,0.0,0.0,0.0,0.0,0.0,0.0,0.0,0.0,0.0,0.0,0.0,0.0,0.0,0.0,0.0,0.0,0.0,0.0,0.0,0.0,0.0,0.0,0.0,0.0,0.0,0.0,0.0,0.0,0.0,0.0,0.0,0.0,0.0,0.0,0.0,0.0,0.0,0.0,0.0,0.0,0.0,0.0,0.0,0.0,0.0,0.0,0.0,0.0,0.0,0.0,0.0,0.0,0.0,0.0,0.0,0.0,0.0,0.0,0.0,0.0,0.0,0.0,0.0,0.0,0.0,0.0,0.0,0.0,0.0,0.0,0.0,0.0,0.0,0.0,0.0,0.0,0.0,0.0,0.0,0.0,0.0,0.0,0.0,0.0,0.0,0.0,0.0,0.0,0.0,0.0,0.0,0.0,0.0,0.0,0.0,0.0,0.0,0.0,0.0,0.0,0.0,0.0,0.0,0.0,0.0,0.0,0.0,0.0,0.0,0.0,0.0,0.0,0.0,0.0,0.0,0.0,0.0,0.0,0.0,0.0,0.0,0.0,0.0,0.0,0.0,0.0,0.0,0.0,0.0,0.0,0.0,0.0,0.0,0.0,0.0,0.0,0.0,0.0,0.0,0.0,0.0,0.0,0.0,0.0,0.0,0.0,0.0,0.0,0.0,0.0,0.0,0.0,0.0,0.0,0.0,0.0,0.0,0.0,0.0,0.0,0.0,0.0,0.0,0.0,0.0,0.0,0.0,0.0,0.0,0.0,0.0,0.0,0.0,0.0,0.0,0.0,0.0,0.0,0.0,0.0,0.0,0.0,0.0,0.0,0.0,0.0,0.0,0.0,0.0,0.0,0.0,0.0,0.0,0.0,0.0,0.0,0.0,0.0,0.0,0.0,0.0,0.0,0.0,0.0,0.0,0.0,0.0,0.0,0.0,0.0,0.0,0.0,0.0,0.0,0.0,0.0,0.0,0.0,0.0,0.0,0.0,0.0,0.0,0.0,0.0,0.0,0.0,0.0,0.0,0.0,0.0,0.0,0.0,0.0,0.0,0.0,0.0,0.0,0.0,0.0,0.0,0.0,0.0,0.0,0.0,0.0,0.0,0.0,0.0,0.0,0.0,0.0,0.0,0.0,0.0,0.0,0.0,0.0,0.0,0.0,0.0,0.0,0.0,0.0,0.0,0.0,0.0,0.0,0.0,0.0,0.0,0.0,0.0,0.0,0.0,0.0,0.0,0.0,0.0,0.0,0.0,0.0,0.0,0.0,0.0,0.0,0.0,0.0,0.0,0.0,0.0,0.0,0.0,0.0,0.0,0.0,0.0,0.0,0.0,0.0,0.0,0.0,0.0,0.0,0.0,0.0,0.0,0.0,0.0,0.0,0.0,0.0,0.0,0.0,0.0,0.0,0.0,0.0,0.0,0.0,0.0,0.0,0.0,0.0,0.0,0.0,0.0,0.0,0.0,0.0,0.0,0.0,0.0,0.0,0.0,0.0,0.0,0.0,0.0,0.0,0.0,0.0,0.0,0.0,0.0,0.0,0.0,0.0,0.0,0.0,0.0,0.0,0.0,0.0,0.0,0.0,0.0,0.0,0.0,0.0,0.0,0.0,0.0,0.0,0.0,0.0,0.0,0.0,0.0,0.0,0.0,0.0,0.0,-4.2218,-4.2055,0.0,0.0,0.0,0.0,0.0,0.0,0.0,0.0,0.0,0.0,0.0,0.0,0.0,0.0,0.0,0.0,0.0,0.0,0.0,0.0,0.0,0.0,0.0,0.0,0.0,0.0,0.0,0.0,0.0,0.0,0.0,0.0,0.0,0.0,0.0,0.0,0.0,0.0,-3.8166,-3.874,-3.9829,-4.1178,-4.231,-4.3109,0.0,0.0,0.0,0.0,0.0,0.0,0.0,0.0,0.0,0.0,0.0,0.0,0.0,0.0,0.0,0.0,0.0,0.0,0.0,0.0,0.0,0.0,0.0,0.0,0.0,0.0,0.0,0.0,0.0,0.0,0.0,0.0,0.0,0.0,0.0,0.0,0.0,0.0,0.0,0.0,0.0,0.0,0.0,0.0,0.0,0.0,0.0,0.0,0.0,0.0,0.0,0.0,0.0,0.0,0.0,0.0,0.0,0.0,0.0,0.0,0.0,0.0,0.0,0.0,0.0,0.0,0.0,0.0,0.0,0.0,-4.1224,-4.1568,0.0,0.0,0.0,0.0,0.0,0.0,0.0,0.0,0.0,0.0,0.0,0.0,0.0,0.0,0.0,0.0,0.0,0.0,0.0,0.0,0.0,0.0,0.0,0.0,0.0,0.0,0.0,0.0,0.0,0.0,0.0,0.0,0.0,0.0,0.0,-3.6432,-3.6777,-3.742,-3.7465,-3.8247,-3.9787,-4.0581,-4.1272,-4.1781,-4.2357,0.0,0.0,0.0,0.0,0.0,0.0,0.0,0.0,0.0,0.0,0.0,0.0,0.0,0.0,0.0,0.0,0.0,0.0,0.0,0.0,0.0,0.0,0.0,0.0,0.0,0.0,0.0,0.0,0.0,0.0,0.0,0.0,0.0,0.0,0.0,0.0,0.0,0.0,0.0,0.0,0.0,0.0,0.0,0.0,0.0,0.0,0.0,0.0,0.0,0.0,0.0,0.0,0.0,0.0,0.0,0.0,0.0,0.0,0.0,0.0,0.0,0.0,0.0,-3.8572,-3.8462,-3.8736,-3.8564,-3.8539,-3.8675,-4.0131,-4.0721,-4.0621,-4.012,0.0,0.0,0.0,0.0,0.0,0.0,0.0,0.0,0.0,0.0,0.0,0.0,0.0,0.0,0.0,0.0,0.0,0.0,0.0,0.0,0.0,-3.6551,-3.6344,-3.6534,-3.6174,-3.6227,0.0,0.0,0.0,0.0,0.0,0.0,-3.5597,-3.6478,-3.6582,-3.5899,-3.7156,-3.7884,-3.8124,-3.9453,-4.0305,-4.0713,-4.1638,-4.261,-4.3477,0.0,0.0,0.0,0.0,0.0,0.0,0.0,0.0,0.0,0.0,0.0,0.0,0.0,0.0,0.0,0.0,0.0,0.0,0.0,0.0,0.0,0.0,0.0,0.0,0.0,0.0,0.0,0.0,0.0,0.0,0.0,0.0,0.0,0.0,0.0,0.0,0.0,0.0,0.0,0.0,0.0,-3.9271,-3.9202,0.0,0.0,0.0,0.0,0.0,0.0,0.0,0.0,0.0,0.0,0.0,0.0,0.0,-3.696,-3.6959,-3.6982,-3.7162,-3.7485,-3.7136,-3.7232,-3.7793,-3.7753,-3.7846,-3.8137,-3.8595,0.0,-3.9229,-3.8963,0.0,0.0,0.0,0.0,0.0,0.0,0.0,0.0,0.0,0.0,0.0,0.0,0.0,0.0,0.0,0.0,0.0,0.0,0.0,0.0,0.0,-3.623,-3.6026,-3.7003,-3.638,-3.5982,-3.6105,0.0,0.0,0.0,0.0,-3.5714,-3.542,-3.5446,-3.5355,-3.5125,-3.6228,-3.6918,-3.7125,-3.8325,-3.9205,-3.9735,-4.041,-4.1514,-4.2946,-4.2835,0.0,0.0,0.0,0.0,0.0,0.0,0.0,0.0,0.0,0.0,0.0,0.0,0.0,0.0,0.0,0.0,0.0,0.0,0.0,0.0,0.0,0.0,0.0,0.0,0.0,0.0,0.0,0.0,0.0,0.0,0.0,0.0,0.0,0.0,0.0,0.0,0.0,0.0,0.0,-3.8514,-3.855,-3.9033,-3.8561,-3.7783,0.0,0.0,0.0,0.0,0.0,0.0,0.0,0.0,0.0,-3.5812,-3.5958,-3.6026,-3.6003,-3.6338,-3.6555,-3.6684,-3.6524,-3.6598,-3.6885,-3.6885,-3.6928,-3.7078,-3.7185,-3.7316,-3.7491,-3.7991,-3.7697,-3.6925,0.0,0.0,0.0,0.0,-3.635,-3.6627,0.0,0.0,0.0,0.0,0.0,0.0,0.0,0.0,0.0,0.0,0.0,0.0,-3.6949,-3.6085,-3.5906,-3.7025,-3.6443,-3.5828,-3.5405,-3.5595,0.0,0.0,-3.5062,-3.4872,-3.4486,-3.3861,-3.3878,-3.4438,-3.5298,-3.5862,-3.6272,-3.747,-3.8221,-3.8662,-3.9359,-4.0596,-4.2215,-4.281,-4.2873,-4.2562,0.0,0.0,0.0,0.0,0.0,0.0,0.0,0.0,0.0,0.0,0.0,0.0,0.0,0.0,0.0,0.0,0.0,0.0,0.0,0.0,0.0,0.0,0.0,0.0,0.0,0.0,0.0,0.0,0.0,0.0,0.0,0.0,0.0,0.0,0.0,0.0,0.0,-3.7854,-3.7675,-3.8494,-3.7822,-3.6898,0.0,0.0,0.0,0.0,0.0,0.0,-3.5046,-3.4307,-3.4136,-3.4713,-3.4887,-3.5029,-3.5262,-3.5636,-3.5817,-3.5817,-3.5817,-3.5817,-3.5817,-3.5817,-3.5817,-3.5817,-3.5817,-3.5749,-3.5699,-3.6711,-3.6659,-3.5973,-3.5902,-3.5478,-3.4896,-3.5114,-3.5078,-3.4981,0.0,0.0,0.0,0.0,0.0,0.0,0.0,0.0,0.0,0.0,0.0,-3.6119,-3.5751,-3.6002,-3.5984,-3.5276,-3.5925,-3.6014,-3.5184,-3.5121,-3.4999,-3.4641,-3.4314,-3.3486,-3.1996,-3.1897,-3.2405,-3.3572,-3.4372,-3.4987,-3.5379,-3.6949,-3.762,-3.7439,-3.8892,-4.0394,-4.1828,-4.1853,-4.1892,-4.1848,-4.2119,0.0,0.0,0.0,0.0,0.0,0.0,0.0,0.0,0.0,0.0,0.0,0.0,0.0,0.0,0.0,0.0,0.0,0.0,0.0,0.0,0.0,0.0,0.0,0.0,0.0,0.0,0.0,0.0,0.0,0.0,0.0,0.0,0.0,0.0,0.0,0.0,0.0,0.0,-3.7108,-3.7262,0.0,0.0,0.0,0.0,-3.4396,-3.3861,-3.369,-3.3885,-3.3048,-3.2944,-3.377,-3.354,-3.3768,-3.4547,-3.458,-3.4591,-3.4591,-3.4591,-3.4591,-3.4591,-3.4591,-3.4591,-3.4591,-3.4591,-3.4273,-3.3868,-3.4611,-3.4918,-3.4815,-3.3959,-3.3356,-3.2969,-3.3192,-3.3271,-3.33,0.0,0.0,0.0,0.0,0.0,0.0,0.0,0.0,0.0,-3.6861,-3.6225,-3.5831,-3.5926,-3.5589,-3.5503,-3.5925,-3.6061,-3.5819,-3.4979,-3.515,-3.4933,-3.4135,-3.3526,-3.2628,-3.1387,-3.1196,-3.1616,-3.2576,-3.3111,-3.3712,-3.4343,-3.5194,-3.5927,-3.6493,-3.7516,-3.8803,-4.0118,-4.0956,-4.1641,-4.2243,-4.1819,-4.1716,0.0,0.0,0.0,0.0,0.0,0.0,0.0,0.0,0.0,0.0,0.0,0.0,0.0,0.0,0.0,0.0,0.0,0.0,0.0,0.0,0.0,0.0,0.0,0.0,0.0,0.0,0.0,0.0,0.0,0.0,0.0,0.0,0.0,0.0,0.0,0.0,0.0,-3.647,-3.6235,0.0,-3.4449,-3.4366,-3.3973,-3.2977,-3.2723,-3.2674,-3.2899,-3.2427,-3.2472,-3.3047,-3.2945,-3.3029,-3.3356,-3.3537,-3.3537,-3.3356,-3.3717,-3.3829,-3.3649,-3.3829,-3.3942,-3.3942,-3.3942,-3.3617,-3.32,-3.3149,-3.3327,-3.3646,-3.334,-3.3121,-3.2903,-3.2655,-3.2793,-3.3027,0.0,0.0,0.0,0.0,0.0,0.0,0.0,0.0,0.0,-3.6783,-3.6388,-3.6122,-3.5965,-3.5791,-3.5817,-3.6088,-3.6047,-3.5528,-3.4553,-3.4629,-3.434,-3.3364,-3.2354,-3.1454,-3.0793,-3.045,-3.0796,-3.1726,-3.2171,-3.2831,-3.3669,-3.4147,-3.4766,-3.5527,-3.629,-3.7451,-3.8743,-3.9573,-4.0655,-4.1757,-4.1509,-4.1397,-4.135,0.0,0.0,0.0,0.0,0.0,0.0,0.0,0.0,0.0,0.0,0.0,0.0,0.0,0.0,0.0,0.0,0.0,0.0,0.0,0.0,0.0,0.0,0.0,0.0,0.0,0.0,0.0,0.0,0.0,0.0,0.0,0.0,0.0,0.0,-3.4497,-3.4649,-3.5289,-3.4975,-3.4287,-3.3378,-3.3234,-3.2868,-3.2106,-3.1986,-3.202,-3.2332,-3.1969,-3.1942,-3.2399,-3.2295,-3.2295,-3.241,-3.2638,-3.2638,-3.241,-3.282,-3.2877,-3.2753,-3.2934,-3.2991,-3.2991,-3.2991,-3.273,-3.226,-3.1801,-3.1925,-3.2368,-3.248,-3.248,-3.2394,-3.1859,-3.1891,-3.2148,0.0,0.0,0.0,0.0,0.0,0.0,0.0,-3.7736,-3.7634,-3.685,-3.7195,-3.7059,-3.5885,-3.6774,-3.6975,-3.5791,-3.5807,-3.5345,-3.4072,-3.3595,-3.3089,-3.2358,-3.0849,-3.0059,-3.0142,-2.9601,-2.9843,-3.0933,-3.1677,-3.2483,-3.3287,-3.4001,-3.435,-3.4458,-3.5272,-3.6446,-3.7877,-3.7817,-3.875,-4.03,-4.1069,-4.1389,-4.1334,0.0,0.0,0.0,0.0,0.0,0.0,0.0,0.0,0.0,0.0,0.0,0.0,0.0,0.0,0.0,0.0,0.0,0.0,0.0,0.0,0.0,0.0,0.0,0.0,0.0,0.0,0.0,0.0,0.0,0.0,0.0,0.0,0.0,-3.3709,-3.3197,-3.2988,-3.3671,-3.341,-3.2776,-3.1795,-3.1906,-3.2008,-3.1942,-3.1641,-3.1645,-3.2082,-3.1604,-3.1441,-3.173,-3.1441,-3.1441,-3.1787,-3.1787,-3.1787,-3.1787,-3.1787,-3.1787,-3.1787,-3.1787,-3.1787,-3.1787,-3.1787,-3.1536,-3.1083,-3.0671,-3.0741,-3.113,-3.125,-3.1306,-3.1206,-3.0701,-3.0516,-3.0603,0.0,0.0,0.0,0.0,0.0,0.0,0.0,-3.8011,-3.7652,-3.7583,-3.7345,-3.7107,-3.6888,-3.7085,-3.7175,-3.7072,-3.6517,-3.5927,-3.5396,-3.4139,-3.2503,-3.0537,-3.0132,-2.9671,-2.9049,-2.9476,-2.9773,-2.976,-3.051,-3.1368,-3.242,-3.2667,-3.3316,-3.4412,-3.5248,-3.5969,-3.675,-3.7924,-3.8605,-3.9034,-3.9942,-4.0479,-4.0731,0.0,0.0,0.0,0.0,0.0,0.0,0.0,0.0,0.0,0.0,0.0,0.0,0.0,0.0,0.0,0.0,0.0,0.0,0.0,0.0,0.0,0.0,0.0,0.0,0.0,0.0,0.0,0.0,0.0,0.0,0.0,-3.1269,-3.1454,-3.2022,-3.2492,-3.2782,-3.2777,-3.2602,-3.2277,-3.1824,-3.1822,-3.1549,-3.0905,-3.0963,-3.0887,-3.0548,-3.0616,-3.0684,-3.0791,-3.0927,-3.1054,-3.118,-3.1334,-3.1334,-3.117,-3.1566,-3.1672,-3.1441,-3.1672,-3.1787,-3.1787,-3.1787,-3.1536,-3.1103,-3.0993,-3.1013,-3.1073,-3.0807,-3.0883,-3.1126,-3.0646,-3.0298,-3.0012,0.0,0.0,0.0,0.0,0.0,0.0,0.0,-3.8202,-3.7816,-3.7785,-3.7784,-3.7694,-3.7371,-3.7653,-3.7782,-3.7588,-3.6887,-3.6146,-3.5479,-3.3628,-3.1808,-3.0128,-3.0083,-2.991,-2.9461,-2.9875,-3.0012,-2.9757,-3.0497,-3.1187,-3.1926,-3.2061,-3.274,-3.3989,-3.463,-3.5294,-3.6045,-3.7326,-3.8054,-3.8556,-3.9083,-3.9779,-4.039,-4.0502,-4.0477,-4.0468,-4.0509,-4.0863,-4.1367,-4.154,0.0,0.0,0.0,0.0,0.0,0.0,0.0,0.0,0.0,0.0,0.0,0.0,0.0,0.0,0.0,0.0,0.0,0.0,0.0,0.0,0.0,0.0,0.0,0.0,-3.1032,-3.1016,-3.1049,-3.1759,-3.2232,-3.2169,-3.1846,-3.1536,-3.1267,-3.1092,-3.0801,-3.0216,-3.0392,-3.0323,-2.9922,-3.0098,-3.0216,-3.0216,-3.0518,-3.0694,-3.0694,-3.0986,-3.1054,-3.0889,-3.1286,-3.1334,-3.116,-3.1334,-3.1392,-3.1392,-3.1392,-3.1134,-3.0717,-3.0613,-3.0557,0.0,0.0,0.0,0.0,0.0,-3.0083,-2.9599,0.0,0.0,0.0,0.0,0.0,0.0,0.0,-3.8389,-3.8147,-3.7926,-3.8504,-3.8656,-3.7918,-3.8627,-3.8762,-3.7899,-3.7243,-3.6272,-3.4843,-3.276,-3.1249,-3.0585,-3.0479,-3.0447,-3.0546,-3.046,-3.0399,-3.0306,-3.1041,-3.1475,-3.1587,-3.19,-3.2483,-3.3308,-3.3762,-3.4522,-3.5586,-3.6469,-3.7492,-3.8437,-3.8549,-3.9282,-4.0187,-4.0366,-4.0451,-4.0507,-4.0497,-4.0881,-4.1408,-4.1768,0.0,0.0,0.0,0.0,0.0,0.0,0.0,0.0,0.0,0.0,0.0,0.0,0.0,0.0,0.0,0.0,0.0,0.0,0.0,0.0,0.0,0.0,0.0,0.0,-3.1244,-3.1283,-3.073,-3.1071,-3.1495,-3.1622,-3.1141,-3.0675,-3.0392,-3.0098,-2.9872,-2.9863,-2.9863,-2.9863,-2.9813,-2.9804,0.0,0.0,0.0,-3.0382,-3.0382,-3.0645,-3.083,-3.083,-3.083,-3.083,-3.0772,-3.083,-3.083,-3.0772,-3.0772,-3.0538,-3.0159,-2.9891,-2.9786,-2.9834,-3.0291,-3.0736,-3.0964,-3.0206,-2.9665,-2.9164,0.0,0.0,0.0,0.0,0.0,0.0,0.0,-3.8789,-3.8768,-3.9727,-3.9697,-3.9853,-4.0491,-4.0576,-4.038,-3.9816,-3.9091,-3.7467,-3.4583,-3.3231,-3.1843,-3.0259,-3.0366,-3.0199,-2.9596,-3.0266,-3.0389,-2.9831,-3.0335,-3.0935,-3.1529,-3.1638,-3.2283,-3.3317,-3.4053,-3.4648,-3.5192,-3.6651,-3.7232,-3.7203,-3.8482,-3.9475,-4.0177,-3.9846,-3.9986,-4.0421,-4.0196,-4.0496,-4.1057,-4.16,-4.1489,-4.1298,-4.1818,-4.1197,0.0,0.0,0.0,0.0,0.0,0.0,0.0,0.0,0.0,0.0,0.0,0.0,0.0,0.0,0.0,0.0,0.0,0.0,0.0,-3.0837,-3.0947,-3.1074,-3.0877,-3.0926,-3.0955,-3.0733,-3.0333,-3.0098,-2.9981,-2.9922,-2.9804,-2.9558,-2.9568,-2.945,-2.9213,-2.945,-2.9568,-2.9568,-2.9863,-3.0157,-3.0382,-3.0225,-3.0225,-3.0509,0.0,0.0,-3.0108,-3.0392,-3.0333,-3.0108,-3.0108,-3.006,-2.9974,-2.9916,-2.9867,-2.9887,-2.9612,-2.9594,-2.9565,-2.8736,-2.8346,-2.822,0.0,0.0,0.0,0.0,0.0,0.0,0.0,-3.9213,-3.9217,-3.9943,-4.005,-4.0363,-4.1167,-4.1294,-4.1063,-4.0519,-3.9231,-3.7508,-3.5161,-3.4351,-3.3388,-3.2145,-3.1813,-3.1482,-3.1137,-3.1498,-3.1368,-3.0774,-3.1321,-3.1719,-3.2026,-3.1895,-3.2436,-3.3579,-3.3774,-3.4297,-3.5054,-3.6038,-3.6684,-3.7013,-3.7793,-3.8738,-3.9579,-3.9561,-3.9794,-4.0182,-4.0159,-4.0611,-4.1162,-4.1289,-4.132,-4.133,-4.1268,-4.0619,-3.9861,0.0,0.0,0.0,0.0,0.0,0.0,0.0,0.0,0.0,0.0,0.0,0.0,0.0,0.0,-3.2242,-3.1168,0.0,-3.1688,-3.1186,-3.1134,-3.1192,-3.1131,-3.0811,-3.0577,-3.0441,-3.0098,-2.9863,-2.9686,-2.9568,-2.939,-2.9272,-2.9272,-2.9153,-2.8984,-2.9153,-2.9272,-2.9272,-2.9686,-2.9886,-2.9852,-3.0237,-3.0296,-3.0074,-3.0286,-3.0216,-2.9931,-3.0098,-2.9925,-2.96,-2.96,-2.96,-2.96,-2.9425,-2.9137,-2.8816,-2.8611,-2.8961,-2.9485,-2.8671,-2.8361,-2.8237,0.0,0.0,0.0,0.0,0.0,0.0,0.0,0.0,-3.9721,-4.0207,-4.0547,-4.1039,-4.1844,-4.1966,-4.1597,-4.072,-3.9452,-3.7977,-3.6335,-3.6269,-3.5721,-3.4613,-3.401,-3.3551,-3.3215,-3.306,-3.2668,-3.2121,-3.2541,-3.2779,-3.2817,-3.2417,-3.2818,-3.3884,-3.3693,-3.4123,-3.5163,-3.5678,-3.6351,-3.7101,-3.7389,-3.8036,-3.886,-3.927,-3.951,-3.9707,-3.9892,-4.0366,-4.0829,-4.0806,-4.093,-4.1094,-4.059,-3.9978,-3.9306,-3.8632,-3.8297,0.0,0.0,0.0,0.0,0.0,0.0,0.0,0.0,-3.3962,-3.3539,-3.2629,-3.2127,-3.1788,-3.144,-3.1401,-3.1471,-3.1594,-3.1556,-3.1441,-3.1325,-3.0859,-3.0538,-3.0497,-3.0087,-2.9745,-2.9499,-2.9213,-2.8984,-2.8984,-2.8984,-2.8984,-2.8984,-2.8984,-2.9044,-2.9103,-2.9518,-2.9653,-2.9439,-3.0179,-3.0296,-2.9719,-3.0053,-3.0039,-2.9745,-2.9719,-2.9493,-2.9114,-2.9114,-2.9067,-2.8992,-2.8672,-2.8238,-2.7765,-2.7651,-2.8399,-2.9395,-2.8741,-2.8435,-2.8267,0.0,0.0,0.0,0.0,0.0,0.0,0.0,0.0,0.0,-4.2099,-4.2247,-4.2806,-4.4337,-4.3789,-4.2644,-4.1024,-4.1419,-4.0771,-3.8331,-3.9559,-3.9091,-3.6326,-3.6664,-3.5966,-3.4032,-3.4252,-3.3965,-3.3137,-3.305,-3.322,-3.3594,-3.3266,-3.3511,-3.4167,-3.4455,-3.4928,-3.5534,-3.6543,-3.6826,-3.6697,-3.8061,-3.8362,-3.8099,-3.8817,-3.8986,-3.8824,-3.8605,-3.8781,-3.9179,-3.9739,-3.9691,-3.9446,-4.0006,-3.9236,-3.8135,-3.7919,-3.7336,-3.6677,-3.6323,-3.6168,-3.5881,-3.4913,-3.4988,-3.5059,0.0,-3.3885,-3.3476,-3.2473,-3.2437,-3.2359,-3.1676,-3.2107,-3.2358,-3.1832,-3.1988,-3.196,-3.1383,-3.1267,-3.1113,-3.0951,-3.014,-2.9499,-2.9499,-2.9213,-2.8984,-2.8984,-2.8984,-2.8984,-2.8984,-2.8984,-2.9163,-2.945,-2.9213,-2.9313,-2.9855,-2.9431,-2.9313,-2.9552,-2.9599,-2.945,-2.9094,-2.9009,-2.8765,-2.8505,-2.8505,-2.8293,-2.7971,-2.775,-2.7727,-2.7765,-2.7203,-2.7419,-2.7961,-2.7566,-2.7391,-2.7299,0.0,0.0,0.0,0.0,0.0,0.0,0.0,0.0,0.0,0.0,-4.2,-4.2479,-4.3778,-4.3271,-4.2427,-4.1331,-4.1731,-4.1651,-4.0726,-4.1667,-4.1832,-4.083,-3.9846,-3.8699,-3.7384,-3.6518,-3.5652,-3.4659,-3.4891,-3.5013,-3.505,-3.4944,-3.5073,-3.5416,-3.5274,-3.5481,-3.5938,-3.643,-3.7044,-3.7746,-3.836,-3.8793,-3.9184,-3.9358,-3.9445,-3.9398,-3.939,-3.9606,0.0,0.0,-4.0274,-3.9862,-3.9632,-3.8928,-3.8066,-3.7071,-3.6636,-3.6413,-3.5895,-3.5178,-3.4577,-3.4428,-3.4518,-3.4471,-3.3854,-3.3649,-3.3333,-3.227,-3.2345,-3.2367,-3.1825,-3.2125,-3.2487,-3.2602,-3.243,-3.219,-3.1893,-3.1488,-3.1219,-3.0996,-3.038,-2.9957,-2.9854,-2.953,-2.9213,-2.8984,-2.8984,-2.8984,-2.8984,-2.8984,-2.9035,-2.9213,-2.939,-2.9456,-2.9261,-2.9623,-2.9554,-2.9086,-2.9387,-2.9211,-2.8645,-2.8818,-2.8588,-2.8031,-2.8031,-2.7494,-2.6612,-2.7013,-2.6725,-2.6046,-2.5774,-2.6054,-2.6659,-2.7295,-2.7574,-2.7519,0.0,0.0,0.0,0.0,0.0,0.0,0.0,0.0,0.0,0.0,0.0,-4.2439,-4.3454,-4.3202,-4.2798,-4.2318,-4.2808,-4.3122,-4.3122,-4.3937,-4.4504,-4.4718,-4.295,-4.1553,-4.0664,-3.9007,-3.7616,-3.6502,-3.655,-3.6479,-3.6353,-3.6296,-3.6307,-3.6455,-3.6248,-3.6348,-3.663,-3.6883,-3.7719,-3.8863,-3.8926,-3.9445,-4.017,-4.0051,-4.0079,-4.0265,-4.0094,-4.0292,0.0,0.0,-4.0406,-3.9962,-3.9101,-3.8555,-3.7861,-3.6363,-3.5725,-3.5398,-3.4734,-3.3862,-3.3276,-3.3709,-3.385,-3.3788,-3.3528,-3.3417,-3.3125,-3.2465,-3.2475,-3.2482,-3.2165,-3.2442,-3.2804,-3.3157,-3.2841,-3.2477,-3.2342,-3.1893,-3.149,-3.1221,-3.0879,-3.0555,-3.0398,-2.9811,-2.939,-2.9163,-2.9044,-2.8984,-2.8984,-2.8984,-2.9035,-2.9153,-2.9459,-2.9418,-2.9002,-2.9644,-2.9644,-2.8886,-2.9183,-2.9,-2.8397,-2.8452,-2.8104,-2.7453,-2.7721,-2.7146,-2.6186,-2.6813,-2.6496,-2.5581,-2.531,-2.5553,-2.6251,-2.7276,-2.76,-2.762,0.0,0.0,0.0,0.0,0.0,0.0,0.0,0.0,0.0,0.0,0.0,0.0,0.0,-4.4458,-4.4359,-4.4225,-4.5421,-4.5937,-4.5452,-4.6674,-4.7276,-4.6835,-4.575,-4.4458,-4.3019,-4.1395,-3.9952,-3.8714,-3.7543,-3.7035,-3.718,-3.6938,-3.6838,-3.6834,-3.7629,-3.7918,-3.7816,-3.8667,-3.9338,-3.9862,-4.0044,-4.0359,-4.0632,-4.0502,-4.0775,-4.1024,-4.0071,0.0,0.0,-3.9636,-3.9288,-3.8954,-3.8398,-3.7839,-3.7098,-3.6024,-3.435,-3.2793,-3.2547,-3.2316,-3.2246,-3.2747,-3.2918,-3.3019,-3.3325,-3.3129,-3.2887,-3.3186,-3.3144,-3.3064,-3.2914,-3.3368,-3.3639,-3.3266,-3.3193,-3.3069,-3.2742,-3.2477,-3.218,-3.1978,-3.1534,-3.1201,-3.0959,-3.0099,-2.9499,-2.9509,-2.9153,-2.8984,-2.8984,-2.8984,-2.9153,-2.945,-2.9213,-2.9153,-2.949,-2.9213,-2.9035,-2.8966,-2.9035,-2.8773,-2.837,-2.7581,-2.7013,-2.6664,-2.7435,-2.7536,-2.7168,-2.7378,-2.7584,-2.7625,-2.6614,-2.6639,-2.716,-2.7187,-2.7196,-2.7196,0.0,0.0,0.0,0.0,0.0,0.0,0.0,0.0,0.0,0.0,0.0,0.0,0.0,0.0,0.0,0.0,-4.5913,-4.6562,-4.6932,-4.7686,-4.8271,-4.8594,-4.767,-4.666,-4.5578,-4.3873,-4.2408,-4.1141,-4.0141,-3.9422,-3.9007,-3.9028,-3.8908,-3.8715,-3.9019,-3.9028,-3.885,-3.9349,-3.9881,-4.0391,-4.0841,-4.1353,-4.1852,-4.1791,-4.1861,-4.2017,0.0,0.0,-4.0652,-4.0865,-4.025,-3.9323,-3.8898,-3.8448,-3.7699,-3.6106,-3.441,-3.3095,-3.3284,-3.2914,-3.2558,-3.309,-3.3194,-3.3228,-3.3355,-3.331,-3.3187,-3.3285,-3.3174,-3.3084,-3.2924,-3.2967,-3.3132,-3.343,-3.3306,-3.3182,-3.3037,-3.2742,-3.2299,-3.1591,-3.1424,-3.121,-3.0957,-3.0243,-2.9686,-2.9499,-2.9213,-2.8984,-2.8984,-2.8984,-2.9044,-2.9153,-2.9272,-2.9272,-2.9153,-2.9272,-2.9213,-2.8975,-2.8718,-2.8663,-2.8755,-2.7939,-2.7646,-2.7801,-2.8067,-2.7719,-2.705,-2.7338,-2.7137,-2.6593,-2.6231,-2.6315,-2.6637,-2.6906,-2.7069,-2.7215,0.0,0.0,0.0,0.0,0.0,0.0,0.0,0.0,0.0,0.0,0.0,0.0,0.0,0.0,0.0,0.0,0.0,-4.7521,-4.8397,-4.8498,-4.8977,-5.0071,-4.9077,-4.8228,-4.7667,-4.579,-4.4365,-4.3346,-4.1974,-4.1099,-4.0733,-4.061,-4.0494,-4.0392,-4.0542,-4.052,-4.0434,-4.0648,-4.1169,-4.1842,-4.168,-4.2205,-4.3021,-4.2569,-4.2549,0.0,0.0,0.0,-4.1015,-4.1219,-4.0648,-3.9812,-3.9073,-3.829,-3.7364,-3.596,-3.4439,-3.3257,-3.3563,-3.3025,-3.2533,-3.3165,-3.3381,-3.3358,-3.3505,-3.367,-3.378,-3.3689,-3.3597,-3.3447,-3.3168,-3.3149,-3.3142,-3.325,-3.3115,-3.3001,-3.3037,-3.2628,-3.2123,-3.1556,-3.1383,-3.116,-3.0762,-3.0225,-2.9804,-2.9686,-2.9213,-2.8984,-2.8984,-2.8984,-2.8984,-2.8984,-2.9213,-2.9213,-2.8984,-2.9213,-2.9213,-2.8975,-2.8581,-2.8526,-2.8746,-2.8067,-2.7911,-2.8177,-2.8333,-2.801,-2.7454,-2.7899,-2.7664,-2.7073,-2.6941,-2.696,-2.7041,-2.7158,-2.7325,-2.7454,0.0,0.0,0.0,0.0,0.0,0.0,0.0,0.0,0.0,0.0,0.0,0.0,0.0,0.0,0.0,0.0,0.0,0.0,-4.9729,-4.9138,-4.9436,-5.1031,-4.9899,-4.9255,-4.9258,-4.721,-4.5905,-4.5388,-4.316,-4.2129,-4.2291,-4.1682,-4.1481,-4.1657,-4.2073,-4.227,-4.2369,-4.2476,-4.3096,-4.3909,-4.2648,-4.2943,-4.4046,-4.2962,0.0,0.0,0.0,-4.2034,-4.1262,-4.0721,-4.05,-4.02,-3.8802,-3.7453,-3.6211,-3.5598,-3.4413,-3.3224,-3.3312,-3.2677,-3.2227,-3.3091,-3.3299,-3.3337,-3.3783,-3.4123,-3.4363,-3.4383,-3.4339,-3.4125,-3.3696,-3.3668,-3.3502,-3.2815,-3.2742,-3.2742,-3.2742,-3.2238,-3.1845,-3.1787,-3.1498,-3.1034,-3.045,-3.0098,-2.9863,-2.9863,-2.9331,-2.8984,-2.8984,-2.8984,-2.8984,-2.8984,-2.8984,-2.8984,-2.8984,-2.8984,-2.8984,-2.8975,-2.8599,-2.8416,-2.8388,-2.8003,-2.7877,-2.782,-2.8242,-2.8425,-2.8452,-2.8828,-2.8984,-2.8948,-2.8553,-2.8379,-2.8315,-2.7911,-2.7813,-2.7739,0.0,0.0,0.0,0.0,0.0,0.0,0.0,0.0,0.0,0.0,0.0,0.0,0.0,0.0,0.0,0.0,0.0,0.0,-4.9348,-4.9301,-4.9521,-5.0047,-4.9838,-4.973,-4.9723,-4.8934,-4.8272,-4.7736,-4.5378,-4.4156,-4.4019,-4.2249,-4.1762,-4.2339,-4.251,-4.2407,-4.2197,-4.3351,-4.3462,-4.2807,-4.3353,-4.3545,-4.3531,0.0,0.0,0.0,-4.26,-4.2382,-4.2072,-4.1318,-4.0373,-3.9362,-3.8415,-3.756,-3.6808,-3.6211,-3.5488,-3.469,-3.4146,-3.3812,-3.3657,-3.3774,-3.3798,-3.385,-3.4065,-3.3903,-3.3821,-3.4238,-3.3739,-3.3276,-3.3458,-3.3192,-3.2976,-3.309,-3.3069,-3.3069,-3.3069,-3.2706,-3.2295,-3.1845,-3.1498,-3.1034,-3.045,-3.0098,-2.9804,-2.9627,-2.9222,-2.8984,-2.8984,-2.8984,-2.8984,-2.8984,-2.8984,-2.8984,-2.8984,-2.8984,-2.8984,-2.8984,-2.8883,-2.8682,-2.8397,-2.859,-2.8507,-2.826,-2.8654,-2.8838,-2.8838,-2.8938,-2.8984,-2.8948,-2.8553,-2.8205,-2.7911,-2.7868,-2.7638,-2.7372,0.0,0.0,0.0,0.0,0.0,0.0,0.0,0.0,0.0,0.0,0.0,0.0,0.0,0.0,0.0,0.0,0.0,0.0,0.0,-4.953,-4.9666,-4.9813,-4.9942,-4.9999,-4.993,-4.9406,-4.8848,-4.8253,-4.6126,-4.4892,-4.4535,-4.2747,-4.2123,-4.2609,-4.2728,-4.2636,-4.2545,-4.375,-4.3912,0.0,0.0,0.0,0.0,0.0,0.0,-4.3269,-4.287,-4.2413,-4.1987,-4.1291,-4.0379,-3.9449,-3.9037,-3.8563,-3.8082,-3.7368,-3.685,-3.6301,-3.5346,-3.4975,-3.4801,-3.454,-3.4599,-3.4678,-3.4549,-3.4396,-3.4411,-3.4573,-3.3935,-3.332,-3.3543,-3.3074,-3.2799,-3.3043,-3.2908,-3.2856,-3.288,-3.2438,-3.195,-3.1614,-3.1334,-3.0869,-3.0216,-3.0039,-2.9745,-2.9331,-2.9103,-2.8984,-2.8984,-2.8984,-2.8984,-2.8984,-2.8984,-2.8984,-2.8984,-2.8984,-2.8984,-2.8984,-2.8984,-2.8865,-2.8654,-2.87,-2.87,-2.8654,0.0,-2.8728,-2.8728,-2.8728,-2.8618,-2.8425,-2.8205,-2.7976,-2.784,-2.7976,-2.7783,-2.7435,0.0,0.0,0.0,0.0,0.0,0.0,0.0,0.0,0.0,0.0,0.0,0.0,0.0,0.0,0.0,0.0,0.0,0.0,0.0,0.0,-4.9968,-5.0207,-5.0155,-5.0149,-5.0109,-4.9417,-4.8736,-4.8133,-4.636,-4.5209,-4.4657,-4.323,-4.2544,-4.2561,-4.2875,-4.2931,-4.2874,-4.3861,-4.4393,-4.451,-4.4247,-4.4325,0.0,0.0,0.0,-4.365,-4.301,-4.2198,-4.144,-4.0938,-4.0488,-4.0099,-4.0081,-3.9843,-3.9478,-3.8639,-3.8219,-3.7715,-3.6673,-3.6177,-3.5897,-3.5433,-3.5544,-3.562,-3.5124,-3.5188,-3.5225,-3.4901,-3.4207,-3.3618,-3.3597,-3.3054,-3.2643,-3.2783,-3.252,-3.2391,-3.2438,-3.1806,-3.1325,-3.1334,-3.1054,-3.0645,-2.999,-2.9922,-2.9627,-2.9044,-2.8984,-2.8984,-2.8984,-2.8984,-2.8984,-2.8984,-2.8938,-2.8929,-2.8984,-2.8984,-2.8984,-2.8984,-2.8984,-2.8957,-2.8893,-2.8599,-2.8599,-2.881,-2.8572,-2.8416,-2.8315,-2.837,-2.815,-2.7813,-2.7767,-2.7739,-2.7794,-2.8152,-2.8061,-2.7796,0.0,0.0,0.0,0.0,0.0,0.0,0.0,0.0,0.0,0.0,-4.6711,-4.7281,0.0,0.0,0.0,0.0,0.0,0.0,0.0,0.0,0.0,-5.1223,-5.0414,-5.02,-5.0727,-5.0452,-5.0171,-4.9964,-4.7871,-4.6655,-4.6179,-4.3873,-4.2681,-4.2369,-4.3177,-4.2938,-4.2096,-4.4392,-4.4763,-4.3873,-4.4619,-4.471,0.0,0.0,0.0,0.0,-4.2277,-4.1492,-4.0923,-4.0849,-4.0743,-4.0641,-4.0477,-4.0102,-3.9585,-3.9182,-3.8681,-3.8135,-3.7441,-3.7245,-3.7054,-3.6576,-3.649,-3.6354,-3.5655,-3.523,-3.4784,-3.4128,-3.3319,-3.2619,-3.2384,-3.2209,-3.2132,-3.2148,-3.2416,-3.2576,-3.236,-3.1953,-3.1614,-3.1325,-3.1054,-3.0645,-2.999,-2.9922,-2.9627,-2.9044,-2.8984,-2.8984,-2.8984,-2.8984,-2.8984,-2.8984,-2.8663,-2.8654,-2.8975,-2.8984,-2.8984,-2.8984,-2.8984,-2.881,-2.8507,-2.8764,-2.8544,-2.807,-2.8618,0.0,-2.7902,-2.8251,-2.815,-2.7794,-2.7407,-2.7279,-2.7344,-2.7642,-2.7688,-2.767,0.0,0.0,0.0,0.0,0.0,0.0,0.0,-4.4747,-4.5061,-4.5557,-4.633,-4.6859,-4.6961,-4.7732,-4.8398,0.0,0.0,0.0,0.0,0.0,0.0,0.0,0.0,0.0,-5.1091,-5.0634,-5.0178,-4.9712,0.0,-4.7262,-4.6511,-4.4616,-4.3215,-4.2325,-4.3144,-4.2667,-4.1479,-4.3534,-4.3904,-4.3171,-4.4214,-4.4287,0.0,0.0,0.0,0.0,-4.2567,-4.1932,-4.1449,-4.1129,-4.1064,-4.1058,-4.1077,-4.104,-4.0831,-4.0426,-4.0103,-3.9763,-3.9035,-3.8844,-3.8739,-3.812,-3.7814,-3.734,-3.6585,-3.5855,-3.5213,-3.4536,-3.384,-3.3295,-3.3127,-3.2647,-3.2367,-3.2664,-3.2406,-3.2131,-3.2127,-3.1822,-3.145,-3.1112,-3.1005,-3.0704,-3.0216,-2.9981,-2.9745,-2.9272,-2.9103,-2.8984,-2.8984,-2.8984,-2.8984,-2.8984,-2.8801,-2.8792,-2.8984,-2.8984,-2.8984,-2.8984,-2.8984,-2.8883,-2.87,-2.8682,-2.8569,-2.8316,-2.8501,-2.8242,-2.7706,-2.7909,-2.7639,-2.7188,-2.7096,-2.7077,-2.7151,-2.7493,-2.7577,-2.7632,0.0,0.0,0.0,0.0,0.0,0.0,0.0,-4.4688,-4.5011,-4.5524,-4.6196,-4.6666,-4.6833,-4.7399,-4.8046,0.0,0.0,0.0,0.0,0.0,0.0,0.0,0.0,0.0,0.0,0.0,0.0,-4.9361,-4.8696,0.0,0.0,0.0,0.0,0.0,-4.3242,-4.2652,-4.1362,-4.2798,-4.3104,0.0,0.0,-4.3925,0.0,0.0,0.0,0.0,0.0,-4.2514,-4.2046,-4.1489,-4.1314,-4.137,-4.1521,-4.1682,-4.1773,-4.1333,-4.1187,-4.1016,-4.0402,-4.0224,-4.0108,-3.9733,-3.9164,-3.8486,-3.7655,-3.6746,-3.5872,-3.5246,-3.4503,-3.4047,-3.3935,-3.3178,-3.2721,-3.3147,-3.2458,-3.1848,-3.1927,-3.1611,-3.1218,-3.0947,-3.0889,-3.0762,-3.045,-3.0157,-2.9863,-2.9509,-2.9213,-2.8984,-2.8984,-2.8902,-2.8893,-2.8984,-2.8902,-2.8893,-2.8984,-2.8984,-2.8984,-2.8984,-2.8984,-2.8984,-2.8975,-2.8663,-2.8532,-2.857,-2.8395,-2.7967,0.0,-2.7633,-2.7299,-2.6646,-2.6938,-2.7011,-2.7112,-2.7447,-2.7623,-2.7753,0.0,0.0,0.0,0.0,0.0,0.0,0.0,-4.4031,-4.4901,-4.5749,-4.5927,-4.6405,-4.7577,-4.8384,-4.8475,0.0,0.0,0.0,0.0,0.0,0.0,0.0,0.0,0.0,0.0,0.0,0.0,-5.0282,-4.9542,0.0,0.0,0.0,0.0,0.0,0.0,-4.3346,-4.2234,-4.3223,0.0,0.0,0.0,0.0,0.0,0.0,0.0,0.0,0.0,-4.2324,-4.2021,-4.1492,-4.1466,-4.1607,-4.1399,-4.121,-4.0995,-4.0944,-4.0746,-4.0619,-4.0795,-4.0643,-4.0568,-4.099,-4.0347,-3.9447,-3.8766,-3.7761,-3.6688,-3.5598,-3.4538,-3.3759,-3.3495,-3.3121,-3.2789,-3.2605,-3.2596,-3.2426,-3.1896,-3.1528,-3.1218,-3.0947,-3.0889,-3.0762,-3.045,-3.0392,-3.0098,-2.9568,-2.9213,-2.8984,-2.8984,-2.8645,-2.8618,-2.8975,-2.8636,-2.8618,-2.8975,-2.8984,-2.8984,-2.8984,-2.8984,-2.8984,-2.8984,-2.8948,-2.8575,-2.7895,-2.8514,-2.7957,0.0,-2.7753,-2.7549,-2.6619,-2.7041,-2.7179,-2.7234,-2.7503,-2.7856,-2.8173,0.0,0.0,0.0,0.0,0.0,0.0,-4.4079,-4.4439,-4.4907,-4.5246,-4.599,-4.661,-4.6799,-4.8086,-4.8973,-4.9118,0.0,0.0,0.0,0.0,0.0,0.0,0.0,0.0,0.0,0.0,-5.0425,-5.0519,-5.025,0.0,0.0,0.0,0.0,0.0,0.0,-4.4044,-4.268,-4.297,0.0,0.0,0.0,0.0,0.0,0.0,0.0,0.0,0.0,0.0,-4.228,-4.171,-4.1587,-4.1613,-4.1183,-4.1106,-4.1157,-4.1131,-4.0927,-4.0873,-4.1513,-4.1706,-4.1771,-4.1839,-4.1261,-4.0501,-3.9491,-3.8318,-3.7227,-3.658,-3.555,-3.4714,-3.4604,-3.3647,-3.2897,-3.2892,-3.2172,-3.1671,-3.1775,-3.1269,-3.0912,-3.1131,-3.1005,-3.083,-3.0704,-3.0509,-3.0147,-2.9558,-2.9099,-2.8895,-2.8966,-2.8838,-2.8819,-2.8975,-2.8828,-2.8709,-2.8627,-2.8627,-2.8627,-2.8627,-2.8627,-2.8755,-2.8984,-2.8984,-2.872,-2.8295,-2.8567,-2.8192,0.0,-2.7627,-2.7352,-2.6854,-2.7012,-2.7077,-2.7104,-2.7474,-2.7679,-2.7903,0.0,0.0,0.0,0.0,0.0,-4.5048,-4.4291,-4.4673,-4.4983,-4.4707,-4.5795,-4.6579,-4.6491,-4.7582,-4.8744,-4.9791,-4.9183,0.0,0.0,0.0,0.0,0.0,0.0,0.0,0.0,0.0,-5.0453,-5.0547,-5.063,-5.0492,0.0,0.0,-4.8067,-4.675,0.0,0.0,0.0,0.0,0.0,0.0,0.0,0.0,0.0,0.0,0.0,0.0,0.0,0.0,0.0,0.0,0.0,-4.1845,-4.1198,-4.1147,-4.1289,-4.117,-4.1105,-4.1188,-4.1946,-4.2203,-4.2255,-4.2376,-4.1787,-4.0913,-4.0182,-3.8862,-3.7761,-3.7453,-3.6363,-3.5532,-3.5532,-3.4328,-3.3343,-3.3325,-3.2211,-3.1486,-3.1734,-3.1087,-3.0722,-3.1039,-3.0847,-3.0742,-3.0879,-3.0518,-3.0041,-2.9507,-2.8993,-2.879,-2.896,-2.875,-2.8737,-2.8975,-2.8984,-2.8792,-2.8397,-2.8397,-2.8397,-2.8397,-2.8397,-2.8544,-2.881,-2.881,-2.8661,-2.8333,-2.8389,-2.8195,0.0,-2.7727,-2.7437,-2.6999,-2.7129,-2.7121,-2.7103,-2.7401,-2.7614,-2.7864,0.0,0.0,0.0,0.0,0.0,0.0,-4.331,-4.4487,-4.5144,-4.4237,-4.5157,-4.6237,-4.7099,-4.7021,-4.7379,-4.8514,-4.9036,0.0,0.0,0.0,0.0,0.0,0.0,0.0,0.0,0.0,-5.0415,-5.0397,-5.0737,-5.062,-5.0091,-4.9479,-4.8731,-4.7803,0.0,0.0,0.0,0.0,0.0,0.0,0.0,0.0,0.0,0.0,0.0,0.0,0.0,0.0,0.0,0.0,0.0,0.0,0.0,-4.1311,-4.1261,-4.0997,-4.111,-4.1411,-4.1944,-4.171,-4.1555,-4.2687,-4.1742,-4.0607,-4.0833,-3.9578,-3.8303,-3.8039,-3.6839,-3.5806,-3.5806,-3.5058,-3.43,-3.3681,-3.2952,-3.2257,-3.1697,-3.101,-3.0613,-3.0613,-3.0376,-3.0391,-3.084,-3.0284,-2.9751,-2.9316,-2.8728,-2.8505,-2.8777,-2.8166,-2.8208,-2.8957,-2.8984,-2.8792,-2.8397,-2.8397,-2.8397,-2.8397,-2.8397,-2.8397,-2.8397,-2.8397,-2.8129,-2.7632,-2.7891,-2.7755,0.0,-2.8215,-2.792,-2.7027,-2.7455,-2.7456,-2.7169,-2.7169,-2.7691,-2.8388,0.0,0.0,0.0,0.0,0.0,0.0,0.0,-4.4541,-4.4832,-4.3412,-4.4363,-4.527,-4.5417,-4.6307,-4.685,-4.6757,-4.7363,0.0,0.0,0.0,0.0,0.0,0.0,0.0,0.0,0.0,-5.0697,-5.0274,-5.0647,-5.0712,-5.0446,-5.0137,-4.9509,-4.8541,-4.7189,-4.6406,0.0,0.0,0.0,0.0,0.0,0.0,-4.4908,0.0,0.0,0.0,0.0,0.0,0.0,0.0,0.0,0.0,0.0,0.0,0.0,-4.1248,-4.1097,-4.1138,-4.1744,-4.1899,-4.1887,-4.1917,-4.1518,-4.0965,-4.0491,-3.9474,-3.8631,-3.8579,-3.7388,-3.6363,-3.6157,-3.5235,-3.4356,-3.403,-3.2855,-3.2183,-3.2642,-3.1391,-3.0724,-3.1334,-3.0953,-3.0665,-3.0558,-3.0392,-2.9859,-2.9027,-2.8516,-2.8196,-2.812,-2.7638,-2.7842,-2.8827,-2.8403,-2.8015,-2.7563,-2.7563,-2.7563,-2.7563,-2.7563,-2.7701,-2.7967,-2.7967,-2.7852,-2.7577,-2.7678,-2.771,0.0,-2.7573,-2.7382,-2.7225,-2.6993,-2.6884,-2.6811,-2.7077,-2.7517,-2.8024,0.0,0.0,0.0,0.0,0.0,0.0,0.0,-4.4315,-4.4457,-4.2683,-4.3784,-4.4614,-4.4412,-4.5596,-4.6229,-4.5812,-4.6519,0.0,0.0,0.0,0.0,0.0,0.0,0.0,-5.0416,-5.0918,-5.1002,-5.0605,-5.1364,-5.1698,-5.1653,-5.1392,-5.0697,-4.961,-4.8032,-4.7271,0.0,0.0,0.0,0.0,0.0,0.0,-4.4462,0.0,0.0,0.0,0.0,0.0,0.0,0.0,0.0,0.0,0.0,0.0,0.0,0.0,-4.0896,-4.0873,-4.1451,-4.1606,-4.1478,-4.1132,-4.0926,-4.0566,-3.9954,-3.9206,-3.8631,-3.8631,-3.7613,-3.6592,-3.632,-3.5244,-3.4305,-3.3942,-3.2783,-3.2159,-3.2646,-3.1625,-3.0908,-3.1074,-3.0677,-3.0266,-2.9968,-2.9949,-2.9573,-2.8629,-2.8254,-2.7928,-2.777,-2.7271,-2.741,-2.8341,-2.7982,-2.7638,-2.7178,-2.7178,-2.7178,-2.7178,-2.7178,-2.7306,-2.7601,-2.7601,-2.7493,-2.7381,-2.75,0.0,0.0,-2.7476,-2.7368,-2.7377,-2.6899,-2.6691,-2.6619,-2.6866,-2.7114,-2.7381,0.0,0.0,0.0,0.0,0.0,0.0,0.0,-4.3912,-4.4009,-4.2139,-4.3321,-4.4246,-4.4029,-4.4922,-4.5549,-4.5511,0.0,0.0,0.0,0.0,0.0,0.0,0.0,0.0,-5.004,-5.0794,-5.1193,-5.1239,-5.2472,-5.3169,-5.3379,-5.2978,-5.2184,-5.104,-4.899,-4.7966,0.0,0.0,0.0,0.0,-4.4437,-4.3963,0.0,0.0,0.0,0.0,0.0,0.0,0.0,0.0,0.0,0.0,0.0,0.0,0.0,0.0,0.0,0.0,0.0,-4.0808,-4.0453,-4.0402,-4.0044,-3.9581,-3.9322,-3.8788,0.0,-3.8356,-3.7441,-3.6592,-3.632,-3.5149,-3.4098,-3.3677,-3.2774,-3.211,-3.1975,-3.1702,-3.1091,-3.0076,-2.9748,-2.9402,-2.9076,-2.9174,-2.8954,-2.8163,-2.7917,-2.7742,-2.7521,-2.6939,-2.6911,-2.7539,-2.7706,-2.7555,-2.7141,-2.7132,-2.7132,-2.7132,-2.7132,-2.7132,-2.7132,-2.7132,-2.7087,0.0,-2.726,0.0,0.0,-2.7853,-2.7672,-2.7384,-2.7142,-2.6881,-2.66,-2.6627,-2.6636,-2.6636,0.0,0.0,0.0,0.0,0.0,0.0,0.0,0.0,0.0,0.0,-4.2945,-4.3663,-4.3184,-4.4285,-4.4993,0.0,0.0,0.0,0.0,0.0,0.0,0.0,0.0,0.0,-4.9474,-4.9924,-5.0362,-5.0746,-5.1541,-5.2344,-5.3257,-5.3334,-5.3004,-5.223,-5.0451,-4.8663,0.0,0.0,0.0,0.0,-4.4269,-4.384,0.0,0.0,0.0,0.0,-4.1248,-4.0498,0.0,0.0,0.0,0.0,0.0,0.0,0.0,0.0,-4.0336,-4.0381,-3.9888,0.0,-3.9839,-3.9633,-3.931,-3.901,0.0,-3.8303,-3.7826,-3.8039,-3.7185,-3.632,-3.5982,-3.5204,-3.4326,-3.357,-3.2447,-3.1613,-3.1543,-3.0843,-3.0135,-2.9422,-2.9244,-2.9019,-2.8446,-2.8707,-2.8536,-2.7539,-2.7647,-2.7519,-2.6866,-2.6891,-2.6981,-2.7129,-2.7168,-2.7022,-2.6729,-2.6729,-2.6729,-2.6729,-2.6729,-2.6729,-2.6729,-2.6729,-2.6728,-2.6691,0.0,0.0,-2.7539,-2.7539,-2.7393,-2.7232,-2.7299,-2.7081,-2.6749,-2.6887,-2.7053,-2.7178,0.0,0.0,0.0,0.0,0.0,0.0,0.0,0.0,0.0,0.0,0.0,0.0,0.0,0.0,0.0,0.0,0.0,0.0,0.0,0.0,0.0,0.0,0.0,-4.9778,-5.0157,-5.0356,-5.0839,-5.1606,-5.297,-5.3847,-5.4279,-5.5177,-5.4845,-5.3358,-5.1816,-5.0075,-4.8306,-4.7606,-4.7163,-4.6773,-4.4714,0.0,0.0,0.0,0.0,0.0,-4.063,-3.9982,0.0,-4.0135,-3.9778,-3.9142,0.0,0.0,0.0,0.0,-3.9626,-3.9693,-3.9498,-3.9352,-3.9218,-3.8945,-3.8684,-3.8356,-3.8092,-3.7613,-3.7185,-3.7239,-3.658,-3.5982,-3.5642,-3.4877,-3.4087,-3.36,-3.2515,-3.1579,-3.1156,-3.0188,-2.9342,-2.888,-2.855,-2.8235,-2.793,-2.8088,-2.7985,-2.7261,-2.737,-2.7233,-2.6619,-2.6836,-2.6989,-2.6989,-2.6989,-2.6935,-2.6791,-2.6636,-2.6591,-2.6591,-2.6591,-2.6591,-2.6591,-2.6591,-2.6591,-2.6646,0.0,0.0,-2.7147,-2.7245,-2.7156,-2.6916,-2.7093,-2.6795,-2.6379,-2.6783,-2.6689,-2.6323,0.0,0.0,0.0,0.0,0.0,0.0,0.0,0.0,0.0,0.0,0.0,0.0,0.0,0.0,0.0,0.0,0.0,0.0,0.0,0.0,0.0,0.0,-4.8819,-4.9695,-5.0855,-5.0911,-5.1506,-5.2658,-5.4816,-5.5767,-5.5629,-5.7213,-5.6756,-5.453,-5.3156,-5.1846,-5.0566,-4.9232,-4.8159,-4.7195,-4.5421,0.0,0.0,0.0,0.0,0.0,0.0,0.0,0.0,-3.9608,-3.9634,-3.9378,-3.8973,0.0,0.0,0.0,0.0,0.0,-3.8951,-3.8817,-3.8599,-3.8599,-3.8166,-3.7667,-3.7249,-3.6758,-3.632,-3.6211,-3.5817,-3.5488,-3.5201,-3.4384,-3.3648,-3.3342,-3.2332,-3.134,-3.0462,-2.9496,-2.8687,-2.8327,-2.7748,-2.7356,-2.7447,-2.7475,-2.7438,-2.7151,-2.7141,-2.7004,-2.6609,-2.6836,-2.6989,-2.6989,-2.6989,-2.7015,-2.695,-2.6708,-2.6591,-2.6591,-2.6591,-2.6591,-2.6591,-2.6572,-2.6554,-2.6599,0.0,0.0,-2.6774,-2.7069,-2.6923,-2.6596,-2.6769,-2.6475,-2.5956,-2.657,-2.6168,-2.5336,0.0,0.0,0.0,0.0,0.0,0.0,0.0,0.0,0.0,0.0,0.0,0.0,0.0,0.0,0.0,0.0,0.0,0.0,0.0,0.0,0.0,-4.6548,-4.6982,-4.789,-4.932,-4.9667,-5.052,-5.195,-5.3544,-5.4925,-5.6028,-5.7246,-5.7105,-5.5784,-5.4664,-5.3446,-5.2111,-5.0149,-4.9374,-4.9148,-4.5917,0.0,0.0,0.0,0.0,0.0,0.0,0.0,0.0,-3.9714,-3.9268,-3.843,-3.9018,0.0,0.0,0.0,0.0,0.0,-3.6729,-3.7086,-3.8078,-3.9101,-3.804,-3.683,-3.7339,-3.6112,-3.498,-3.5433,-3.4891,-3.4233,-3.392,-3.36,-3.3033,-3.206,-3.0776,-2.9643,-2.8913,-2.8464,-2.7905,-2.7283,-2.7135,-2.6963,-2.6783,-2.7032,-2.7096,-2.6701,-2.6985,-2.7004,-2.6609,-2.6836,-2.6989,-2.6989,-2.6989,-2.6939,-2.6814,-2.6678,-2.6591,-2.6591,-2.6591,-2.6591,-2.6573,-2.6493,-2.6433,-2.6414,0.0,-2.6705,-2.6637,-2.6904,-2.6805,-2.6473,-2.6851,-2.6703,-2.6332,-2.6545,-2.6442,-2.6227,0.0,0.0,0.0,0.0,0.0,0.0,0.0,0.0,0.0,0.0,0.0,0.0,0.0,0.0,0.0,0.0,0.0,0.0,0.0,0.0,-4.5773,-4.6385,-4.671,-4.7596,-4.9233,-4.9778,-5.0892,-5.2655,-5.4547,-5.5706,-5.6153,-5.6891,-5.6774,-5.5953,-5.5244,-5.4127,-5.2679,-5.1484,-5.0536,-4.9623,0.0,0.0,0.0,0.0,0.0,0.0,0.0,0.0,0.0,0.0,-3.9096,-3.8677,-3.823,0.0,0.0,0.0,0.0,0.0,-3.6204,-3.6342,-3.6901,-3.7805,-3.7155,-3.6453,-3.6623,-3.5523,-3.4493,-3.4769,-3.4339,-3.3752,-3.3239,-3.2906,-3.2308,-3.1122,-3.0356,-2.9608,-2.8804,-2.8173,-2.7604,-2.7188,-2.692,-2.6682,-2.6354,-2.6637,-2.6729,-2.6373,-2.6692,-2.6784,-2.66,-2.6836,-2.6989,-2.6989,-2.6989,-2.6959,-2.6933,-2.6851,-2.6677,-2.6346,-2.6346,-2.6467,-2.6726,-2.6358,-2.6389,-2.6639,0.0,-2.6458,-2.6256,-2.6569,-2.6316,-2.5827,-2.6303,-2.6106,-2.5601,-2.5843,-2.5944,-2.6035,0.0,0.0,0.0,0.0,0.0,0.0,0.0,0.0,0.0,0.0,0.0,0.0,0.0,0.0,0.0,0.0,0.0,0.0,0.0,0.0,-4.4818,-4.5923,-4.6422,-4.7684,-4.9796,-5.036,-5.1573,-5.3519,-5.5478,-5.6493,-5.6593,-5.6833,-5.6645,-5.6079,-5.5741,-5.4703,-5.3189,-5.2755,-5.1681,-5.0112,0.0,0.0,0.0,0.0,0.0,0.0,0.0,0.0,0.0,0.0,0.0,0.0,0.0,0.0,0.0,-3.585,-3.55,-3.5458,-3.5612,-3.5676,-3.5797,-3.6037,-3.603,-3.5838,-3.5782,-3.4832,-3.401,-3.3964,-3.3712,-3.3246,-3.2529,-3.2055,-3.1421,-3.0314,-3.0045,-2.9565,-2.8612,-2.7952,-2.7445,-2.714,-2.6746,-2.6473,-2.6254,-2.6364,-2.6418,-2.6245,-2.6473,-2.6591,-2.6591,-2.6791,-2.689,-2.689,-2.689,-2.6888,-2.6849,-2.6849,-2.6639,-2.6177,-2.6229,-2.6399,-2.6692,-2.6225,-2.6276,-2.6646,-2.6474,-2.6172,-2.5863,-2.6131,-2.5887,-2.542,-2.5797,-2.5572,-2.5137,-2.5333,-2.5489,-2.5635,0.0,0.0,0.0,0.0,0.0,0.0,0.0,0.0,0.0,0.0,0.0,0.0,0.0,0.0,0.0,0.0,0.0,0.0,0.0,0.0,-4.425,-4.4202,-4.5326,-4.7536,-5.0809,-5.1113,-5.2096,-5.3847,-5.5076,-5.6358,-5.7698,-5.7698,-5.7362,-5.6649,-5.6487,-5.557,-5.4188,-5.3749,-5.2815,-5.1382,-4.9563,0.0,0.0,0.0,0.0,0.0,0.0,0.0,0.0,0.0,0.0,0.0,0.0,0.0,-3.5477,-3.508,-3.4673,-3.4368,-3.4075,-3.4551,-3.504,-3.44,-3.4508,-3.484,-3.5202,-3.4014,-3.2876,-3.3005,-3.2701,-3.2174,-3.1508,-3.0908,-3.0323,-2.9599,-2.9235,-2.8742,-2.7673,-2.7458,-2.7262,-2.6794,-2.648,-2.6392,-2.6573,-2.63,-2.6245,-2.6527,-2.6591,-2.6591,-2.6591,-2.6646,-2.6646,-2.6646,-2.6646,-2.6561,-2.6439,-2.643,-2.6402,-2.6399,-2.662,-2.6629,-2.6418,-2.6066,-2.5984,-2.6139,-2.5884,-2.5762,-2.5732,-2.5732,-2.5713,-2.5693,-2.5723,-2.5664,-2.5635,-2.5635,-2.5538,-2.5333,0.0,0.0,0.0,0.0,0.0,0.0,0.0,0.0,0.0,0.0,0.0,0.0,0.0,0.0,0.0,0.0,0.0,0.0,0.0,-4.405,-4.4209,-4.4437,-4.5035,-4.657,-4.9244,-5.0495,-5.1997,-5.3777,-5.5322,-5.6437,-5.7105,-5.7105,-5.6646,-5.5834,-5.6131,-5.54,-5.3937,-5.4043,-5.3238,-5.1769,-5.0682,-4.945,0.0,0.0,0.0,0.0,0.0,0.0,0.0,0.0,-3.7257,-3.646,-3.5829,-3.5389,-3.498,-3.4267,-3.4172,-3.408,-3.3105,-3.3689,-3.4237,-3.3287,-3.3284,-3.3716,-3.4458,-3.3619,-3.2745,-3.2993,-3.2575,-3.1945,-3.0992,-3.027,-2.9618,-2.8975,-2.8925,-2.8692,-2.7884,-2.7544,-2.7337,-2.7151,-2.6793,-2.65,-2.6421,-2.6399,-2.6364,-2.63,-2.6473,-2.6591,-2.6591,-2.6591,-2.6591,-2.6591,-2.6591,-2.6572,-2.6515,-2.6667,-2.6635,-2.6383,-2.6394,-2.6324,-2.6234,-2.5863,-2.5692,-2.5774,-2.5395,-2.5186,-2.5235,-2.5382,-2.5333,-2.5235,-2.5391,-2.543,-2.5489,-2.5635,-2.5635,-2.5538,0.0,0.0,0.0,0.0,0.0,0.0,0.0,0.0,0.0,0.0,0.0,0.0,0.0,0.0,0.0,0.0,0.0,0.0,-4.3808,-4.3871,-4.4043,-4.4378,-4.4789,-4.589,-4.7737,-4.9616,-5.1556,-5.3528,-5.5255,-5.6074,-5.5961,-5.5922,-5.5466,-5.4793,-5.5471,-5.5077,-5.398,-5.4611,-5.3964,-5.2402,-5.1834,-5.0575,0.0,0.0,0.0,0.0,0.0,0.0,0.0,0.0,-3.644,-3.5783,-3.467,-3.4337,-3.4267,-3.3625,-3.3642,-3.3644,-3.2909,-3.3087,-3.3392,-3.2771,-3.2608,-3.2766,-3.3599,-3.3143,-3.2668,-3.2831,-3.2124,-3.1203,-3.0323,-2.9652,-2.891,-2.8268,-2.8358,-2.8319,-2.7788,-2.75,-2.7246,-2.7108,-2.6721,-2.6353,-2.6122,-2.6252,-2.6245,-2.6127,-2.6418,-2.6591,-2.6591,-2.6591,-2.6591,-2.6591,-2.6591,-2.6591,-2.6591,-2.689,-2.6805,-2.6482,-2.6405,-2.6333,-2.6163,-2.5686,-2.5547,-2.5538,-2.5112,-2.4883,-2.4932,-2.5088,-2.5088,-2.4932,-2.5186,-2.5284,-2.5333,-2.5586,-2.5645,-2.5586,0.0,0.0,0.0,0.0,0.0,0.0,0.0,0.0,0.0,0.0,0.0,0.0,0.0,0.0,0.0,0.0,0.0,0.0,-4.4033,-4.3793,-4.369,-4.369,-4.4546,-4.5531,-4.6656,-4.8649,-5.0807,-5.3112,-5.4645,-5.5013,-5.4405,-5.4188,-5.3905,-5.3632,-5.4551,-5.4832,-5.4576,-5.5699,-5.5092,-5.3381,-5.2975,-5.1766,-5.0026,0.0,0.0,0.0,0.0,0.0,0.0,0.0,-3.5476,-3.5123,-3.3449,-3.304,-3.3193,-3.3193,-3.2965,-3.2819,-3.3399,-3.2942,-3.2425,-3.2944,-3.2441,-3.1902,-3.2485,-3.2465,-3.2396,-3.2309,-3.0984,-2.9813,-2.9568,-2.8898,-2.8164,-2.7511,-2.7456,-2.7409,-2.7133,-2.7073,-2.691,-2.6476,-2.6108,-2.5863,-2.5712,-2.5688,-2.5789,-2.6072,-2.6418,-2.6591,-2.6591,-2.6591,-2.6591,-2.6591,-2.6591,-2.6591,-2.6582,-2.689,-2.689,-2.6582,-2.6881,-2.6667,-2.6069,-2.5695,-2.5497,-2.5459,-2.5062,-2.4883,-2.4883,-2.4883,-2.4883,-2.4932,-2.5186,-2.5284,-2.5333,-2.5586,-2.5538,-2.5333,0.0,0.0,0.0,0.0,0.0,0.0,0.0,0.0,0.0,0.0,0.0,0.0,0.0,0.0,0.0,0.0,0.0,0.0,-4.3838,-4.3729,-4.3769,-4.391,-4.4293,-4.4965,-4.589,-4.8067,-5.07,-5.3814,-5.3923,-5.404,-5.41,-5.356,-5.342,-5.3616,-5.4044,-5.418,-5.4109,-5.4759,-5.4444,-5.352,-5.3389,-5.2489,-5.1009,0.0,0.0,0.0,0.0,0.0,0.0,0.0,0.0,0.0,-3.4173,-3.38,-3.3409,-3.2991,-3.3209,-3.3471,-3.2663,-3.2326,-3.2167,-3.2306,-3.1791,-3.1386,-3.2072,-3.1797,-3.1308,-3.0939,-3.0233,-2.9508,-2.8965,-2.8469,-2.7881,-2.7261,-2.7337,-2.7409,-2.7133,-2.7073,-2.6945,-2.6497,-2.6339,-2.6099,-2.5812,-2.5737,-2.5789,-2.6072,-2.6181,-2.6354,-2.6591,-2.6591,-2.6591,-2.6591,-2.6591,-2.6444,-2.6205,-2.6249,-2.6111,-2.5782,-2.5835,-2.5863,-2.5891,-2.5553,-2.5224,-2.4805,-2.4495,-2.4399,-2.4449,-2.4538,-2.4735,-2.4883,-2.499,-2.5137,-2.5294,-2.5391,-2.5489,-2.5586,0.0,0.0,0.0,0.0,0.0,0.0,0.0,0.0,0.0,0.0,-4.6361,0.0,0.0,0.0,0.0,0.0,0.0,0.0,0.0,-4.3797,-4.4027,-4.4264,-4.4564,-4.5248,-4.6403,-4.8036,-5.0029,-5.248,-5.2544,-5.2698,-5.2804,-5.2773,-5.2989,-5.3399,-5.3776,-5.4281,-5.4792,-5.4914,-5.4711,-5.4256,-5.4117,-5.311,-5.1581,0.0,0.0,0.0,0.0,0.0,0.0,0.0,0.0,0.0,-3.4094,-3.3593,-3.3226,-3.2709,-3.3001,-3.3269,-3.2412,-3.1979,-3.177,-3.1668,-3.1202,-3.0882,-3.1251,-3.1219,-3.1005,-3.0381,-2.9721,-2.8979,-2.8262,-2.7737,-2.7293,-2.6821,-2.6987,-2.7108,-2.7073,-2.7073,-2.6876,-2.6328,-2.6254,-2.5967,-2.5423,-2.5433,-2.5624,-2.5907,-2.6017,-2.6181,-2.6409,-2.6527,-2.64,-2.6028,-2.6235,-2.6195,-2.5782,-2.5887,-2.582,-2.558,-2.5674,-2.5633,-2.5526,-2.5288,-2.4928,-2.4489,-2.4301,-2.4202,-2.4202,-2.4341,-2.4489,-2.4637,-2.4686,-2.4883,-2.5137,-2.5235,-2.5489,-2.5713,0.0,0.0,0.0,0.0,0.0,0.0,0.0,0.0,0.0,0.0,-4.6059,-4.6717,0.0,0.0,0.0,0.0,0.0,0.0,0.0,0.0,-4.4503,-4.476,-4.5173,-4.6104,-4.7651,-4.8183,-4.8858,-4.9727,-5.0743,-5.1121,-5.095,-5.1826,-5.2508,-5.2924,-5.3649,-5.4721,-5.5932,-5.5611,-5.5427,-5.5265,-5.4826,-5.3587,-5.1929,-5.1311,0.0,0.0,0.0,0.0,0.0,0.0,0.0,0.0,-3.3639,-3.2952,-3.2859,-3.2448,-3.2467,-3.259,-3.2379,-3.174,-3.1113,-3.1127,-3.0766,-3.0382,-3.0087,-3.061,-3.0975,-3.0199,-2.9215,-2.8289,-2.7539,-2.6884,-2.6406,-2.6363,-2.6499,-2.67,-2.7012,-2.7073,-2.673,-2.597,-2.5885,-2.5586,-2.4834,-2.5017,-2.5284,-2.5679,-2.5907,-2.6054,-2.6073,-2.6354,-2.6073,-2.5183,-2.5646,-2.5773,-2.5378,-2.5585,-2.567,-2.5685,-2.5914,-2.5656,-2.5028,-2.49,-2.4697,-2.4489,-2.4301,-2.4202,-2.4251,-2.4202,-2.4202,-2.4202,-2.439,-2.4637,-2.4932,-2.5186,-2.544,-2.5742,0.0,0.0,0.0,0.0,0.0,0.0,0.0,0.0,0.0,0.0,0.0,0.0,0.0,0.0,0.0,0.0,0.0,0.0,0.0,0.0,-4.5177,-4.5413,-4.5988,-4.6725,-4.7609,-4.737,-4.7446,-4.7812,-4.9261,-5.0069,-5.0222,-5.0954,-5.1518,-5.1932,-5.2757,-5.3704,-5.4655,-5.408,-5.4428,-5.5296,-5.4463,-5.36,-5.2668,-5.2025,-5.0228,0.0,0.0,0.0,0.0,0.0,0.0,0.0,-3.5023,-3.3949,-3.3095,-3.1999,-3.1814,-3.1868,-3.1742,-3.083,-3.0157,-3.0889,-3.0705,-3.0104,-2.9561,-2.9383,-2.9238,-2.8713,-2.8243,-2.7602,-2.6619,-2.6313,-2.6111,-2.5768,-2.6206,-2.664,-2.67,-2.67,-2.6422,-2.5678,-2.5527,-2.5232,-2.4563,-2.4701,-2.5081,-2.5688,-2.5505,-2.5592,-2.5998,-2.5828,-2.5602,-2.5352,-2.5448,-2.5359,-2.4913,-2.5015,-2.485,0.0,-2.4609,-2.4563,-2.4389,-2.4853,-2.482,-2.4489,-2.4301,-2.4301,-2.444,-2.4251,-2.4202,-2.4202,-2.4251,-2.4538,-2.4883,-2.4981,-2.5284,-2.5703,0.0,0.0,0.0,0.0,0.0,0.0,0.0,0.0,0.0,0.0,0.0,0.0,0.0,0.0,0.0,0.0,0.0,0.0,0.0,0.0,-4.5806,-4.6204,-4.6548,-4.6849,-4.7106,-4.6756,-4.655,-4.6506,-4.7491,-4.8306,-4.9002,-5.0117,-5.1076,-5.1829,-5.2642,-5.3671,-5.477,-5.3753,-5.3963,-5.4843,-5.381,-5.2901,-5.2173,-5.1796,-5.0381,-4.8435,-4.7213,0.0,0.0,0.0,0.0,0.0,0.0,0.0,-3.4241,-3.2556,-3.1892,-3.163,-3.1177,-3.0294,-2.9595,-3.0088,-2.9843,-2.9482,-2.9482,-2.8862,-2.8182,-2.7828,-2.7411,-2.6923,-2.5999,-2.5839,-2.5725,-2.5365,-2.5764,-2.6129,-2.631,-2.6482,-2.6279,-2.5603,-2.5585,-2.529,-2.4508,-2.4654,-2.4979,-2.5459,-2.5173,-2.5153,-2.5549,-2.536,-2.508,-2.4675,-2.4984,-2.4886,-2.4473,-2.4482,-2.4472,-2.4341,-2.4341,-2.439,-2.4548,-2.4753,-2.4675,-2.448,-2.439,-2.439,-2.448,-2.4291,-2.4202,-2.4202,-2.4202,-2.4498,-2.4883,-2.4883,-2.536,-2.6074,0.0,0.0,0.0,0.0,0.0,0.0,0.0,0.0,0.0,0.0,0.0,0.0,0.0,0.0,0.0,0.0,0.0,0.0,0.0,0.0,0.0,-4.677,-4.6741,-4.6609,-4.6447,-4.618,-4.5896,-4.5611,-4.5837,-4.6506,-4.76,-4.9213,-5.0554,-5.1647,-5.2372,-5.3585,-5.4979,-5.3627,-5.3542,-5.4156,-5.2974,-5.2005,-5.1311,-5.1256,-5.0224,-4.8773,-4.8228,-4.6705,-4.4678,-4.3299,0.0,0.0,0.0,0.0,-3.5684,-3.3497,-3.2284,-3.1472,-3.077,-2.9967,-2.9247,-2.9073,-2.8872,-2.8845,-2.9349,-2.8424,-2.7373,-2.7021,-2.6654,-2.6264,-2.5614,-2.548,-2.5428,-2.5072,-2.5357,-2.5673,-2.5964,-2.6313,-2.6245,-2.5519,-2.5644,-2.5413,-2.4387,-2.4599,-2.4923,-2.5174,-2.4896,-2.4832,-2.5067,-2.4967,-2.4625,-2.3954,-2.4463,-2.45,-2.4143,-2.4143,-2.4291,-2.443,-2.443,-2.4538,-2.4784,-2.4587,-2.4538,-2.4587,-2.4587,-2.4529,-2.4489,-2.4341,-2.4251,-2.4202,-2.4202,-2.4498,-2.4892,-2.5017,-2.562,-2.6455,0.0,0.0,0.0,0.0,0.0,0.0,0.0,0.0,0.0,0.0,-4.7123,-4.6927,0.0,0.0,0.0,0.0,0.0,0.0,0.0,0.0,0.0,-4.6299,-4.6061,-4.5927,-4.5927,-4.5475,-4.5124,-4.4833,-4.4879,-4.5367,-4.6284,-4.7837,-4.9037,-4.9954,-5.0878,-5.2188,-5.3583,-5.2179,-5.2444,-5.3662,-5.2125,-5.1431,-5.1271,-5.1095,-5.0484,-4.9592,-4.8614,-4.7778,-4.6814,-4.4564,-4.3338,0.0,0.0,0.0,-3.659,-3.4233,-3.2556,-3.1294,-3.063,-2.991,-2.9199,-2.8438,-2.8489,-2.8541,-2.8061,-2.734,-2.6564,-2.5967,-2.5793,-2.5595,-2.5236,-2.5173,-2.5053,-2.4695,-2.544,-2.5962,-2.5716,-2.6181,-2.6183,-2.5194,-2.5286,-2.506,-2.4043,-2.4487,-2.4923,-2.5174,-2.4927,-2.4835,-2.4939,-2.4701,-2.4439,-2.4162,-2.4235,-2.4257,-2.4202,-2.4202,-2.4202,-2.4251,-2.4251,-2.4251,-2.4301,-2.444,-2.4637,-2.4833,-2.4833,-2.4735,-2.448,-2.4489,-2.4341,-2.4202,-2.4202,-2.4498,-2.493,-2.5348,-2.5879,-2.6455,0.0,0.0,0.0,0.0,0.0,0.0,0.0,0.0,0.0,0.0,0.0,-4.7655,0.0,0.0,0.0,-4.7779,0.0,0.0,0.0,0.0,0.0,-4.6046,-4.5625,-4.5338,-4.5201,-4.4709,-4.4336,-4.4073,-4.4073,-4.4536,-4.5425,-4.6397,-4.7998,-5.0117,-5.0701,-5.1924,-5.3481,-5.2345,-5.2296,-5.2833,-5.1523,-5.103,-5.1048,-5.0331,-5.0236,-5.0341,-4.9144,-4.8323,-4.7555,-4.5743,-4.4674,-4.3702,-4.1027,0.0,0.0,0.0,-3.3351,-3.1542,-2.9651,-2.8732,-2.8286,-2.8018,-2.8008,-2.7991,-2.7942,-2.711,-2.6308,-2.6183,-2.5406,-2.4789,-2.4827,-2.498,-2.4928,-2.4372,-2.483,-2.5163,-2.4986,-2.5545,-2.5839,-2.5336,-2.5527,-2.5374,-2.4543,-2.4662,-2.4923,-2.5174,-2.4937,-2.4893,-2.5244,-2.4751,-2.4458,-2.4519,-2.433,-2.4202,-2.4202,-2.4202,-2.4102,-2.4003,-2.4152,-2.4202,-2.4143,-2.4381,-2.4578,-2.4686,-2.4686,-2.4587,-2.4489,-2.439,-2.4301,-2.4202,-2.4341,-2.4587,-2.4988,-2.5614,-2.6222,-2.6768,0.0,0.0,0.0,0.0,0.0,0.0,0.0,0.0,0.0,0.0,0.0,0.0,0.0,0.0,0.0,0.0,-4.7193,0.0,0.0,0.0,0.0,-4.5609,-4.5235,-4.4864,-4.4415,-4.4174,-4.3889,-4.3519,-4.3471,-4.3884,-4.4844,-4.5416,-4.717,-4.9983,-5.0291,-5.1434,-5.3006,-5.2293,-5.2124,-5.2223,-5.1297,-5.1055,-5.1164,-5.0131,-5.0234,-5.0774,-4.9515,-4.8736,-4.8041,-4.6468,-4.5616,-4.4786,-4.2217,-4.0967,0.0,0.0,0.0,-3.1882,-2.9103,-2.813,-2.7826,-2.7694,-2.7623,-2.7632,-2.7635,-2.6764,-2.5945,-2.5917,-2.4956,-2.4101,-2.4224,-2.4548,-2.4629,-2.4055,-2.4303,-2.4493,-2.4515,-2.506,-2.5477,-2.5477,-2.5683,-2.5562,-2.4988,-2.4858,-2.4868,-2.5072,-2.4922,-2.5002,-2.5389,-2.483,-2.4621,-2.4785,-2.4422,-2.4202,-2.4202,-2.4202,-2.4102,-2.3904,-2.4102,-2.4143,-2.4134,-2.4341,-2.444,-2.444,-2.4538,-2.4538,-2.444,-2.4341,-2.4301,-2.4301,-2.444,-2.4686,-2.5096,-2.5889,-2.6468,-2.6885,0.0,0.0,0.0,0.0,0.0,0.0,0.0,0.0,0.0,0.0,0.0,0.0,-4.824,-4.7849,-4.7639,-4.7581,-4.7193,-4.6697,-4.621,-4.5776,0.0,-4.489,-4.4864,0.0,-4.3662,-4.4028,-4.3924,-4.3321,-4.308,-4.3526,-4.4616,-4.5232,-4.6581,-4.8533,-4.9051,-5.0064,-5.134,-5.112,-5.1413,-5.198,-5.1753,-5.1779,-5.1875,-5.118,-5.0837,-5.0586,-4.9622,-4.9153,-4.8625,-4.6472,-4.5932,-4.5704,-4.2656,-4.1597,-4.1098,0.0,0.0,0.0,-2.9625,-2.8936,-2.8603,-2.7438,-2.7525,-2.7607,-2.6719,-2.6058,-2.5326,-2.4308,-2.4133,-2.393,-2.3262,-2.371,-2.4017,-2.3655,-2.4169,-2.4547,-2.4491,-2.506,-2.5477,-2.5477,-2.5445,-2.5272,-2.4954,-2.4858,-2.4821,-2.4821,-2.5055,-2.5156,-2.5129,-2.4976,-2.4841,-2.4794,-2.4422,-2.4202,-2.4202,-2.4202,-2.4202,-2.4202,-2.4202,-2.4202,-2.4202,-2.4202,-2.4202,-2.4251,-2.4686,-2.4637,-2.4251,-2.439,-2.448,-2.4489,-2.448,-2.4833,-2.538,-2.6256,-2.6536,-2.6543,0.0,0.0,0.0,0.0,0.0,0.0,0.0,0.0,0.0,0.0,0.0,0.0,0.0,-4.7596,-4.7337,-4.7193,-4.6963,-4.6703,-4.6324,-4.6404,0.0,-4.5735,-4.5202,-4.4622,-4.4007,-4.36,-4.3263,-4.3032,-4.2935,-4.3283,-4.4114,-4.4823,-4.6049,-4.7673,-4.8789,-5.0073,-5.1455,-5.1425,-5.1525,-5.1709,-5.1521,-5.1425,-5.1303,-5.0588,-5.0359,-5.033,-4.9599,-4.9145,-4.8733,-4.7026,-4.6486,-4.6077,-4.3514,-4.2437,-4.135,-3.793,-3.5188,-3.2759,-3.0687,-2.9449,-2.8542,-2.7996,-2.754,-2.7159,-2.6715,-2.5848,-2.51,-2.4717,-2.3862,-2.318,-2.3377,-2.3633,-2.3648,-2.3357,-2.3469,-2.3595,-2.3528,-2.4302,-2.5027,-2.5444,-2.5649,-2.5671,-2.5556,-2.5338,-2.5125,-2.5034,-2.5348,-2.5562,-2.5711,-2.5403,-2.5194,-2.517,-2.456,-2.4202,-2.4202,-2.4202,-2.4102,-2.3954,-2.4102,-2.4102,-2.3954,-2.4102,-2.4202,-2.4202,-2.4399,-2.435,-2.4202,-2.4301,-2.4301,-2.4369,-2.4986,-2.5119,-2.5183,-2.6386,-2.6812,-2.6836,0.0,0.0,0.0,0.0,0.0,0.0,0.0,0.0,0.0,-4.9818,0.0,0.0,0.0,0.0,-4.714,-4.6506,-4.6583,-4.646,-4.592,-4.6211,-4.6135,-4.5539,-4.4893,-4.4296,-4.381,-4.3206,-4.2846,-4.2631,-4.279,-4.3139,-4.3666,-4.4456,-4.563,-4.7081,-4.8133,-4.9499,-5.0964,-5.1246,-5.1347,-5.1349,-5.1364,-5.1359,-5.1223,-5.0569,-5.0422,-5.0406,-4.9692,-4.9247,-4.8866,-4.7334,-4.6724,-4.6205,-4.3835,-4.2437,-4.104,-3.7895,-3.5843,-3.4134,-3.2101,-3.0576,-2.9349,-2.8633,-2.7904,-2.7182,-2.6636,-2.5757,-2.4967,-2.4688,-2.3684,-2.2965,-2.323,-2.318,-2.3087,-2.2961,-2.2854,-2.2815,-2.2875,-2.344,-2.4179,-2.5069,-2.5342,-2.5515,-2.5688,-2.5515,-2.5319,-2.52,-2.5514,0.0,-2.6072,-2.5644,-2.5295,-2.5019,-2.4486,-2.4202,-2.4202,-2.4202,-2.4102,-2.3954,-2.4102,-2.4102,-2.3945,-2.3956,-2.4073,-2.4192,-2.4005,-2.4073,-2.4202,-2.4202,-2.4251,-2.4369,-2.4995,-2.5128,-2.5174,-2.6282,-2.6705,-2.6826,0.0,0.0,0.0,0.0,0.0,0.0,0.0,0.0,-5.0787,-5.0323,0.0,0.0,0.0,0.0,0.0,-4.5636,-4.6048,-4.5917,-4.4882,-4.5138,-4.4996,-4.4196,0.0,0.0,-4.3038,-4.3011,-4.2705,-4.2105,-4.2644,-4.3032,-4.3273,-4.4132,-4.5261,-4.6668,-4.7045,-4.8098,-4.9669,-5.0427,-5.076,-5.0807,-5.1339,-5.1635,-5.1789,-5.1332,-5.1028,-5.0712,-4.9898,-4.9438,-4.8984,-4.728,-4.6731,-4.6224,-4.3583,-4.1653,-4.0187,-3.9121,-3.7819,-3.6212,0.0,0.0,0.0,-2.9323,-2.8532,-2.7865,-2.6471,-2.5689,-2.4974,-2.4119,-2.3731,-2.3349,-2.2743,-2.2356,-2.2207,-2.258,-2.2312,-2.2208,-2.2568,-2.257,-2.3035,-2.4294,-2.4441,-2.4735,-2.5312,-2.5369,-2.5319,-2.52,-2.5514,-2.5798,-2.6072,-2.5644,-2.5047,-2.4229,-2.4202,-2.4202,-2.4202,-2.4202,-2.4202,-2.4202,-2.4202,-2.4202,-2.4183,-2.3739,-2.3776,-2.4174,-2.373,-2.3785,-2.4202,-2.4202,-2.4341,-2.4489,-2.4498,-2.4843,-2.5342,-2.5814,-2.6187,-2.6465,0.0,0.0,0.0,0.0,0.0,0.0,-5.0663,-5.0406,-5.0106,0.0,0.0,0.0,-4.826,-4.7665,-4.6949,-4.5995,-4.5934,-4.577,-4.5524,-4.5894,-4.6022,-4.5771,-4.5275,-4.4803,-4.425,-4.3424,-4.2918,-4.2745,-4.2664,-4.2644,-4.2755,-4.3805,-4.4751,-4.5578,-4.65,-4.7429,-4.8308,-4.9291,-4.9829,-5.0009,-5.0154,-5.0147,-5.0124,-5.0327,-4.9802,-4.8969,-4.9237,-4.8768,-4.7978,-4.7375,-4.7111,-4.67,-4.4153,-4.1994,-4.0187,-3.9106,-3.8282,-3.7263,-3.5105,0.0,0.0,0.0,0.0,0.0,-2.7638,-2.6456,-2.535,-2.4813,-2.3968,-2.3328,-2.3578,-2.2767,-2.2319,-2.2846,-2.2297,-2.186,-2.2162,-2.2456,-2.2808,-2.3417,-2.386,-2.4326,-2.4735,-2.5133,-2.5271,0.0,-2.5578,-2.5962,-2.5798,-2.5537,-2.5047,-2.4229,-2.4202,-2.4202,-2.4202,-2.4202,-2.4202,-2.4202,-2.4341,-2.444,-2.444,-2.4466,-2.4485,-2.443,-2.427,-2.419,-2.4202,-2.4202,-2.4251,-2.4328,-2.4824,-2.4899,-2.4841,-2.5664,-2.622,-2.6601,0.0,0.0,0.0,0.0,0.0,-4.9897,-5.0866,-5.0501,-5.0169,0.0,0.0,0.0,-4.8344,-4.7326,-4.6428,-4.5813,-4.5768,-4.558,-4.5113,-4.5458,-4.5605,-4.5354,-4.4754,-4.4307,-4.3979,-4.2852,-4.2276,-4.2276,-4.2087,-4.2043,-4.2217,-4.3448,-4.4392,-4.513,-4.6164,-4.6989,-4.7559,-4.8207,-4.8695,-4.9079,-4.9291,-4.9207,-4.9064,-4.9601,-4.9194,-4.844,-4.8802,-4.8403,-4.7697,-4.7399,-4.6985,-4.6251,-4.4226,-4.2379,-4.0679,-3.9404,-3.8688,-3.798,-3.6467,-3.5149,-3.3821,-3.2406,0.0,0.0,-2.8102,-2.6898,-2.588,-2.5338,-2.4508,-2.3942,-2.42,-2.3336,-2.2797,-2.3334,-2.2636,-2.1992,-2.1919,-2.2002,-2.2185,-2.2655,-2.3255,-2.3803,-2.4234,-2.4935,-2.5271,-2.4996,-2.5688,-2.5928,-2.5595,-2.5461,-2.5047,-2.4229,-2.4202,-2.4202,-2.4202,-2.4202,-2.4202,-2.4202,-2.439,-2.448,-2.448,-2.4605,-2.4575,-2.447,-2.4303,-2.4233,-2.4202,-2.4202,-2.4202,-2.422,-2.4609,-2.4753,-2.4763,-2.5305,-2.6033,-2.6807,0.0,0.0,-4.7567,-4.8787,-4.9122,-4.9678,-5.0842,-5.0755,-5.0628,0.0,-5.0185,-4.934,-4.8338,-4.6982,-4.5972,-4.5545,-4.5735,-4.5384,-4.4346,-4.4561,-4.4506,-4.4004,-4.348,-4.3177,-4.3105,-4.1963,-4.1387,-4.1335,-4.1295,-4.1411,-4.1702,-4.3057,-4.4149,-4.5075,-4.5958,-4.6637,-4.7146,-4.7198,-4.7428,-4.7875,-4.8495,-4.8595,-4.8495,-4.8959,-4.8902,-4.8542,-4.8421,-4.8098,-4.7659,-4.73,-4.6414,-4.5286,-4.3994,-4.2694,-4.1357,-3.9779,-3.9038,-3.8496,-3.7664,-3.6417,-3.4989,-3.3409,-3.1621,0.0,-2.8455,-2.749,-2.6745,-2.6043,-2.5459,-2.5016,-2.4889,-2.4125,-2.362,-2.3978,-2.3335,-2.2523,-2.1888,-2.1497,-2.1489,-2.2002,-2.2655,-2.3225,-2.3777,-2.4718,-2.522,-2.5145,-2.5679,-2.5838,-2.5356,-2.5372,-2.5047,-2.4279,-2.4251,-2.4251,-2.4251,-2.4251,-2.4202,-2.4202,-2.439,-2.4529,-2.452,-2.4456,-2.4494,-2.4559,-2.4156,-2.4115,-2.4251,-2.4202,-2.4202,-2.4202,-2.4202,-2.4449,-2.4883,-2.4883,-2.5762,-2.6961,0.0,0.0,-4.761,-4.7657,-4.8462,-4.9149,-4.9402,-4.9804,-5.0077,-5.0129,-4.9978,-4.9837,-4.9864,-4.8489,-4.7432,-4.698,-4.6062,-4.5431,-4.5309,-4.5124,-4.4966,-4.4928,-4.4568,-4.4191,-4.372,-4.2605,-4.191,-4.1724,-4.1247,-4.1116,-4.1402,-4.281,-4.3919,-4.4843,-4.5681,-4.6123,-4.6284,-4.648,-4.6389,-4.6179,-4.7171,-4.7699,-4.7903,-4.8193,-4.8098,-4.772,-4.7654,-4.7207,-4.6662,-4.6474,-4.5697,-4.466,-4.3863,-4.2591,-4.1121,-3.9884,-3.9367,-3.8966,-3.8049,-3.7376,-3.6662,-3.5353,-3.3913,0.0,-3.0984,-2.9887,-2.886,-2.7834,-2.719,-2.6741,-2.6484,-2.5505,-2.48,-2.5004,-2.4324,-2.3502,-2.2531,-2.2116,-2.1888,-2.1782,-2.234,-2.281,-2.3135,-2.4043,-2.4563,-2.4543,-2.5072,-2.527,-2.5025,-2.5197,-2.5029,-2.4458,-2.4637,-2.4637,-2.444,-2.444,-2.4341,-2.4202,-2.439,-2.4627,-2.4833,-2.5003,-2.511,-2.5137,-2.4846,-2.4611,-2.444,-2.4251,-2.4202,-2.4202,-2.4202,-2.4341,-2.4587,-2.4833,-2.5662,-2.6705,-4.6455,-4.6755,-4.7015,-4.686,-4.7837,-4.8715,-4.9022,-4.9328,-4.9582,-4.9888,-4.9665,-4.9576,-4.9668,-4.874,-4.7916,-4.7521,0.0,0.0,0.0,-4.5198,-4.4943,-4.4938,-4.4396,-4.3848,-4.3432,-4.2335,-4.1702,-4.1551,-4.0679,-4.0473,-4.0908,-4.1814,-4.2775,-4.3874,-4.4771,-4.5315,-4.5582,-4.5421,-4.5142,-4.4864,-4.6267,-4.6911,-4.7067,-4.7377,-4.7345,-4.708,-4.674,-4.6253,-4.5723,-4.5681,-4.5454,-4.4989,-4.3761,-4.278,-4.1761,-4.0158,-3.9611,-3.9319,-3.8498,-3.8015,-3.7422,-3.5917,-3.4609,0.0,0.0,-3.0638,-2.9657,-2.8468,-2.7999,-2.7728,-2.7412,-2.6748,-2.6333,-2.6611,-2.5854,-2.4925,-2.4153,-2.3427,-2.2885,-2.2603,-2.3111,-2.3504,-2.3616,-2.4351,-2.4859,-2.5034,-2.5404,-2.5496,-2.5129,-2.5405,-2.5293,-2.4705,-2.4833,-2.4833,-2.4686,-2.4686,-2.4637,-2.4548,-2.4637,-2.4784,-2.4883,-2.5186,-2.5235,-2.5088,-2.5088,-2.4941,-2.4686,-2.4587,-2.4489,-2.4341,-2.4251,-2.4399,-2.4735,-2.4833,-2.5722,-2.6807,-4.5488,-4.5848,-4.6165,-4.606,-4.7089,-4.8088,-4.8678,0.0,-4.9172,-4.9817,-4.9378,-4.8953,-4.9007,-4.8308,-4.7782,-4.756,-4.6607,0.0,-4.5915,-4.5256,-4.4838,-4.4709,-4.3903,-4.3351,-4.3085,-4.1948,-4.1293,-4.1084,-4.0144,-3.998,-4.0411,-4.0915,-4.1889,-4.3179,-4.3795,-4.4334,-4.4754,-4.4097,-4.3636,-4.3529,-4.4877,-4.5619,-4.5937,-4.6317,-4.65,-4.6482,-4.5962,-4.5388,-4.4894,-4.4894,-4.5155,-4.5178,-4.3592,-4.287,-4.2284,-4.05,-3.9735,-3.9407,-3.8827,-3.8363,-3.7736,-3.6313,-3.5111,-3.384,0.0,0.0,0.0,-2.913,-2.8877,-2.8718,-2.8274,-2.8,-2.7862,-2.8126,-2.7352,-2.6543,-2.6024,-2.5156,-2.4399,-2.3747,-2.4156,-2.4492,-2.4492,-2.5,-2.5395,-2.5569,-2.5898,-2.5883,-2.5338,-2.5622,-2.5507,-2.5009,-2.5039,-2.5039,-2.4981,-2.4932,-2.4883,-2.4833,-2.4784,-2.4784,-2.4883,-2.5079,-2.5137,-2.5088,-2.5186,-2.5137,-2.499,-2.4883,-2.4686,-2.448,-2.4341,-2.4489,-2.4833,-2.4883,-2.5772,-2.691,-4.5046,-4.5274,-4.5234,-4.4938,-4.5913,-4.6892,0.0,0.0,-4.8691,-4.9565,-4.8895,-4.8476,-4.87,-4.7525,-4.6759,-4.6961,-4.6355,-4.6018,-4.5965,-4.5661,-4.5262,-4.4722,-4.4148,-4.3708,-4.3338,-4.2256,-4.1207,-4.0245,-4.0108,-4.0071,-4.0171,-4.1188,-4.2468,-4.3791,-4.3383,-4.3257,-4.3282,-4.2437,-4.194,-4.1698,-4.191,-4.287,-4.423,-4.4744,-4.5391,-4.6027,-4.5692,-4.4948,-4.4115,-4.4115,-4.4162,-4.4064,-4.3357,-4.2422,-4.1494,-4.0722,-3.9766,-3.8953,-3.8908,-3.8419,-3.788,-3.7678,-3.6663,-3.5406,-3.4309,0.0,-3.2706,-3.1255,0.0,-3.0679,-2.9805,0.0,0.0,-2.8679,-2.8476,-2.815,-2.7543,-2.7342,-2.6659,-2.4951,-2.4939,-2.511,-2.511,-2.545,-2.5514,-2.5284,-2.5789,-2.5883,-2.5338,-2.5561,-2.5549,-2.5264,-2.5489,-2.5489,-2.5235,-2.503,-2.4784,-2.4529,-2.4341,-2.4498,-2.4883,-2.4686,-2.4981,-2.5586,-2.5137,-2.5088,-2.5235,-2.4735,-2.4538,-2.448,-2.4489,-2.448,-2.4578,-2.4833,-2.5662,-2.6695,-4.4668,-4.4884,-4.4897,-4.4964,-4.5432,0.0,0.0,0.0,-4.8845,-4.9014,-4.8713,-4.8567,-4.8923,-4.7631,-4.6926,-4.7377,-4.6411,-4.5808,-4.6007,-4.5595,-4.5234,-4.5018,-4.4081,-4.342,-4.2979,-4.1995,-4.0906,-3.983,-3.9958,-3.997,-3.983,-4.0245,-4.1295,-4.2802,-4.2275,-4.2229,-4.2489,-4.1489,-4.0807,-4.036,-3.9865,-4.0371,-4.1641,-4.3174,-4.4059,-4.4503,-4.4675,-4.4039,-4.3128,0.0,-4.3225,0.0,0.0,-4.2181,-4.1651,-4.1126,-4.0324,-3.9613,-3.9432,-3.9204,-3.8734,-3.797,-3.7379,-3.6592,-3.5277,-3.4331,-3.3412,-3.2207,0.0,0.0,0.0,0.0,0.0,0.0,-2.9561,-2.9228,-2.8784,-2.8791,-2.8262,-2.6612,0.0,0.0,-2.6245,-2.6391,-2.6336,-2.6045,-2.6554,-2.6474,-2.5598,-2.5975,-2.5955,-2.5313,-2.5538,-2.5645,-2.5538,-2.544,-2.5294,-2.5186,-2.4941,-2.4941,-2.5137,-2.503,-2.5137,-2.544,-2.5382,-2.5295,-2.5169,-2.5178,-2.4897,-2.4406,-2.4641,-2.4637,-2.4529,-2.4637,-2.5402,-2.6378,-4.4068,-4.4287,-4.4396,-4.4681,-4.4802,-4.5304,-4.6695,-4.7841,-4.8463,-4.8276,-4.8086,-4.8053,-4.824,-4.7105,-4.6616,-4.7131,-4.6094,-4.5566,-4.5728,-4.5434,-4.5072,-4.4869,-4.4026,-4.3271,-4.2701,-4.1941,-4.0971,-3.9813,-4.0067,-4.0067,-3.9813,-3.9845,-4.0611,-4.1947,-4.1175,-4.1041,-4.128,-4.0178,-3.937,-3.8819,-3.8089,-3.8364,-3.9494,-4.1771,-4.2691,-4.2813,-4.3431,-4.3032,-4.219,-4.2351,-4.2547,0.0,-4.2226,-4.186,-4.1536,0.0,0.0,-4.007,-3.9771,0.0,0.0,0.0,0.0,0.0,0.0,0.0,0.0,0.0,0.0,0.0,0.0,0.0,0.0,0.0,0.0,-3.0329,-3.0114,-3.0032,-2.9554,-2.8238,-2.7747,0.0,0.0,-2.7308,-2.7135,-2.6812,0.0,-2.7041,-2.5956,-2.6267,-2.6193,-2.5411,-2.5586,-2.5693,-2.5693,-2.5635,-2.5586,-2.5586,-2.5333,-2.5235,-2.5284,-2.5235,-2.5284,-2.544,-2.5538,-2.545,-2.5273,-2.5509,-2.516,-2.4476,-2.472,-2.4677,-2.4538,-2.4578,-2.5236,-2.6072,-4.2974,-4.324,-4.3449,-4.3449,-4.3708,-4.4339,-4.5456,-4.6559,-4.7265,-4.7265,-4.6816,-4.6378,-4.6015,-4.5423,-4.517,-4.5527,-4.5296,-4.5141,-4.5141,-4.5171,-4.4815,-4.3955,-4.3899,-4.3598,-4.3004,-4.2413,-4.1521,-4.0375,-4.0668,-4.0668,-4.0387,-4.0668,0.0,0.0,-4.0458,-3.9673,-3.9118,-3.8032,-3.7298,-3.6777,-3.6495,-3.7057,-3.8271,-4.0591,-4.1269,-4.109,-4.1982,0.0,0.0,-4.1931,-4.2128,0.0,0.0,0.0,0.0,0.0,0.0,0.0,0.0,0.0,0.0,-3.881,0.0,0.0,0.0,0.0,-3.461,0.0,0.0,0.0,0.0,0.0,0.0,0.0,0.0,0.0,0.0,-3.1137,-3.0572,-2.9715,-2.8889,0.0,0.0,-2.8081,-2.7741,0.0,-2.7689,0.0,-2.6326,-2.6287,-2.6132,-2.5703,-2.5693,-2.5693,-2.5693,-2.544,-2.5333,-2.5294,-2.5039,-2.5039,-2.5284,-2.503,-2.5186,-2.5684,-2.544,-2.543,-2.5664,-2.543,-2.5128,-2.4864,-2.4627,-2.4538,-2.4529,-2.4784,-2.5216,-2.5743,-4.2245,-4.2641,-4.2885,-4.2806,-4.2993,-4.3547,-4.4643,-4.5531,-4.6146,-4.6225,-4.5799,-4.5585,-4.583,-4.5307,-4.4969,-4.5087,-4.4547,-4.4256,-4.4256,-4.41,-4.3903,-4.3585,-4.3432,-4.302,-4.2409,-4.1892,-4.1191,-4.0379,-4.0648,-4.0761,-4.0586,-4.0471,-4.0751,0.0,-4.0046,-3.9253,-3.8771,-3.7811,-3.7023,-3.6429,-3.632,-3.6533,-3.7111,0.0,-3.9989,-4.0146,-4.0843,-4.0849,0.0,-4.0719,-4.0883,-4.1047,-4.1047,-4.0817,-4.0624,-4.0711,-4.0494,0.0,0.0,0.0,-4.0019,-3.9302,0.0,0.0,0.0,0.0,0.0,0.0,0.0,0.0,0.0,0.0,0.0,0.0,0.0,0.0,0.0,-3.1893,-3.1754,-3.1286,-3.0324,-2.9651,0.0,0.0,0.0,0.0,-2.8033,0.0,0.0,-2.6537,-2.6291,-2.5723,-2.5684,-2.5693,-2.5693,-2.5586,-2.5538,-2.5538,-2.5489,-2.5489,-2.5538,-2.5489,-2.5538,-2.5684,-2.5586,-2.547,-2.5322,-2.547,-2.5363,-2.5025,-2.4818,-2.4971,-2.5255,-2.4775,-2.4889,-2.544,-4.1259,-4.1484,-4.1864,-4.2238,-4.2409,-4.2771,-4.3516,-4.43,-4.4858,-4.4986,-4.4876,-4.4828,-4.5062,-4.4731,-4.4524,-4.4524,-4.4013,-4.373,-4.3871,-4.3424,-4.3181,-4.3194,-4.285,-4.2451,-4.1911,-4.1557,-4.1262,-4.0956,-4.0989,-4.1043,-4.0972,-4.0505,-4.0481,-4.0665,-3.972,-3.885,-3.7996,-3.7496,-3.6556,-3.5511,-3.5609,-3.5664,0.0,0.0,-3.8252,-3.8628,0.0,-3.9414,-3.9401,-3.9698,-3.9968,-4.0224,-4.0338,-4.0402,-4.0504,-4.0504,-4.0345,-4.0138,-4.0028,-4.0149,0.0,-3.9455,-3.9177,0.0,-3.8219,0.0,-3.6521,0.0,0.0,0.0,0.0,0.0,0.0,0.0,0.0,0.0,0.0,-3.2406,-3.234,-3.218,-3.1244,-3.0446,-3.0223,0.0,0.0,0.0,0.0,0.0,0.0,0.0,-2.6486,-2.5858,-2.5858,-2.5781,-2.5693,-2.5693,-2.5693,-2.5693,-2.5693,-2.5693,-2.5693,-2.5693,-2.5693,-2.5693,-2.5693,-2.5528,-2.5332,-2.5567,-2.547,-2.514,-2.5071,-2.5314,-2.5596,-2.4922,-2.5083,-2.5767,-4.0132,-4.0017,-4.0354,-4.1555,-4.1849,-4.197,-4.2053,-4.2842,-4.3481,-4.3444,-4.3841,-4.4005,-4.3669,-4.3692,-4.3704,-4.3642,-4.3451,-4.3457,-4.3808,-4.312,-4.2753,-4.2802,-4.2381,-4.1928,-4.1643,-4.161,-4.1786,-4.205,-4.1673,-4.1484,-4.1484,-4.0844,-4.0219,-3.9743,-3.9426,-3.8396,-3.6924,-3.7033,-3.595,-3.4119,-3.4367,-3.4468,-3.4579,-3.5378,-3.6036,-3.6646,-3.7203,-3.7643,-3.8027,-3.8804,-3.926,-3.9558,-3.9853,-4.0185,-4.0402,-4.0402,-4.0082,-3.9631,-3.9336,-3.9813,-4.0249,-3.9372,0.0,0.0,0.0,0.0,-3.6689,0.0,0.0,0.0,0.0,0.0,0.0,0.0,0.0,0.0,0.0,0.0,-3.244,-3.2403,-3.1552,-3.086,-3.0555,-3.0255,0.0,0.0,0.0,0.0,0.0,0.0,-2.6699,-2.6149,-2.6091,-2.5955,-2.5732,-2.5693,-2.5693,-2.5693,-2.5693,-2.5693,-2.5693,-2.5693,-2.5693,-2.5693,-2.5693,-2.5693,-2.5693,-2.5693,-2.5538,-2.5333,-2.5284,-2.543,-2.5625,-2.5156,-2.5681,-2.6702,-4.0423,-3.9921,-3.9551,-3.9674,-4.0174,-4.0588,-4.0475,-4.097,-4.1322,-4.1233,-4.1399,-4.146,-4.128,-4.2021,-4.2366,-4.1867,-4.1827,-4.1902,-4.1974,-4.1519,-4.1353,-4.1607,-4.1919,-4.2098,-4.219,-4.2134,-4.2305,-4.2758,-4.2028,-4.173,-4.173,-4.09,-4.0148,-3.9426,-3.9049,-3.8283,-3.7136,-3.6916,-3.5819,-3.424,-3.3944,-3.3851,-3.3851,0.0,-3.4401,-3.4902,-3.6145,-3.6796,-3.7078,-3.7281,-3.7631,-3.8031,-3.8149,-3.8542,-3.8933,-3.8933,-3.9314,-3.9702,-3.9614,-3.9726,-3.9941,-4.0021,-3.9616,-3.922,0.0,0.0,0.0,0.0,0.0,0.0,0.0,0.0,0.0,0.0,0.0,0.0,0.0,0.0,-3.2872,-3.2648,-3.2277,-3.1681,-3.0882,-3.0601,-3.0035,0.0,0.0,0.0,0.0,0.0,0.0,-2.6699,-2.6304,-2.6052,-2.6004,-2.5781,-2.5693,-2.5693,-2.5693,-2.5693,-2.5693,-2.5693,-2.5693,-2.5693,-2.5693,-2.5693,-2.5684,-2.5489,-2.5625,-2.581,-2.503,-2.521,-2.5924,-2.6003,-2.6653,-2.7468,-3.9412,-3.869,-3.806,-3.7854,-3.8488,-3.9097,-3.921,-3.94,-3.9571,-3.9663,-3.9814,-3.983,-3.9741,-4.0513,-4.092,-4.0657,-4.0927,-4.1114,-4.1207,-4.0618,-4.0514,-4.0904,-4.1106,-4.1366,-4.1754,-4.2007,-4.2239,-4.255,-4.195,-4.146,-4.1118,-4.0513,-3.9756,-3.8905,-3.8704,-3.7948,-3.6713,-3.5735,-3.4819,-3.3941,-3.3597,-3.334,0.0,-3.3512,-3.3749,-3.3963,-3.4847,-3.5511,-3.6004,-3.6211,-3.6623,-3.7,-3.7096,-3.7536,-3.8015,-3.8015,-3.8395,-3.8807,-3.891,-3.9145,-3.9396,-3.9782,-3.9517,-3.9249,-3.949,-3.8958,-3.8311,0.0,0.0,0.0,0.0,0.0,0.0,0.0,0.0,0.0,0.0,-3.2995,-3.2736,-3.2605,-3.2616,-3.2147,-3.1031,-3.0804,-3.0204,0.0,0.0,0.0,0.0,0.0,0.0,-2.7081,-2.6688,-2.64,-2.6294,-2.6014,-2.5868,-2.5868,-2.5781,-2.5693,-2.5693,-2.5693,-2.5693,-2.5693,-2.5693,-2.5693,-2.5693,-2.5538,-2.5625,-2.5888,-2.5624,-2.5836,-2.6387,-2.6898,-2.7335,-2.7705,-3.7869,-3.7065,-3.653,-3.6369,-3.6876,-3.7541,-3.8007,-3.8062,-3.82,-3.8464,-3.8592,-3.8666,-3.8603,-3.9038,-3.9449,-3.9682,-4.0261,-4.0595,-4.0727,-4.0123,-3.992,-4.0401,-4.0313,-4.0456,-4.0985,-4.1522,-4.1853,-4.1974,-4.165,-4.104,-4.0247,-3.9887,-3.9187,-3.8261,-3.8261,-3.7467,-3.6084,-3.4401,-3.3636,-3.3484,-3.3282,-3.2967,-3.2721,-3.3256,-3.3426,-3.3426,-3.3551,-3.4073,-3.4869,-3.5323,-3.5763,-3.6102,-3.632,-3.6785,-3.7311,-3.7311,-3.7426,-3.7612,-3.7883,-3.8284,-3.8742,-3.9083,-3.9127,-3.9207,-3.9436,-3.8571,-3.7885,-3.8417,-3.7176,-3.6019,0.0,0.0,0.0,0.0,0.0,0.0,0.0,-3.2903,-3.25,-3.253,-3.2793,0.0,-3.1112,0.0,-3.0408,0.0,0.0,0.0,0.0,0.0,0.0,-2.7357,-2.7034,-2.6805,-2.6544,0.0,-2.61,-2.61,-2.582,-2.5693,-2.5693,-2.5693,-2.5693,-2.5693,-2.5693,-2.5684,-2.5645,-2.5645,-2.5703,-2.579,-2.6488,-2.6824,-2.7022,-2.7734,-2.7894,-2.7783,-3.7315,-3.6693,-3.6294,-3.5912,-3.5695,-3.5861,-3.6628,-3.7592,-3.796,-3.7086,-3.722,-3.7283,-3.7054,-3.7646,-3.8061,-3.7816,-3.8755,-3.914,-3.8779,-3.9173,-3.9343,-3.9257,-4.0366,-4.0875,-4.0819,-4.1456,-4.1845,-4.1861,-4.149,-4.0837,-3.9887,-3.9566,-3.8735,-3.7566,-3.7566,-3.6978,-3.5897,-3.4928,0.0,-3.3125,-3.2741,-3.2509,-3.2438,-3.2555,-3.2613,-3.2672,-3.3149,-3.3555,-3.3851,-3.3952,-3.4345,-3.4791,-3.4847,-3.5433,-3.6134,-3.6417,-3.6846,-3.7269,-3.7559,-3.775,-3.7974,-3.8701,-3.8878,-3.8931,-3.9218,-3.9064,-3.8774,-3.8226,-3.7271,-3.6383,-3.5768,0.0,0.0,0.0,0.0,0.0,0.0,-3.3326,-3.3071,-3.3288,-3.3211,-3.2756,-3.1679,0.0,-3.1577,-3.0002,0.0,0.0,0.0,0.0,0.0,0.0,-2.7129,0.0,0.0,0.0,-2.61,-2.61,-2.582,-2.5693,-2.5693,-2.5693,-2.5693,-2.5693,-2.5693,-2.5586,-2.5362,-2.55,-2.5651,-2.5852,-2.6455,-2.704,-2.7555,-2.791,-2.8196,-2.8469,-3.6521,-3.5762,-3.5202,-3.5082,-3.5007,-3.51,-3.5406,-3.6323,-3.6839,-3.6239,-3.5913,-3.5614,-3.5499,-3.6243,-3.6691,-3.6463,-3.7551,-3.8052,-3.754,-3.8029,-3.8325,-3.8353,-3.9396,-4.0126,-4.0394,-4.1114,-4.1486,-4.1282,-4.0982,-4.0162,-3.9004,-3.8679,-3.793,-3.69,-3.6524,-3.6095,-3.5592,0.0,0.0,-3.2884,-3.2884,-3.2615,-3.2205,-3.2323,-3.2372,-3.2401,-3.2471,-3.2605,-3.2763,-3.3399,-3.3794,-3.4019,-3.4019,-3.4457,-3.4958,-3.5124,-3.5664,-3.6254,-3.6429,-3.669,-3.7104,-3.7777,-3.7621,-3.7506,-3.8029,-3.7849,-3.7505,-3.7346,-3.6925,-3.6364,-3.5843,-3.5112,0.0,0.0,0.0,0.0,0.0,0.0,-3.3264,-3.3108,-3.3015,-3.2756,-3.2135,-3.2329,-3.1655,-2.976,-2.9877,-2.9668,0.0,0.0,0.0,0.0,0.0,0.0,0.0,0.0,0.0,-2.61,-2.582,-2.5693,-2.5693,-2.5538,-2.5586,-2.5703,-2.5613,-2.5535,-2.5518,-2.5844,-2.6167,-2.6458,-2.7021,-2.744,-2.7748,-2.8068,-2.8274,-2.8461,-3.5465,-3.4746,-3.4125,-3.4203,-3.4508,-3.4646,-3.4534,-3.5007,-3.5396,-3.5501,-3.4879,-3.4438,-3.4438,-3.5086,-3.5515,-3.5328,-3.6577,-3.7095,-3.6534,-3.7051,-3.747,-3.7656,-3.8455,-3.9174,-3.9664,-4.0359,-4.0613,0.0,-3.9996,-3.9249,0.0,0.0,0.0,0.0,0.0,0.0,0.0,0.0,-3.3237,-3.2517,-3.2841,-3.2517,-3.182,-3.2048,-3.2157,-3.2096,-3.1816,-3.1694,-3.1845,-3.2877,-3.3285,-3.3399,-3.3399,-3.3681,-3.403,-3.4086,-3.4579,-3.5157,-3.5279,-3.5751,-3.626,-3.6682,-3.6414,-3.6239,-3.6793,-3.6456,-3.614,-3.6508,-3.6386,-3.6133,-3.586,-3.5324,0.0,0.0,0.0,0.0,0.0,0.0,-3.3459,-3.3093,-3.3048,-3.2865,-3.2465,0.0,-3.1383,-2.9464,-2.9646,-2.948,-2.8765,-2.8705,-2.8343,0.0,0.0,-2.69,-2.69,0.0,-2.6091,0.0,-2.5781,-2.5635,-2.5538,-2.5382,-2.5382,-2.5508,-2.5517,-2.5672,-2.5964,-2.6316,-2.6715,-2.7211,-2.7568,-2.7777,-2.7894,-2.8174,-2.8291,-2.8291,-3.396,-3.394,-3.3713,-3.3349,-3.393,-3.4383,-3.4355,-3.407,-3.4112,-3.4631,-3.464,-3.458,-3.458,-3.4684,-3.4662,-3.4304,-3.5699,-3.6286,-3.5496,-3.6744,-3.755,-3.7425,-3.8235,-3.8682,-3.8648,-3.8744,-3.8979,0.0,0.0,-3.8028,0.0,0.0,0.0,0.0,0.0,0.0,0.0,-3.3048,-3.2535,-3.1884,-3.1922,-3.1656,-3.1289,-3.1289,-3.1223,-3.1177,-3.1405,-3.1437,-3.1383,-3.1845,-3.2352,-3.2799,-3.2799,-3.3161,-3.3692,-3.403,-3.4142,-3.4367,-3.4869,-3.5256,-3.5538,-3.5627,-3.6004,-3.6306,-3.6137,-3.6054,-3.6088,-3.6309,-3.5988,-3.5572,-3.532,-3.5235,-3.5246,0.0,0.0,0.0,0.0,0.0,-3.4038,-3.42,0.0,0.0,-3.2571,-3.1908,0.0,0.0,-3.0486,-3.046,-2.9737,-2.9047,-2.8343,-2.7605,0.0,-2.69,-2.69,-2.6352,-2.5994,-2.5742,-2.5723,-2.544,-2.4981,-2.5186,-2.5186,-2.5009,-2.5367,-2.5964,-2.6669,-2.6628,-2.7068,-2.7806,-2.774,-2.79,-2.8242,-2.8281,-2.8291,-2.8291,-3.3162,-3.2939,-3.2734,-3.2527,-3.2728,-3.3019,-3.3257,-3.3291,-3.3463,-3.3679,-3.3618,-3.3651,-3.3904,-3.4025,-3.3827,-3.3402,-3.4458,-3.494,-3.4361,-3.5383,-3.5936,-3.5818,-3.6616,-3.7125,-3.7291,-3.7726,-3.8006,0.0,0.0,0.0,0.0,0.0,0.0,0.0,0.0,-3.3175,-3.2858,-3.2676,-3.2311,-3.1834,-3.2081,-3.1929,-3.155,-3.155,-3.1508,-3.1413,-3.1029,-3.1134,-3.1433,-3.1094,-3.1488,-3.218,-3.218,-3.2305,-3.2534,-3.2706,-3.2991,-3.3332,-3.3547,-3.3689,-3.3933,-3.468,-3.4468,-3.4182,-3.4815,-3.4641,-3.4478,-3.4961,-3.5439,-3.5727,-3.5463,-3.5569,-3.5469,0.0,0.0,0.0,0.0,0.0,0.0,-3.3912,0.0,-3.3007,-3.2323,-3.1683,0.0,0.0,0.0,-2.9931,-2.9203,-2.8964,0.0,-2.7197,0.0,-2.6602,-2.64,-2.5917,-2.5577,-2.547,-2.5284,-2.5088,-2.4883,-2.4833,-2.4958,-2.5242,-2.586,-2.6565,-2.7157,-2.7213,-2.7596,-2.8111,-2.8052,-2.8144,-2.8291,-2.8291,-2.8291,-2.8291,-3.2546,-3.2304,-3.2007,-3.1702,-3.1967,-3.2196,-3.2298,-3.2555,-3.2875,-3.3139,-3.273,-3.2641,-3.3119,-3.3272,-3.3074,-3.2523,-3.3284,-3.3762,-3.3558,-3.4312,-3.4791,-3.4816,-3.5355,0.0,-3.598,-3.6395,-3.6648,-3.6738,-3.6223,0.0,0.0,0.0,0.0,0.0,-3.2412,-3.2284,-3.2157,-3.191,-3.1678,-3.1437,-3.1668,-3.1544,-3.1171,-3.1174,-3.1198,-3.1247,-3.0573,-3.0797,-3.122,-3.0742,-3.0888,-3.1267,-3.1556,-3.173,-3.1787,-3.1787,-3.2123,-3.2457,-3.2628,-3.2658,-3.2896,-3.3886,-3.3319,-3.2727,-3.3701,-3.3355,-3.3037,-3.3722,-3.4625,-3.5302,-3.5189,-3.5341,-3.5294,-3.4616,0.0,0.0,0.0,-3.4063,0.0,-3.3541,-3.3149,-3.2697,-3.2164,-3.1488,0.0,0.0,0.0,0.0,0.0,0.0,0.0,0.0,0.0,0.0,0.0,-2.5674,-2.5333,-2.5186,-2.5203,-2.5121,-2.4973,-2.4896,-2.5126,-2.5589,-2.6324,-2.6979,-2.7565,-2.781,-2.8027,-2.8291,-2.8291,-2.8291,-2.8291,-2.8291,-2.8354,-2.8408,-3.2028,-3.2098,-3.185,-3.107,-3.1912,-3.2427,-3.1655,-3.185,-3.2378,-3.3206,-3.2214,-3.1729,-3.245,-3.2548,-3.2258,-3.1515,-3.2229,-3.2825,-3.3159,-3.3982,-3.4517,0.0,0.0,-3.4814,-3.4812,-3.4381,-3.4371,-3.4867,0.0,0.0,-3.4062,0.0,-3.1882,-3.0935,-3.0944,-3.075,-3.0434,-3.0443,-3.0434,-3.0399,-3.0328,-3.005,-2.9706,-2.9675,-2.9841,-3.0093,-3.0083,-3.0255,-3.0543,-3.0969,-3.0553,-3.0098,-3.1034,-3.1556,-3.1787,-3.1787,-3.1787,-3.196,-3.2524,-3.2675,-3.2788,-3.3185,-3.2976,-3.2663,-3.306,-3.2526,-3.2167,-3.2723,-3.3435,-3.4004,-3.4004,-3.4418,-3.471,-3.4698,0.0,0.0,0.0,0.0,0.0,-3.3292,-3.3247,-3.2963,-3.2192,-3.1218,0.0,0.0,0.0,0.0,0.0,0.0,0.0,-2.69,-2.64,0.0,-2.61,-2.582,-2.544,-2.4883,-2.5597,-2.5648,-2.5213,-2.5582,-2.5778,-2.5815,-2.6531,-2.7203,-2.7906,-2.8174,-2.8291,-2.8291,-2.8291,-2.8291,-2.8291,-2.8291,-2.8461,-2.8684,-3.0942,-3.0916,-3.0762,-3.0276,-3.0694,-3.1219,-3.1519,-3.1693,-3.2051,-3.2797,-3.228,-3.1764,-3.1488,-3.1427,-3.1402,0.0,-3.1466,-3.1774,0.0,-3.2449,-3.253,-3.252,-3.2588,-3.2597,-3.258,-3.2644,-3.2776,-3.289,0.0,0.0,0.0,-3.1313,-3.0879,-3.0564,-3.0564,-3.0499,-3.0378,-3.0378,-3.021,-3.0017,-2.9956,-2.9725,-2.9368,-2.9597,-2.9737,-2.9833,-2.9803,-3.012,-3.0578,-3.0447,-3.0404,-3.0465,-3.099,-3.0863,-3.0567,-3.0801,-3.1024,-3.1257,-3.1662,-3.1459,-3.137,-3.1971,-3.1358,-3.0746,-3.1551,-3.1709,-3.1787,-3.2151,-3.2713,-3.3212,-3.357,-3.3866,-3.4046,-3.3872,-3.3858,0.0,0.0,0.0,-3.2752,-3.2645,-3.2331,-3.1849,-3.1102,-3.0717,0.0,0.0,0.0,0.0,0.0,0.0,0.0,0.0,-2.6294,0.0,-2.582,-2.5586,-2.5487,-2.5676,-2.57,-2.5667,-2.5601,-2.6011,-2.6197,-2.6278,-2.6902,-2.7469,-2.7906,-2.8184,-2.8291,-2.8291,-2.8291,-2.8291,-2.8291,-2.8291,-2.8461,-2.8684,-3.048,-3.043,-3.0321,-2.9962,-3.0102,-3.0385,-3.0899,-3.0942,-3.1288,-3.2158,-3.167,-3.1174,-3.0998,-3.0549,0.0,-3.0788,-3.0772,-3.1043,-3.1617,-3.1451,-3.1334,-3.1318,-3.1318,-3.1265,-3.1118,-3.1352,0.0,-3.1427,-3.1427,-3.1105,-3.0473,-3.0287,-3.01,-2.9979,-2.9979,-2.9979,-2.997,-2.983,-2.9707,-2.9576,-2.9415,-2.9223,-2.9065,-2.9217,-2.934,-2.9489,-2.9419,-2.9806,-3.0254,-3.0161,-3.0102,-3.0036,-3.0438,-3.0111,-2.9655,-3.0279,-3.0507,-3.0616,-3.1034,-3.0928,-3.0797,-3.1521,-3.0898,-3.0245,-3.0677,-3.0788,-3.0874,-3.119,-3.1615,-3.2105,-3.2521,-3.2857,-3.3084,-3.3193,-3.3137,-3.2962,-3.2803,0.0,-3.1918,0.0,0.0,0.0,0.0,-3.0514,-3.0216,0.0,0.0,0.0,0.0,0.0,0.0,-2.6352,-2.611,0.0,-2.5693,-2.5538,-2.5653,-2.5977,-2.6142,-2.6224,-2.6186,-2.6695,-2.6905,-2.6782,-2.7349,-2.7745,-2.8067,-2.813,-2.8184,-2.8291,-2.8184,-2.8237,-2.8291,-2.8291,-2.8504,-2.8834,-3.0442,-3.0346,-3.0222,0.0,-2.9872,0.0,-2.9889,-2.9889,-3.0293,-3.1341,-3.0545,-3.0088,-3.0802,-2.9944,-2.9438,-2.9691,0.0,0.0,0.0,-3.0939,-3.0906,-3.0888,-3.0919,-3.0742,-3.0313,-3.0304,-3.0304,-3.0304,-3.0304,-3.01,-2.9748,-2.9748,-2.9626,-2.9307,-2.9307,-2.9307,-2.929,-2.8956,-2.8982,-2.9179,-2.883,-2.8661,-2.8637,-2.8615,-2.8781,-2.9078,-2.9051,-2.9276,-2.9575,-2.9959,-2.9575,-2.9058,-2.9479,-2.9324,-2.9177,-3.0137,-3.0165,-3.0039,-3.0675,-3.083,-3.0927,-3.1506,-3.1348,-3.0852,-3.0225,-2.9858,-2.97,-2.9889,-3.0315,-3.0712,-3.103,-3.143,-3.1915,-3.2674,-3.2453,-3.2177,-3.2102,0.0,0.0,0.0,0.0,0.0,0.0,-3.0536,-3.0107,0.0,0.0,0.0,0.0,0.0,-2.6442,-2.619,-2.5918,-2.5771,-2.5771,-2.5771,-2.5878,-2.6085,-2.6895,-2.7132,-2.6835,-2.7554,-2.7694,-2.7347,-2.7733,-2.8067,-2.8291,-2.8014,-2.8067,-2.8291,-2.8014,-2.8067,-2.8291,-2.8291,-2.8611,-2.9079,0.0,0.0,-2.9512,-2.9493,-2.9466,-2.9583,-2.9847,-2.9889,-2.9992,-3.0285,-2.9824,-2.9433,-2.9302,-2.9325,-2.925,-2.9062,-2.9667,-3.0157,-3.0548,-3.0301,-3.0185,-3.0165,-2.9872,-2.9664,-2.9578,-2.9578,-2.9578,-2.9578,-2.9578,-2.9504,-2.9438,-2.9438,-2.9373,-2.9307,-2.9307,-2.9307,-2.9307,-2.9222,-2.8905,-2.8468,-2.8661,-2.8406,-2.7899,-2.8497,-2.8701,-2.8782,-2.8738,-2.8745,-2.8876,-2.8957,-2.8853,-2.8754,-2.9442,-2.9371,-2.9122,-2.9561,-2.9702,-2.9686,-3.0039,-2.9928,-2.9747,-3.0141,-3.0276,-3.0091,-2.9381,-2.9499,-2.9651,-2.9361,-2.9583,-3.0137,-3.0978,-3.0793,-3.0838,-3.1642,-3.1457,-3.122,-3.122,-3.0872,0.0,0.0,-3.0345,-3.0055,-3.0044,-2.9919,-2.9652,0.0,0.0,0.0,0.0,-2.7302,-2.7142,-2.7082,-2.685,-2.6709,-2.6709,-2.6709,-2.6717,-2.6773,-2.736,-2.7447,-2.7122,-2.766,-2.7849,-2.7762,-2.7858,-2.8067,-2.8291,-2.8237,-2.8237,-2.8291,-2.8237,-2.8237,-2.8291,-2.8291,-2.8504,-2.8781,-2.972,-2.9424,-2.9296,-2.9296,-2.9147,-2.9166,-2.9593,-2.9504,-2.9534,-2.9829,-2.9535,-2.9244,-2.902,-2.906,-2.8976,-2.8793,-2.9284,-2.9624,-2.9699,-2.95,-2.9309,-2.9168,-2.9106,-2.8988,-2.8856,-2.8856,-2.8922,-2.9062,-2.8922,-2.8922,-2.9062,-2.8922,-2.8922,-2.9062,-2.9062,-2.9185,-2.9299,-2.9136,-2.8931,-2.8708,-2.8759,-2.8528,-2.8152,-2.8375,-2.8581,-2.8663,-2.8632,-2.8729,-2.888,-2.9047,-2.8981,-2.8859,-2.9283,-2.9237,-2.9044,-2.9213,-2.9272,-2.9331,-2.9627,-2.9585,-2.9474,-2.9939,-3.0071,-3.003,-2.9728,-2.9688,-2.9595,-2.9319,-2.9273,-2.9444,-2.9921,-2.9718,-2.9742,-3.0513,-3.0357,-3.0204,-3.0675,-3.0113,0.0,-3.0271,-2.9929,-2.955,-2.9474,-2.9538,-2.9343,-2.8761,-2.8658,0.0,-2.764,-2.7734,-2.7521,-2.6981,-2.6965,-2.7012,-2.7012,-2.7207,-2.7314,-2.7314,-2.7744,-2.7896,-2.7728,-2.797,-2.8067,-2.8067,-2.8067,-2.8184,-2.8291,-2.8184,-2.8184,-2.831,-2.8354,-2.8359,-2.834,-2.873,-2.8923,-2.9064,-2.9369,-2.9226,-2.9218,-2.9298,-2.9043,-2.8877,-2.925,-2.9043,-2.9074,-2.9678,-2.9452,-2.9174,-2.9089,-2.8903,-2.8781,-2.8666,-2.8959,-2.9072,-2.8825,-2.8825,-2.8659,-2.8337,-2.8601,-2.8601,-2.8337,-2.8329,-2.8469,-2.8741,-2.8469,-2.8469,-2.8741,-2.8469,-2.8535,-2.8807,-2.8873,-2.9062,-2.929,-2.8991,-2.8999,-2.9205,-2.8956,-2.8828,-2.8742,-2.8408,-2.8478,-2.8678,-2.8509,-2.8677,-2.9021,-2.927,-2.9151,-2.8952,-2.9013,-2.8959,-2.8925,-2.8984,-2.8984,-2.9035,-2.9331,-2.944,-2.9618,-3.0157,-3.0229,-3.0283,-3.0396,-3.0035,-2.9587,-2.9317,-2.9099,-2.8843,-2.8647,-2.8631,-2.8793,-2.9483,-2.9273,-2.9333,-3.0148,0.0,-2.9297,-2.9792,-2.9604,-2.9373,-2.9179,-2.9331,-2.9132,-2.8291,-2.8514,-2.8378,0.0,-2.8145,-2.7773,-2.6611,-2.6992,-2.7207,-2.7207,-2.751,-2.7718,-2.7718,-2.8027,-2.8193,-2.8203,-2.8262,-2.8291,-2.8291,-2.8291,-2.8291,-2.8291,-2.8067,-2.8106,-2.8428,-2.8526,-2.8542,-2.8574,-2.9307,-2.9512,-2.9486,-2.9369,-2.8995,-2.8923,-2.9226,-2.8955,-2.886,-2.9218,-2.925,-2.9123,-2.9026,-2.8946,-2.8659,-2.8012,-2.8438,-2.8538,-2.7913,-2.8225,-2.8515,-2.88,-2.88,-2.866,-2.8279,-2.8337,-2.8337,-2.8329,-2.8329,-2.8337,-2.8403,-2.8337,-2.8337,-2.8403,-2.8601,-2.8741,-2.8807,-2.9119,-2.925,-2.9307,-2.9248,-2.9085,-2.8888,-2.9128,-2.9051,-2.8777,-2.8708,-2.8755,-2.8661,-2.7994,-2.7955,-2.821,-2.793,-2.7972,-2.8238,-2.8487,-2.8571,-2.8636,-2.8925,-2.8984,-2.8984,-2.9035,-2.9272,-2.9499,-2.9627,-2.9982,-3.0248,-2.9642,-2.9804,-2.9817,-2.8862,-2.8807,-2.8789,-2.8423,-2.8184,-2.815,-2.8486,-2.8741,-2.8976,-2.9113,0.0,-2.9506,-2.9933,-2.9321,-2.8983,-2.9307,-2.9053,-2.8621,-2.8014,-2.8237,-2.8072,-2.7333,-2.7927,-2.8037,-2.7542,-2.7871,-2.8096,-2.8096,-2.7803,-2.7718,-2.7718,-2.7787,-2.7816,-2.7826,-2.8135,-2.8291,-2.8291,-2.8291,-2.8291,-2.8291,-2.8237,-2.8452,-2.8828,-2.8842,-2.9056,-2.9385,-2.9521,-2.9587,-2.9594,-2.9369,-2.9146,-2.9074,-2.9298,-2.9146,-2.9002,-2.8995,-2.8995,-2.8868,-2.8496,-2.8616,-2.8499,-2.7815,-2.839,-2.8518,-2.7736,-2.806,-2.8257,-2.8216,-2.8215,-2.8028,-2.7741,-2.7857,-2.7857,-2.7733,-2.7733,-2.7799,-2.799,-2.7799,-2.7791,-2.799,-2.7932,-2.7998,-2.8188,-2.8378,-2.8584,-2.879,-2.8922,-2.8969,-2.8833,-2.9182,-2.9213,-2.9025,-2.8422,-2.846,-2.8682,-2.7957,-2.7873,-2.8153,-2.8148,-2.8132,-2.8096,-2.8226,-2.8257,-2.8268,-2.8448,-2.8737,-2.8984,-2.8984,-2.9213,-2.9499,-2.9499,-2.9804,-3.0041,-2.9724,-2.9861,-2.9786,-2.8829,-2.8824,-2.8797,-2.8193,-2.8121,-2.8184,-2.8461,-2.8682,0.0,0.0,-2.9173,-2.9203,-2.9639,-2.8952,-2.8593,-2.88,-2.8632,-2.8335,-2.7953,-2.8263,-2.8273,-2.8019,-2.8273,-2.8339,-2.8154,-2.8267,-2.8291,-2.8291,-2.8096,-2.7998,-2.7998,-2.7998,-2.7998,-2.8008,-2.8203,-2.8291,-2.8291,-2.8291,-2.8291,-2.8291,-2.8291,-2.8535,-2.8945,-2.918,-2.9394,-2.9685,-3.0107,-3.0117,-2.9998,-2.9298,-2.9226,-2.9218,-2.9298,-2.9226,-2.9074,-2.8771,-2.8699,-2.8555,-2.813,-2.8346,-2.833,-2.7734,-2.8326,-2.8466,-2.7779,-2.8085,-2.8178,-2.7757,-2.7731,-2.7539,-2.7208,-2.7459,-2.7451,-2.7208,-2.72,-2.7326,-2.7584,-2.7326,-2.7326,-2.7584,-2.7392,-2.7459,-2.7708,-2.7907,-2.8122,-2.8403,-2.8667,-2.8873,-2.893,-2.9119,-2.925,-2.9174,-2.8179,-2.8124,-2.849,-2.7807,-2.7758,-2.7991,-2.8286,-2.8218,-2.7974,-2.8036,-2.8017,-2.7891,-2.796,-2.8379,-2.8806,-2.8865,-2.9044,-2.9272,-2.939,-2.9627,-2.9804,-2.9804,-2.9863,-2.9655,-2.8908,-2.8871,-2.8821,-2.8122,-2.8074,-2.8232,-2.8618,0.0,0.0,0.0,-2.9043,-2.8803,-2.9203,-2.8657,-2.8291,-2.8408,-2.8344,-2.8203,-2.7977,-2.8275,-2.854,-2.8567,-2.8514,-2.8468,-2.8472,-2.8305,-2.8237,-2.8291,-2.8291,-2.8291,-2.8291,-2.8291,-2.8291,-2.8291,-2.8291,-2.8291,-2.8291,-2.8291,-2.8291,-2.8301,-2.8398,-2.8691,-2.9111,-2.9551,-2.9785,-2.9961,-3.0635,-3.0664,-3.0468,-2.9298,-2.8995,-2.8851,-2.9218,-2.8995,-2.8699,-2.8699,-2.8699,-2.8555,-2.813,-2.8137,-2.8,-2.7633,-2.8251,-2.8466,-2.7787,-2.8317,-2.8448,-2.778,-2.7709,-2.7542,-2.7216,-2.72,-2.72,-2.72,-2.72,-2.72,-2.7267,-2.72,-2.72,-2.7267,-2.7517,-2.7708,-2.7708,-2.8395,-2.8741,-2.8741,-2.8807,-2.8996,-2.925,-2.893,-2.8996,-2.9199,-2.8466,-2.7992,-2.7727,-2.7277,-2.7178,-2.7211,-2.7496,-2.7582,-2.7625,-2.7935,-2.7788,-2.7581,-2.79,-2.802,-2.814,-2.8457,-2.8576,-2.8636,-2.8984,-2.9272,-2.9509,-2.9509,-2.9745,-2.9681,-2.893,-2.8836,-2.8706,-2.8267,-2.7884,-2.7862,-2.8404,0.0,0.0,-2.8393,-2.8587,-2.8694,-2.8724,-2.8481,-2.8408,-2.8631,-2.8461,-2.8194,-2.7955,-2.8276,-2.8351,-2.8085,-2.8351,-2.8433,-2.8296,-2.8033,-2.8077,-2.8291,-2.8291,-2.8291,-2.8291,-2.8291,-2.8291,-2.8291,-2.8291,-2.8291,-2.8291,-2.8291,-2.8291,-2.832,-2.8711,-2.9131,-2.956,-2.999,-3.041,-3.0801,-3.0869,-3.0869,-3.0898,-2.9298,-2.9146,-2.9146,-2.9298,-2.9146,-2.8995,-2.8771,-2.8491,-2.8202,-2.784,-2.7768,-2.7647,-2.7244,-2.7748,-2.7854,-2.7377,-2.7998,-2.8201,-2.7738,-2.7905,-2.7788,-2.7232,-2.72,-2.72,-2.72,-2.72,-2.72,-2.72,-2.72,-2.72,-2.72,-2.7326,-2.7392,-2.7392,-2.7666,-2.7807,-2.7873,-2.8271,-2.8527,-2.8725,-2.8988,-2.9053,-2.8954,-2.8452,-2.8151,-2.7941,-2.7344,-2.7218,-2.7364,-2.7263,-2.7246,-2.7246,-2.7427,-2.7366,-2.7297,-2.759,-2.7702,-2.7762,-2.808,-2.8208,-2.8268,-2.8636,-2.8815,-2.8865,-2.8865,-2.9103,-2.9161,-2.8637,-2.8661,-2.8762,-2.8578,-2.8493,-2.8724,-2.9346,0.0,-2.9332,-2.9262,-2.9188,-2.9045,-2.8714,-2.8461,-2.8344,-2.8461,-2.8344,-2.8291,-2.8292,-2.8565,-2.8823,-2.8899,-2.9027,-2.8804,-2.831,-2.8184,-2.8184,-2.8291,-2.8291,-2.8291,-2.8291,-2.8291,-2.8291,-2.8291,-2.8291,-2.8291,-2.831,-2.8564,-2.8682,-2.8711,-2.915,-2.958,-2.9971,-3.0137,-3.0594,-3.116,-3.116,-3.116,-3.1218,-2.9298,-2.9298,-2.9298,-2.9146,-2.9146,-2.893,-2.8411,-2.813,-2.7848,-2.7485,-2.7412,-2.7331,-2.7036,-2.7372,-2.756,-2.7246,-2.7791,-2.7996,-2.7663,-2.7778,-2.7668,-2.7232,-2.72,-2.72,-2.72,-2.72,-2.72,-2.72,-2.72,-2.72,-2.72,-2.72,-2.72,-2.72,-2.7326,-2.7326,-2.7392,-2.7923,-2.8196,-2.8329,-2.879,-2.8856,-2.8642,-2.8521,-2.828,-2.7966,-2.7592,-2.752,-2.7625,-2.7509,-2.7424,-2.7407,-2.7287,-2.7167,-2.7159,-2.7427,-2.7436,-2.7496,-2.7929,-2.7928,-2.7986,-2.855,-2.8607,-2.8553,-2.879,-2.8897,-2.8911,-2.8636,-2.8738,-2.8937,-2.906,-2.9136,-2.9381,-2.9944,-2.9948,-2.9862,-2.9774,-2.9461,-2.911,-2.8804,-2.8486,-2.834,-2.8476,-2.8496,-2.8563,-2.8836,-2.9036,-2.9286,-2.9577,-2.9446,-2.916,-2.8711,-2.8583,-2.8583,-2.8691,-2.8428,-2.8291,-2.8291,-2.8291,-2.8291,-2.8291,-2.8291,-2.8369,-2.8506,-2.8789,-2.8994,-2.915,-2.959,-2.9863,-3.0029,-3.0303,-3.0633,-3.0963,-3.1111,-3.116,-3.1276,-2.9298,-2.9298,-2.9146,-2.8771,-2.8699,-2.8483,-2.7695,-2.7623,-2.7485,-2.7063,-2.6991,-2.6991,-2.6991,-2.734,-2.7623,-2.7623,-2.7913,-2.7913,-2.7649,-2.7277,-2.716,-2.7224,-2.72,-2.72,-2.72,-2.72,-2.72,-2.72,-2.72,-2.72,-2.72,-2.72,-2.72,-2.72,-2.7584,-2.7708,-2.7708,-2.7708,-2.7915,-2.8329,-2.8329,-2.8329,-2.8337,-2.8667,-2.8367,-2.7766,-2.8098,-2.7992,-2.7744,-2.806,-2.8194,-2.8126,-2.7732,-2.7372,-2.715,-2.7501,-2.7355,-2.728,-2.7895,-2.7826,-2.7738,-2.8812,-2.8814,-2.8685,-2.9419,-2.9269,-2.8984,-2.8984,-2.8984,-2.9163,-2.9804,-2.959,-2.9489,-3.0091,-2.9853,-2.9636,-2.957,-2.9199,-2.8926,-2.8926,-2.8555,-2.8467,-2.8887,-2.8926,-2.9101,-2.9531,-2.9744,-2.9824,-2.9824,-2.9489,-2.9403,-2.959,-2.929,-2.929,-2.9626,-2.873,-2.8301,-2.8301,-2.8301,-2.8301,-2.8301,-2.8301,-2.8535,-2.8926,-2.8926,-2.917,-2.96,-3.0019,-2.9951,-2.9658,-3.0547,-3.0605,-3.0254,-3.0723,-3.0889,-3.0947,-2.9226,-2.9298,-2.9298,-2.9146,-2.8923,-2.8627,-2.8411,-2.7913,-2.7558,-2.7412,-2.7202,-2.6991,-2.6991,-2.6923,-2.6951,-2.718,-2.7341,-2.7598,-2.8004,-2.7943,-2.7778,-2.753,-2.7335,-2.72,-2.72,-2.72,-2.72,-2.72,-2.72,-2.72,-2.72,-2.72,-2.72,-2.72,-2.7334,-2.7326,-2.7392,-2.7576,-2.7775,-2.7915,-2.8196,-2.8329,-2.8337,-2.8403,-2.8328,-2.813,-2.793,-2.7764,-2.7696,-2.7828,-2.7862,-2.7845,-2.7986,-2.7946,-2.7949,-2.8248,-2.8262,-2.8175,-2.8403,-2.833,-2.8298,-2.8681,-2.8821,-2.8958,-2.9188,-2.9186,-2.9083,-2.898,-2.8806,-2.8925,-2.9754,-2.9827,-2.9917,-3.0568,-3.0576,-3.0333,-2.9793,-2.9789,-2.9595,-2.908,-2.9157,-2.9238,-2.9365,-2.9375,-2.9434,-2.9616,-2.9809,-2.9944,-2.9944,-3.0056,-2.9997,-2.9626,-2.9692,-2.9692,-2.9626,-2.9095,-2.8969,-2.9189,-2.9189,-2.9189,-2.9189,-2.9189,-2.9258,-2.9375,-2.9375,-2.9453,-2.96,-3.0019,-3.0127,-3.0068,-3.0664,-3.0917,-3.0973,-3.1111,-3.116,-3.1276,-2.8995,-2.9074,-2.9002,-2.8715,-2.8563,-2.8339,-2.8057,-2.763,-2.734,-2.734,-2.7129,-2.6918,-2.6765,-2.6743,-2.6699,-2.675,-2.6945,-2.7278,-2.7727,-2.772,-2.7686,-2.7689,-2.7529,-2.7352,-2.7208,-2.72,-2.72,-2.72,-2.72,-2.72,-2.72,-2.72,-2.72,-2.72,-2.72,-2.72,-2.72,-2.7392,-2.7517,-2.7517,-2.7915,-2.7998,-2.7932,-2.8196,-2.8196,-2.8023,-2.7941,-2.7989,-2.8087,-2.8,-2.7953,-2.7954,-2.829,-2.8441,-2.8464,-2.8636,-2.8674,-2.8588,-2.8632,-2.8585,-2.8592,-2.8939,-2.9088,-2.9245,-2.9685,-2.9442,-2.9091,-2.9028,-2.8745,-2.8696,-2.939,-2.9627,-2.9922,-3.0577,-3.0587,-3.0373,-3.0055,-2.992,-2.9718,-2.9411,-2.9397,-2.9527,-2.9805,-2.9824,-2.9893,-3.0078,-3.0145,-3.0201,-3.0325,-3.0541,-3.0541,-3.0248,-3.0305,-3.0305,-3.0248,-2.985,-2.9629,-2.9626,-2.9626,-2.9626,-2.9626,-2.9626,-2.9658,-2.9824,-2.9824,-2.9922,-3.0107,-3.0371,-3.0361,-3.0244,-3.0713,-3.0888,-3.0914,-3.1091,-3.116,-3.1218,-2.8627,-2.8699,-2.8483,-2.7768,-2.792,-2.7848,-2.7129,-2.6991,-2.6991,-2.6991,-2.6991,-2.6838,-2.6465,-2.6765,-2.6838,-2.6465,-2.6765,-2.7011,-2.7068,-2.7045,-2.7251,-2.7687,-2.7741,-2.7559,-2.7197,-2.7248,-2.7232,-2.72,-2.72,-2.72,-2.72,-2.72,-2.72,-2.72,-2.72,-2.72,-2.72,-2.72,-2.72,-2.72,-2.7517,-2.7517,-2.7334,-2.7932,-2.799,-2.7708,-2.8056,-2.8403,-2.8667,-2.8395,-2.8302,-2.8351,-2.869,-2.8763,-2.8791,-2.8845,-2.8739,-2.865,-2.8726,-2.8632,-2.8691,-2.9429,-2.9321,-2.9372,-3.0544,-2.9974,-2.9184,-2.9173,-2.8814,-2.8681,-2.8993,-2.9272,-2.9686,-3.0265,-3.0098,-2.9981,-3.0274,-2.9774,-2.9488,-2.9767,-2.9421,-2.9448,-3.0158,-3.0197,-3.043,-3.0859,-3.0635,-3.0577,-3.0889,-3.0927,-3.1024,-3.1276,-3.1034,-3.1024,-3.1276,-3.0743,-3.018,-2.9744,-2.9744,-2.9744,-2.9744,-2.9744,-2.9893,-3.0254,-3.0215,-3.0439,-3.083,-3.083,-3.0576,-3.0244,-3.0713,-3.0635,-3.0312,-3.0732,-3.0889,-3.0889,-2.8555,-2.8699,-2.8555,-2.8057,-2.8065,-2.7992,-2.7558,-2.7202,-2.6991,-2.6991,-2.6991,-2.6838,-2.6465,-2.6765,-2.6838,-2.6465,-2.6765,-2.71,-2.746,-2.7453,-2.7519,-2.7605,-2.7888,-2.7772,-2.7139,-2.7403,-2.7478,-2.72,-2.72,-2.72,-2.72,-2.72,-2.72,-2.72,-2.72,-2.72,-2.72,-2.72,-2.72,-2.7208,-2.7267,-2.7392,-2.7584,-2.7467,-2.7525,-2.7708,-2.7533,-2.7658,-2.7981,-2.8196,-2.8666,-2.9057,-2.8886,-2.8949,-2.9141,-2.917,-2.912,-2.9084,-2.9107,-2.8834,-2.8675,-2.9199,-2.9012,-2.9108,-3.0472,-3.0212,-2.9592,-2.9526,-2.9204,-2.9059,-2.9327,-2.945,-2.9618,-2.9981,-2.9922,-2.9863,-2.9736,-2.9728,-2.9799,-2.9848,-2.9772,-2.9918,-3.0296,-3.0364,-3.0529,-3.0879,-3.083,-3.083,-3.0889,-3.1102,-3.116,-3.0995,-3.116,-3.116,-3.0995,-3.0889,-3.0733,-3.0605,-3.0605,-3.0605,-3.0605,-3.0605,-3.0654,-3.0723,-3.0351,-3.0254,-3.0342,-3.0342,-3.0293,-3.0244,-3.0713,-3.083,-3.0752,-3.0859,-3.0889,-3.0889,-2.8274,-2.8266,-2.8057,-2.763,-2.7703,-2.7775,-2.7347,-2.6983,-2.6765,-2.6991,-2.6845,-2.6546,-2.6166,-2.6619,-2.6918,-2.6692,-2.6918,-2.7063,-2.7274,-2.734,-2.741,-2.7591,-2.7806,-2.7777,-2.7361,-2.7724,-2.7686,-2.72,-2.72,-2.72,-2.72,-2.72,-2.72,-2.72,-2.72,-2.72,-2.72,-2.72,-2.72,-2.72,-2.72,-2.7334,-2.7451,-2.7267,-2.7326,-2.7459,-2.7267,-2.7326,-2.7592,-2.8329,-2.8667,-2.8856,-2.8988,-2.925,-2.9504,-2.9373,-2.9366,-2.9447,-2.9256,-2.9018,-2.888,-2.9146,-2.8915,-2.8933,-3.0022,-2.9717,-2.9279,-2.9358,-2.9071,-2.888,-2.9021,-2.9153,-2.9331,-2.9686,-2.9686,-2.9686,-2.9686,-2.9686,-2.9804,-3.0098,-2.9981,-3.0108,-3.0577,-3.0635,-3.0704,-3.0889,-3.0889,-3.0889,-3.0889,-3.116,-3.1218,-3.1112,-3.1218,-3.1218,-3.1112,-3.0947,-3.0889,-3.0889,-3.0889,-3.0889,-3.0889,-3.0889,-3.0889,-3.0879,-3.0635,-3.0527,-3.0527,-3.0527,-3.0527,-3.0547,-3.0801,-3.0889,-3.0889,-3.0889,-3.1016,-3.1221,-2.7848,-2.7768,-2.7485,-2.7056,-2.734,-2.7485,-2.7063,-2.6692,-2.6538,-2.6918,-2.6619,-2.6246,-2.5873,-2.6319,-2.6699,-2.6765,-2.6765,-2.6838,-2.6918,-2.691,-2.7056,-2.7485,-2.7558,-2.7538,-2.7509,-2.7967,-2.7849,-2.72,-2.7264,-2.7264,-2.72,-2.72,-2.72,-2.72,-2.72,-2.72,-2.72,-2.72,-2.72,-2.72,-2.72,-2.72,-2.72,-2.72,-2.72,-2.7208,-2.7267,-2.7334,-2.7533,-2.8403,-2.8535,-2.8395,-2.8988,-2.9438,-2.9561,-2.9373,-2.9474,-2.9608,-2.9287,-2.9136,-2.9037,-2.9108,-2.8876,-2.8769,-2.9377,-2.9163,-2.8914,-2.924,-2.9109,-2.8865,-2.8793,-2.8961,-2.9195,-2.9493,-2.9428,-2.9509,-2.9686,-2.9568,-2.9627,-3.0265,-3.0098,-3.0167,-3.0713,-3.0762,-3.082,-3.082,-3.0889,-3.0889,-3.0889,-3.1112,-3.1218,-3.1218,-3.1218,-3.1218,-3.1218,-3.1005,-3.0889,-3.0889,-3.0889,-3.0889,-3.0889,-3.0889,-3.0889,-3.0889,-3.0889,-3.0889,-3.0889,-3.0889,-3.0889,-3.0889,-3.0889,-3.0889,-3.0898,-3.0976,-3.126,-3.168,-2.7558,-2.763,-2.7485,-2.7056,-2.734,-2.7485,-2.7063,-2.6692,-2.6538,-2.6918,-2.6619,-2.6246,-2.5873,-2.5586,-2.5593,-2.5946,-2.5946,-2.6093,-2.6465,-2.6465,-2.6692,-2.7063,-2.7412,-2.7323,-2.6748,-2.7693,-2.7849,-2.72,-2.751,-2.7502,-2.72,-2.72,-2.72,-2.72,-2.72,-2.72,-2.72,-2.72,-2.72,-2.72,-2.72,-2.72,-2.72,-2.72,-2.72,-2.7267,-2.7517,-2.7857,-2.8196,-2.8329,-2.8337,-2.8403,-2.8733,-2.8865,-2.8996,-2.925,-2.9339,-2.937,-2.9296,-2.9103,-2.8828,-2.8828,-2.8578,-2.8383,-2.8769,-2.9223,-2.9734,-3.0068,-3.0338,-3.038,-3.0041,-2.9736,-2.9549,-2.9549,-2.9264,-2.9103,-2.9103,-2.9103,-2.9281,-2.9922,-3.0157,-3.0274,-3.0039,-3.0274,-3.045,-3.045,-3.0762,-3.0889,-3.0889,-3.0947,-3.0947,-3.0947,-3.0947,-3.0947,-3.0947,-3.0889,-3.0889,-3.0889,-3.0889,-3.0889,-3.0889,-3.0889,-3.0889,-3.0889,-3.0889,-3.0889,-3.0889,-3.0889,-3.0889,-3.0889,-3.0889,-3.0889,-3.0937,-3.1299,-3.1709,-3.209,-2.7558,-2.7412,-2.7202,-2.7063,-2.7136,-2.7202,-2.7063,-2.6465,-2.6319,-2.6918,-2.6253,-2.5733,-2.58,-2.5446,-2.5373,-2.5726,-2.58,-2.5873,-2.6019,-2.6093,-2.6239,-2.6619,-2.683,-2.6908,-2.6799,-2.7534,-2.7653,-2.7159,-2.7726,-2.7828,-2.7494,-2.7494,-2.7391,-2.72,-2.72,-2.72,-2.72,-2.72,-2.72,-2.72,-2.72,-2.72,-2.72,-2.72,-2.72,-2.72,-2.7392,-2.7525,-2.7733,-2.7923,-2.7981,-2.8056,-2.8395,-2.8675,-2.8807,-2.8996,-2.9119,-2.9307,-2.9307,-2.9196,-2.9033,-2.8828,-2.8648,-2.8647,-2.8965,-2.9397,-2.9832,-2.9933,-3.021,-3.0406,-3.0231,-3.0048,-2.992,-2.992,-2.9771,-2.9707,-2.993,-2.9568,-2.945,-2.9863,-3.0216,-3.0392,-3.047,-3.0587,-3.0704,-3.0704,-3.083,-3.0889,-3.0889,-3.1054,-3.1054,-3.0889,-3.1054,-3.1054,-3.0889,-3.0889,-3.0889,-3.0889,-3.0889,-3.0889,-3.0889,-3.0889,-3.0889,-3.0889,-3.0889,-3.0889,-3.0889,-3.0889,-3.0889,-3.0889,-3.0889,-3.1035,-3.1318,-3.1992,-3.2353,-3.2549]},{"header":{"parameterUnit":"m.s-1","parameterCategory":1,"la1":30.6,"la2":28.766,"lo1":-90.7593,"lo2":-88.6598,"dy":0.0162,"dx":0.0183,"nx":116,"ny":114,"refTime":"2023-04-19T12:00:00:Z","depth":0,"parameterNumber":3,"parameterNumberName":"V-component_of_WINDS"},"data":[0.0,0.0,0.0,0.0,0.0,0.0,0.0,0.0,0.0,0.0,0.0,0.0,0.0,0.0,0.0,0.0,0.0,0.0,0.0,0.0,0.0,0.0,0.0,0.0,0.0,0.0,0.0,0.0,0.0,0.0,0.0,0.0,0.0,0.0,0.0,0.0,0.0,0.0,0.0,0.0,0.0,0.0,0.0,0.0,0.0,0.0,0.0,0.0,0.0,0.0,0.0,0.0,0.0,0.0,0.0,0.0,0.0,0.0,0.0,0.0,0.0,0.0,0.0,0.0,0.0,0.0,0.0,0.0,0.0,0.0,0.0,0.0,0.0,0.0,0.0,0.0,0.0,0.0,0.0,0.0,0.0,0.0,0.0,0.0,0.0,0.0,0.0,0.0,0.0,0.0,0.0,0.0,0.0,0.0,0.0,0.0,0.0,0.0,0.0,0.0,0.0,0.0,0.0,0.0,0.0,0.0,0.0,0.0,0.0,0.0,0.0,0.0,0.0,0.0,0.0,0.0,0.0,0.0,0.0,0.0,0.0,0.0,0.0,0.0,0.0,0.0,0.0,0.0,0.0,0.0,0.0,0.0,0.0,0.0,0.0,0.0,0.0,0.0,0.0,0.0,0.0,0.0,0.0,0.0,0.0,0.0,0.0,0.0,0.0,0.0,0.0,0.0,0.0,0.0,0.0,0.0,0.0,0.0,0.0,0.0,0.0,0.0,0.0,0.0,0.0,0.0,0.0,0.0,0.0,0.0,0.0,0.0,0.0,0.0,0.0,0.0,0.0,0.0,0.0,0.0,0.0,0.0,0.0,0.0,0.0,0.0,0.0,0.0,0.0,0.0,0.0,0.0,0.0,0.0,0.0,0.0,0.0,0.0,0.0,0.0,0.0,0.0,0.0,0.0,0.0,0.0,0.0,0.0,0.0,0.0,0.0,0.0,0.0,0.0,0.0,0.0,0.0,0.0,0.0,0.0,0.0,0.0,0.0,0.0,0.0,0.0,0.0,0.0,0.0,0.0,0.0,0.0,0.0,0.0,0.0,0.0,0.0,0.0,0.0,0.0,0.0,0.0,0.0,0.0,0.0,0.0,0.0,0.0,0.0,0.0,0.0,0.0,0.0,0.0,0.0,0.0,0.0,0.0,0.0,0.0,0.0,0.0,0.0,0.0,0.0,0.0,0.0,0.0,0.0,0.0,0.0,0.0,0.0,0.0,0.0,0.0,0.0,0.0,0.0,0.0,0.0,0.0,0.0,0.0,0.0,0.0,0.0,0.0,0.0,0.0,0.0,0.0,0.0,0.0,0.0,0.0,0.0,0.0,0.0,0.0,0.0,0.0,0.0,0.0,0.0,0.0,0.0,0.0,0.0,0.0,0.0,0.0,0.0,0.0,0.0,0.0,0.0,0.0,0.0,0.0,0.0,0.0,0.0,0.0,0.0,0.0,0.0,0.0,0.0,0.0,0.0,0.0,0.0,0.0,0.0,0.0,0.0,0.0,0.0,0.0,0.0,0.0,0.0,0.0,0.0,0.0,0.0,0.0,0.0,0.0,0.0,0.0,0.0,0.0,0.0,0.0,0.0,0.0,0.0,0.0,0.0,0.0,0.0,0.0,0.0,0.0,0.0,0.0,0.0,0.0,0.0,0.0,0.0,0.0,0.0,0.0,0.0,0.0,0.0,0.0,0.0,0.0,0.0,0.0,0.0,0.0,0.0,0.0,0.0,0.0,0.0,0.0,0.0,0.0,0.0,0.0,0.0,0.0,0.0,0.0,0.0,0.0,0.0,0.0,0.0,0.0,0.0,0.0,0.0,0.0,0.0,0.0,0.0,0.0,0.0,0.0,0.0,0.0,0.0,0.0,0.0,0.0,0.0,0.0,0.0,0.0,0.0,0.0,0.0,0.0,0.0,0.0,0.0,0.0,0.0,0.0,0.0,0.0,0.0,0.0,0.0,0.0,0.0,0.0,0.0,0.0,0.0,0.0,0.0,0.0,0.0,0.0,0.0,0.0,0.0,0.0,0.0,0.0,0.0,0.0,0.0,0.0,0.0,0.0,0.0,0.0,0.0,0.0,0.0,0.0,0.0,0.0,0.0,0.0,0.0,0.0,0.0,0.0,0.0,0.0,0.0,0.0,0.0,0.0,0.0,0.0,0.0,0.0,0.0,0.0,0.0,0.0,0.0,0.0,0.0,0.0,0.0,0.0,0.0,0.0,0.0,0.0,0.0,0.0,0.0,0.0,0.0,0.0,0.0,0.0,0.0,0.0,0.0,0.0,0.0,0.0,0.0,0.0,0.0,0.0,0.0,0.0,0.0,0.0,0.0,0.0,0.0,0.0,0.0,0.0,0.0,0.0,0.0,0.0,0.0,0.0,0.0,0.0,0.0,0.0,0.0,0.0,0.0,0.0,0.0,0.0,0.0,0.0,0.0,0.0,0.0,0.0,0.0,0.0,0.0,0.0,0.0,0.0,0.0,0.0,0.0,0.0,0.0,0.0,0.0,0.0,0.0,0.0,0.0,0.0,0.0,0.0,0.0,0.0,0.0,0.0,0.0,0.0,0.0,0.0,0.0,0.0,0.0,0.0,0.0,0.0,0.0,0.0,0.0,0.0,0.0,0.0,0.0,0.0,0.0,0.0,0.0,0.0,0.0,0.0,0.0,0.0,0.0,0.0,0.0,0.0,0.0,0.0,0.0,0.0,0.0,0.0,0.0,0.0,0.0,0.0,0.0,0.0,0.0,0.0,0.0,0.0,0.0,0.0,0.0,0.0,0.0,0.0,0.0,0.0,0.0,0.0,0.0,0.0,0.0,0.0,0.0,0.0,0.0,0.0,0.0,0.0,0.0,0.0,0.0,0.0,0.0,0.0,0.0,0.0,0.0,0.0,0.0,0.0,0.0,0.0,0.0,0.0,0.0,0.0,0.0,0.0,0.0,0.0,0.0,0.0,0.0,0.0,0.0,0.0,0.0,0.0,0.0,0.0,0.0,0.0,0.0,0.0,0.0,0.0,0.0,0.0,0.0,0.0,0.0,0.0,0.0,0.0,0.0,0.0,0.0,0.0,0.0,0.0,0.0,0.0,0.0,0.0,0.0,0.0,0.0,0.0,0.0,0.0,0.0,0.0,0.0,0.0,0.0,0.0,0.0,0.0,0.0,0.0,0.0,0.0,0.0,0.0,0.0,0.0,0.0,0.0,0.0,0.0,0.0,0.0,0.0,0.0,0.0,0.0,0.0,0.0,0.0,0.0,0.0,0.0,0.0,0.0,0.0,0.0,0.0,0.0,0.0,0.0,0.0,0.0,0.0,0.0,0.0,0.0,0.0,0.0,0.0,0.0,0.0,0.0,0.0,0.0,0.0,0.0,0.0,0.0,0.0,0.0,0.0,0.0,0.0,0.0,0.0,0.0,0.0,0.0,0.0,0.0,0.0,0.0,0.0,0.0,0.0,0.0,0.0,0.0,0.0,0.0,0.0,0.0,0.0,0.0,0.0,0.0,0.0,0.0,0.0,0.0,0.0,0.0,0.0,0.0,0.0,0.0,0.0,0.0,0.0,0.0,0.0,0.0,0.0,0.0,0.0,0.0,0.0,0.0,0.0,0.0,0.0,0.0,0.0,0.0,0.0,0.0,0.0,0.0,0.0,0.0,0.0,0.0,0.0,0.0,0.0,0.0,0.0,0.0,0.0,0.0,0.0,0.0,0.0,0.0,0.0,0.0,0.0,0.0,0.0,0.0,0.0,0.0,0.0,0.0,0.0,0.0,0.0,0.0,0.0,0.0,0.0,0.0,0.0,0.0,0.0,0.0,0.0,0.0,0.0,0.0,0.0,0.0,0.0,0.0,0.0,0.0,0.0,0.0,0.0,0.0,0.0,0.0,0.0,0.0,0.0,0.0,0.0,0.0,0.0,0.0,0.0,0.0,0.0,0.0,0.0,0.0,0.0,0.0,0.0,0.0,0.0,0.0,0.0,0.0,0.0,0.0,0.0,0.0,0.0,0.0,0.0,0.0,0.0,0.0,0.0,0.0,0.0,0.0,0.0,0.0,0.0,0.0,0.0,0.0,0.0,0.0,0.0,0.0,0.0,0.0,0.0,0.0,0.0,0.0,0.0,0.0,0.0,0.0,0.0,0.0,0.0,0.0,0.0,0.0,0.0,0.0,0.0,0.0,0.0,0.0,0.0,0.0,0.0,0.0,0.0,0.0,0.0,0.0,0.0,0.0,0.0,0.0,0.0,0.0,0.0,0.0,0.0,0.0,0.0,0.0,0.0,0.0,0.0,0.0,0.0,0.0,0.0,0.0,0.0,0.0,0.0,0.0,0.0,0.0,0.0,0.0,0.0,0.0,0.0,0.0,0.0,0.0,0.0,0.0,0.0,0.0,0.0,0.0,0.0,0.0,0.0,0.0,0.0,0.0,0.0,0.0,0.0,0.0,0.0,0.0,0.0,0.0,0.0,0.0,0.0,0.0,0.0,0.0,0.0,0.0,0.0,0.0,0.0,0.0,0.0,0.0,0.0,0.0,0.0,0.0,0.0,0.0,0.0,0.0,0.0,0.0,0.0,0.0,0.0,0.0,0.0,0.0,0.0,0.0,0.0,0.0,0.0,0.0,0.0,0.0,0.0,0.0,0.0,0.0,0.0,0.0,0.0,0.0,0.0,0.0,0.0,0.0,0.0,0.0,0.0,0.0,0.0,0.0,0.0,0.0,0.0,0.0,0.0,0.0,0.0,0.0,0.0,0.0,0.0,0.0,0.0,0.0,0.0,0.0,0.0,0.0,0.0,0.0,0.0,0.0,0.0,0.0,0.0,0.0,0.0,0.0,0.0,0.0,0.0,0.0,0.0,0.0,0.0,0.0,0.0,0.0,0.0,0.0,0.0,0.0,0.0,0.0,0.0,0.0,0.0,0.0,0.0,0.0,0.0,0.0,0.0,0.0,0.0,0.0,0.0,0.0,0.0,0.0,0.0,0.0,0.0,0.0,0.0,0.0,0.0,0.0,0.0,0.0,0.0,0.0,0.0,0.0,0.0,0.0,0.0,0.0,0.0,0.0,0.0,0.0,0.0,0.0,0.0,0.0,0.0,0.0,0.0,0.0,0.0,0.0,0.0,0.0,0.0,0.0,0.0,0.0,0.0,0.0,0.0,0.0,0.0,0.0,0.0,0.0,0.0,0.0,0.0,0.0,0.0,0.0,0.0,0.0,0.0,0.0,0.0,0.0,0.0,0.0,0.0,0.0,0.0,0.0,0.0,0.0,0.0,0.0,0.0,0.0,0.0,0.0,0.0,0.0,0.0,0.0,0.0,0.0,0.0,0.0,0.0,0.0,0.0,0.0,0.0,0.0,0.0,0.0,0.0,0.0,0.0,0.0,0.0,0.0,0.0,0.0,0.0,0.0,0.0,0.0,0.0,0.0,0.0,0.0,0.0,0.0,0.0,0.0,0.0,0.0,0.0,0.0,0.0,0.0,0.0,0.0,0.0,0.0,0.0,0.0,0.0,0.0,0.0,0.0,0.0,0.0,0.0,0.0,0.0,0.0,0.0,0.0,0.0,0.0,0.0,0.0,0.0,0.0,0.0,0.0,0.0,0.0,0.0,0.0,0.0,0.0,0.0,0.0,0.0,0.0,0.0,0.0,0.0,0.0,0.0,0.0,0.0,0.0,0.0,0.0,0.0,0.0,0.0,0.0,0.0,0.0,0.0,0.0,0.0,0.0,0.0,0.0,0.0,0.0,0.0,0.0,0.0,0.0,0.0,0.0,0.0,0.0,0.0,0.0,0.0,0.0,0.0,0.0,0.0,0.0,0.0,0.0,0.0,0.0,0.0,0.0,0.0,0.0,0.0,0.0,0.0,0.0,0.0,0.0,0.0,0.0,0.0,0.0,0.0,0.0,0.0,0.0,0.0,0.0,0.0,0.0,0.0,0.0,0.0,0.0,0.0,0.0,0.0,0.0,0.0,0.0,0.0,0.0,0.0,0.0,0.0,0.0,0.0,0.0,0.0,0.0,0.0,0.0,0.0,0.0,0.0,0.0,0.0,0.0,0.0,0.0,0.0,0.0,0.0,0.0,0.0,0.0,0.0,0.0,0.0,0.0,0.0,0.0,3.7847,3.6317,0.0,0.0,0.0,0.0,0.0,0.0,0.0,0.0,0.0,0.0,0.0,0.0,0.0,0.0,0.0,0.0,0.0,0.0,0.0,0.0,0.0,0.0,0.0,0.0,0.0,0.0,0.0,0.0,0.0,0.0,0.0,0.0,0.0,0.0,0.0,0.0,0.0,0.0,4.6094,4.6683,4.684,4.5632,4.3338,4.0288,0.0,0.0,0.0,0.0,0.0,0.0,0.0,0.0,0.0,0.0,0.0,0.0,0.0,0.0,0.0,0.0,0.0,0.0,0.0,0.0,0.0,0.0,0.0,0.0,0.0,0.0,0.0,0.0,0.0,0.0,0.0,0.0,0.0,0.0,0.0,0.0,0.0,0.0,0.0,0.0,0.0,0.0,0.0,0.0,0.0,0.0,0.0,0.0,0.0,0.0,0.0,0.0,0.0,0.0,0.0,0.0,0.0,0.0,0.0,0.0,0.0,0.0,0.0,0.0,0.0,0.0,0.0,0.0,0.0,0.0,4.0866,3.9275,0.0,0.0,0.0,0.0,0.0,0.0,0.0,0.0,0.0,0.0,0.0,0.0,0.0,0.0,0.0,0.0,0.0,0.0,0.0,0.0,0.0,0.0,0.0,0.0,0.0,0.0,0.0,0.0,0.0,0.0,0.0,0.0,0.0,0.0,0.0,4.4989,4.6339,4.7574,4.9047,5.0071,5.0583,5.0225,4.7583,4.3171,4.2081,0.0,0.0,0.0,0.0,0.0,0.0,0.0,0.0,0.0,0.0,0.0,0.0,0.0,0.0,0.0,0.0,0.0,0.0,0.0,0.0,0.0,0.0,0.0,0.0,0.0,0.0,0.0,0.0,0.0,0.0,0.0,0.0,0.0,0.0,0.0,0.0,0.0,0.0,0.0,0.0,0.0,0.0,0.0,0.0,0.0,0.0,0.0,0.0,0.0,0.0,0.0,0.0,0.0,0.0,0.0,0.0,0.0,0.0,0.0,0.0,0.0,0.0,0.0,4.5062,4.5233,4.5154,4.5352,4.5424,4.5283,4.3892,4.2538,4.1246,4.056,0.0,0.0,0.0,0.0,0.0,0.0,0.0,0.0,0.0,0.0,0.0,0.0,0.0,0.0,0.0,0.0,0.0,0.0,0.0,0.0,0.0,3.7195,3.8048,3.8164,3.9305,4.0234,0.0,0.0,0.0,0.0,0.0,0.0,4.5256,4.7539,4.9101,4.9867,5.1851,5.2867,5.2958,5.2954,5.1938,4.9941,4.6243,4.3836,4.2446,0.0,0.0,0.0,0.0,0.0,0.0,0.0,0.0,0.0,0.0,0.0,0.0,0.0,0.0,0.0,0.0,0.0,0.0,0.0,0.0,0.0,0.0,0.0,0.0,0.0,0.0,0.0,0.0,0.0,0.0,0.0,0.0,0.0,0.0,0.0,0.0,0.0,0.0,0.0,0.0,0.0,3.5516,3.6716,0.0,0.0,0.0,0.0,0.0,0.0,0.0,0.0,0.0,0.0,0.0,0.0,0.0,4.4836,4.5844,4.5976,4.6407,4.7125,4.7425,4.787,4.8373,4.843,4.8332,4.8053,4.7661,0.0,4.376,4.2895,0.0,0.0,0.0,0.0,0.0,0.0,0.0,0.0,0.0,0.0,0.0,0.0,0.0,0.0,0.0,0.0,0.0,0.0,0.0,0.0,0.0,3.8345,3.9229,4.0294,4.1483,4.2317,4.2648,0.0,0.0,0.0,0.0,4.6648,4.7433,4.9351,5.1562,5.4088,5.5257,5.6042,5.649,5.6157,5.5474,5.4565,5.1955,4.8714,4.5058,4.3589,0.0,0.0,0.0,0.0,0.0,0.0,0.0,0.0,0.0,0.0,0.0,0.0,0.0,0.0,0.0,0.0,0.0,0.0,0.0,0.0,0.0,0.0,0.0,0.0,0.0,0.0,0.0,0.0,0.0,0.0,0.0,0.0,0.0,0.0,0.0,0.0,0.0,0.0,0.0,3.5993,3.6582,3.8108,3.8142,3.8449,0.0,0.0,0.0,0.0,0.0,0.0,0.0,0.0,0.0,4.6252,4.6756,4.727,4.7778,4.8112,4.8511,4.8903,4.9023,4.9235,4.9508,4.9508,4.9452,4.9316,4.9235,4.8521,4.7344,4.5883,4.4628,4.3617,0.0,0.0,0.0,0.0,4.2001,4.2227,0.0,0.0,0.0,0.0,0.0,0.0,0.0,0.0,0.0,0.0,0.0,0.0,3.8767,3.9466,4.0495,4.2034,4.3334,4.4146,4.4411,4.6075,0.0,0.0,4.7383,4.8441,4.948,5.1647,5.4348,5.7599,5.8313,5.8953,5.9481,5.9243,5.8714,5.7862,5.6868,5.3266,4.7926,4.7026,4.5476,4.3501,0.0,0.0,0.0,0.0,0.0,0.0,0.0,0.0,0.0,0.0,0.0,0.0,0.0,0.0,0.0,0.0,0.0,0.0,0.0,0.0,0.0,0.0,0.0,0.0,0.0,0.0,0.0,0.0,0.0,0.0,0.0,0.0,0.0,0.0,0.0,0.0,0.0,3.7607,3.8089,3.9775,4.0119,4.0444,0.0,0.0,0.0,0.0,0.0,0.0,4.6297,4.6896,4.7527,4.8219,4.891,4.9337,4.9435,4.996,5.0214,5.0214,5.0214,5.0214,5.0214,5.0214,5.0214,5.0214,5.0214,5.0119,4.9818,4.7951,4.6607,4.5631,4.5338,4.4902,4.4465,4.4542,4.4496,4.4373,0.0,0.0,0.0,0.0,0.0,0.0,0.0,0.0,0.0,0.0,0.0,3.8396,3.8845,4.0514,4.1853,4.2604,4.4068,4.5175,4.575,4.6926,4.7624,4.7789,4.9005,5.0115,5.108,5.497,5.7716,5.9188,6.0598,6.1215,6.1124,6.2105,6.1541,5.977,5.9746,5.6762,5.1653,5.0547,4.8725,4.6579,4.5167,0.0,0.0,0.0,0.0,0.0,0.0,0.0,0.0,0.0,0.0,0.0,0.0,0.0,0.0,0.0,0.0,0.0,0.0,0.0,0.0,0.0,0.0,0.0,0.0,0.0,0.0,0.0,0.0,0.0,0.0,0.0,0.0,0.0,0.0,0.0,0.0,0.0,0.0,4.2221,4.3149,0.0,0.0,0.0,0.0,4.6272,4.6713,4.7341,4.828,4.888,4.9421,4.9948,5.0197,5.0538,5.0978,5.1027,5.1043,5.1043,5.1043,5.1043,5.1043,5.1043,5.1043,5.1043,5.1043,5.0693,4.9976,4.8412,4.7732,4.759,4.7173,4.6548,4.6008,4.6857,4.6537,4.5624,0.0,0.0,0.0,0.0,0.0,0.0,0.0,0.0,0.0,3.5831,3.7512,3.8931,3.9638,4.1394,4.2973,4.4068,4.5437,4.6469,4.7056,4.8602,4.9429,4.932,5.0652,5.2343,5.4363,5.7158,5.9306,6.0786,6.1784,6.2415,6.2761,6.3005,6.2859,6.2419,6.213,6.0616,5.81,5.5097,5.2703,5.0679,4.8427,4.633,0.0,0.0,0.0,0.0,0.0,0.0,0.0,0.0,0.0,0.0,0.0,0.0,0.0,0.0,0.0,0.0,0.0,0.0,0.0,0.0,0.0,0.0,0.0,0.0,0.0,0.0,0.0,0.0,0.0,0.0,0.0,0.0,0.0,0.0,0.0,0.0,0.0,4.3948,4.5248,0.0,4.6768,4.7192,4.7739,4.8433,4.8628,4.9131,5.006,5.0413,5.0848,5.15,5.1589,5.172,5.1858,5.1765,5.1765,5.1858,5.1672,5.1598,5.1692,5.1598,5.1524,5.1524,5.1524,5.1153,5.0399,4.9377,4.8832,4.8613,4.8397,4.8192,4.7986,4.7848,4.7825,4.783,0.0,0.0,0.0,0.0,0.0,0.0,0.0,0.0,0.0,3.5911,3.7681,3.9247,4.0207,4.1813,4.3449,4.5065,4.6243,4.7255,4.7997,4.9571,5.0435,5.0408,5.2283,5.4617,5.7309,5.9123,6.0767,6.2266,6.331,6.3916,6.4164,6.422,6.4198,6.4093,6.3979,6.342,6.2455,5.9789,5.7128,5.4542,5.2184,4.9885,4.7567,0.0,0.0,0.0,0.0,0.0,0.0,0.0,0.0,0.0,0.0,0.0,0.0,0.0,0.0,0.0,0.0,0.0,0.0,0.0,0.0,0.0,0.0,0.0,0.0,0.0,0.0,0.0,0.0,0.0,0.0,0.0,0.0,0.0,0.0,4.376,4.5053,4.599,4.7375,4.8403,4.8679,4.9155,4.9658,5.0155,5.0208,5.0626,5.1491,5.1787,5.2124,5.2485,5.2572,5.2572,5.2501,5.2359,5.2359,5.2501,5.2269,5.2233,5.2288,5.2197,5.2161,5.2161,5.2161,5.1749,5.1006,5.0279,4.9992,4.9962,4.954,4.9423,4.9409,4.9059,4.8991,4.9034,0.0,0.0,0.0,0.0,0.0,0.0,0.0,3.4127,3.5018,3.5898,3.7685,3.9309,4.0383,4.1657,4.3293,4.5401,4.6454,4.7441,4.8435,4.9689,5.0589,5.1036,5.3839,5.6683,5.9478,6.0859,6.2217,6.3599,6.5127,6.5688,6.5329,6.584,6.5637,6.4807,6.5302,6.5079,6.4302,6.436,6.2013,5.8093,5.6397,5.443,5.2198,0.0,0.0,0.0,0.0,0.0,0.0,0.0,0.0,0.0,0.0,0.0,0.0,0.0,0.0,0.0,0.0,0.0,0.0,0.0,0.0,0.0,0.0,0.0,0.0,0.0,0.0,0.0,0.0,0.0,0.0,0.0,0.0,0.0,4.5348,4.5796,4.6785,4.8311,4.9649,5.035,5.0029,5.0813,5.1348,5.1367,5.1507,5.1894,5.2611,5.299,5.311,5.2938,5.311,5.311,5.2903,5.2903,5.2903,5.2903,5.2903,5.2903,5.2903,5.2903,5.2903,5.2903,5.2903,5.2485,5.1731,5.1045,5.1162,5.1681,5.0623,5.0221,5.0306,5.0593,5.0043,4.9094,0.0,0.0,0.0,0.0,0.0,0.0,0.0,3.4376,3.5342,3.6293,3.8003,3.9532,4.0611,4.1825,4.343,4.5475,4.6321,4.7247,4.8495,4.9673,5.0897,5.2101,5.4221,5.6247,5.8104,6.0941,6.2596,6.31,6.469,6.5579,6.5741,6.588,6.6277,6.6815,6.6643,6.6767,6.6987,6.6353,6.5051,6.3079,5.9919,5.7276,5.5045,0.0,0.0,0.0,0.0,0.0,0.0,0.0,0.0,0.0,0.0,0.0,0.0,0.0,0.0,0.0,0.0,0.0,0.0,0.0,0.0,0.0,0.0,0.0,0.0,0.0,0.0,0.0,0.0,0.0,0.0,0.0,4.6687,4.6963,4.6483,4.8171,4.9645,5.0232,5.1298,5.2032,5.2059,5.2312,5.2636,5.2994,5.296,5.3095,5.3583,5.3567,5.3551,5.3467,5.3433,5.3382,5.3331,5.3195,5.3195,5.3314,5.3058,5.2972,5.311,5.2972,5.2903,5.2903,5.2903,5.2485,5.1765,5.1581,5.1614,5.1715,5.0894,5.0894,5.1295,5.0878,5.0175,4.9458,0.0,0.0,0.0,0.0,0.0,0.0,0.0,3.4397,3.511,3.5856,3.7456,3.8863,3.99,4.1182,4.2799,4.4796,4.545,4.6265,4.7512,4.8815,5.0413,5.2316,5.4271,5.6253,5.829,6.0747,6.2395,6.3274,6.448,6.5384,6.6005,6.5917,6.6389,6.725,6.6879,6.7083,6.7613,6.7339,6.675,6.5783,6.3622,6.0963,5.8221,5.7045,5.533,5.3339,5.22,5.08,4.9299,4.7997,0.0,0.0,0.0,0.0,0.0,0.0,0.0,0.0,0.0,0.0,0.0,0.0,0.0,0.0,0.0,0.0,0.0,0.0,0.0,0.0,0.0,0.0,0.0,0.0,4.8593,4.9158,4.9091,5.0213,5.1208,5.1732,5.248,5.3008,5.3213,5.3315,5.3484,5.3816,5.3717,5.3733,5.398,5.3882,5.3816,5.3816,5.3668,5.3568,5.3568,5.3399,5.3382,5.3501,5.3246,5.3195,5.3298,5.3195,5.3161,5.3161,5.3161,5.2724,5.2018,5.2101,5.2135,0.0,0.0,0.0,0.0,0.0,5.0691,4.9751,0.0,0.0,0.0,0.0,0.0,0.0,0.0,3.4189,3.4575,3.5135,3.646,3.7739,3.8754,3.9999,4.1567,4.3502,4.409,4.4892,4.6133,4.7445,4.9288,5.1665,5.3735,5.6076,5.8678,6.0105,6.1642,6.3359,6.4176,6.5073,6.6037,6.5952,6.6233,6.6805,6.6621,6.667,6.6928,6.7518,6.7291,6.6576,6.6601,6.4576,6.1442,6.027,5.8582,5.6658,5.5484,5.4128,5.2762,5.1349,0.0,0.0,0.0,0.0,0.0,0.0,0.0,0.0,0.0,0.0,0.0,0.0,0.0,0.0,0.0,0.0,0.0,0.0,0.0,0.0,0.0,0.0,0.0,0.0,5.049,5.1679,5.2169,5.1967,5.203,5.2889,5.3264,5.3534,5.3717,5.3882,5.403,5.4013,5.4013,5.4013,5.4063,5.4045,0.0,0.0,0.0,5.37,5.37,5.3618,5.3534,5.3534,5.3534,5.3534,5.3568,5.3534,5.3534,5.3568,5.3568,5.3161,5.2501,5.2699,5.2781,5.2731,5.2334,5.2573,5.3095,5.2451,5.1252,5.0008,0.0,0.0,0.0,0.0,0.0,0.0,0.0,3.3793,3.4526,3.5535,3.6296,3.7163,3.8424,3.9013,3.9942,4.1592,4.2381,4.3772,4.6206,4.6373,4.7431,4.9742,5.168,5.3512,5.5226,5.8141,5.9966,6.0659,6.289,6.4314,6.5003,6.5775,6.6374,6.6823,6.7196,6.6913,6.6186,6.7153,6.6654,6.5257,6.5329,6.4734,6.3677,6.2847,6.1573,5.9927,5.8213,5.7168,5.6381,5.4956,5.3343,5.1803,5.1182,4.9644,0.0,0.0,0.0,0.0,0.0,0.0,0.0,0.0,0.0,0.0,0.0,0.0,0.0,0.0,0.0,0.0,0.0,0.0,0.0,5.1195,5.1631,5.2101,5.3078,5.3163,5.3214,5.35,5.375,5.3882,5.3948,5.398,5.4045,5.4158,5.4175,5.4239,5.4367,5.4239,5.4175,5.4175,5.4013,5.3849,5.37,5.3833,5.3833,5.3651,0.0,0.0,5.3899,5.3717,5.375,5.3899,5.3899,5.3814,5.366,5.3693,5.3743,5.3642,5.3012,5.2844,5.2793,5.1444,5.0745,5.039,0.0,0.0,0.0,0.0,0.0,0.0,0.0,3.327,3.3717,3.419,3.4815,3.5554,3.6502,3.7181,3.8042,3.9129,4.0448,4.2024,4.4006,4.4666,4.585,4.7769,4.9577,5.1123,5.2336,5.511,5.7175,5.8492,6.0168,6.1918,6.3712,6.4323,6.5057,6.5903,6.6286,6.6237,6.5928,6.6375,6.5841,6.4759,6.4804,6.4472,6.3959,6.3464,6.2464,6.1142,6.0103,5.9089,5.8109,5.6961,5.546,5.3984,5.3539,5.199,5.0225,0.0,0.0,0.0,0.0,0.0,0.0,0.0,0.0,0.0,0.0,0.0,0.0,0.0,0.0,4.8597,4.8807,0.0,5.0835,5.1647,5.2202,5.269,5.3247,5.35,5.3634,5.3667,5.3882,5.4013,5.411,5.4175,5.4271,5.4335,5.4335,5.4399,5.4512,5.4399,5.4335,5.4335,5.411,5.3777,5.3304,5.358,5.3547,5.3156,5.353,5.3816,5.3997,5.3882,5.371,5.34,5.34,5.34,5.34,5.3496,5.3386,5.3072,5.2695,5.2926,5.3329,5.2261,5.1562,5.1073,0.0,0.0,0.0,0.0,0.0,0.0,0.0,0.0,3.2816,3.2778,3.335,3.3981,3.457,3.537,3.616,3.6826,3.8517,4.0107,4.1341,4.2842,4.4308,4.5621,4.7352,4.8703,4.9592,5.177,5.3968,5.6059,5.7079,5.8984,6.172,6.2107,6.3043,6.4403,6.4724,6.5028,6.5271,6.537,6.4909,6.4099,6.4113,6.3617,6.2796,6.2541,6.2019,6.1289,6.0701,5.9705,5.8582,5.7739,5.6594,5.5409,5.498,5.3659,5.2161,5.1617,5.1403,0.0,0.0,0.0,0.0,0.0,0.0,0.0,0.0,4.9415,4.9491,4.9886,5.0187,5.038,5.0437,5.1242,5.1862,5.181,5.2518,5.311,5.3179,5.345,5.3702,5.3904,5.4,5.4078,5.419,5.4367,5.4512,5.4512,5.4512,5.4512,5.4512,5.4512,5.448,5.4448,5.4224,5.3772,5.3109,5.3478,5.3412,5.2931,5.3527,5.3915,5.4078,5.3892,5.3481,5.2931,5.2931,5.2846,5.2709,5.3083,5.2829,5.2218,5.2278,5.2853,5.358,5.2935,5.2234,5.1525,0.0,0.0,0.0,0.0,0.0,0.0,0.0,0.0,0.0,3.3039,3.323,3.3594,3.433,3.4366,3.461,3.5271,3.6806,3.827,3.9606,4.1324,4.2567,4.3101,4.4775,4.6034,4.6734,4.869,5.0594,5.2392,5.4331,5.6256,5.8186,5.9249,6.0611,6.2278,6.2967,6.3175,6.3127,6.4262,6.3785,6.23,6.2416,6.1542,6.0092,5.9631,6.0034,6.0649,5.8883,5.804,5.7678,5.7151,5.6422,5.5686,5.5189,5.4252,5.3095,5.2191,5.1625,5.1064,4.9995,5.0588,5.1603,5.2004,5.2612,5.322,0.0,5.319,5.2547,5.2348,5.2163,5.1912,5.1439,5.1885,5.2418,5.2717,5.2714,5.2799,5.3144,5.3213,5.3619,5.4567,5.4373,5.419,5.419,5.4367,5.4512,5.4512,5.4512,5.4512,5.4512,5.4512,5.4416,5.4239,5.4367,5.4269,5.3861,5.4205,5.4269,5.4006,5.4091,5.4239,5.4431,5.3567,5.3255,5.3329,5.3329,5.2932,5.233,5.3307,5.3121,5.2218,5.2535,5.2532,5.2312,5.1572,5.1244,5.1072,0.0,0.0,0.0,0.0,0.0,0.0,0.0,0.0,0.0,0.0,3.1434,3.1576,3.1953,3.2312,3.2777,3.3469,3.4707,3.5889,3.6993,3.877,4.0046,4.0652,4.1806,4.2792,4.3482,4.5196,4.699,4.8929,5.0886,5.29,5.5018,5.6606,5.8084,5.9381,6.0485,6.084,6.0707,6.1233,6.1046,6.0407,6.0505,5.9879,5.8781,5.8076,5.7662,5.7458,5.7179,5.6958,0.0,0.0,5.5815,5.5245,5.5434,5.4449,5.3121,5.282,5.2933,5.3229,5.3721,5.3656,5.3628,5.4303,5.4708,5.4899,5.4708,5.4376,5.3997,5.3707,5.3434,5.3078,5.2447,5.2424,5.2499,5.2428,5.2535,5.2659,5.2817,5.3059,5.3399,5.3957,5.3971,5.4184,5.4842,5.4529,5.4367,5.4512,5.4512,5.4512,5.4512,5.4512,5.4463,5.4367,5.4271,5.3969,5.3474,5.3855,5.3871,5.357,5.3984,5.408,5.3873,5.3914,5.3484,5.2718,5.2718,5.2119,5.1257,5.2589,5.2451,5.1394,5.1553,5.1412,5.1211,5.1605,5.1722,5.1619,0.0,0.0,0.0,0.0,0.0,0.0,0.0,0.0,0.0,0.0,0.0,3.0271,3.0357,3.0816,3.1309,3.1889,3.2922,3.3918,3.4764,3.6299,3.7509,3.8193,3.8757,3.9518,4.0487,4.1739,4.3463,4.5685,4.7311,4.9299,5.1558,5.3308,5.4854,5.6135,5.7589,5.831,5.8479,5.8597,5.8782,5.8994,5.8671,5.8206,5.7636,5.667,5.5546,5.454,5.5439,5.5585,0.0,0.0,5.4606,5.4253,5.4565,5.3803,5.2835,5.2908,5.3341,5.4119,5.5587,5.5529,5.5244,5.5964,5.6335,5.6372,5.5799,5.5478,5.5266,5.4977,5.4586,5.4058,5.3268,5.294,5.2625,5.2172,5.2302,5.2483,5.252,5.2817,5.3194,5.3669,5.3619,5.4006,5.5123,5.4621,5.4271,5.4416,5.448,5.4512,5.4512,5.4512,5.4463,5.4399,5.4257,5.3901,5.3415,5.3755,5.3755,5.3479,5.4029,5.3972,5.3408,5.3511,5.2856,5.1632,5.1998,5.1595,5.0708,5.234,5.2283,5.1169,5.1042,5.0833,5.0697,5.1571,5.1908,5.1808,0.0,0.0,0.0,0.0,0.0,0.0,0.0,0.0,0.0,0.0,0.0,0.0,0.0,3.0555,3.063,3.0823,3.1804,3.2767,3.3403,3.4379,3.5142,3.5695,3.5663,3.6404,3.7976,3.8517,4.0039,4.262,4.3861,4.5531,4.7588,4.8907,5.0587,5.2605,5.4241,5.556,5.6595,5.7058,5.7641,5.8135,5.7057,5.6451,5.6183,5.5238,5.3988,5.2863,5.354,0.0,0.0,5.2719,5.2613,5.2643,5.201,5.208,5.2371,5.205,5.2144,5.2608,5.3768,5.4861,5.5852,5.6577,5.7448,5.8065,5.7867,5.7236,5.6677,5.648,5.571,5.4756,5.3842,5.34,5.293,5.2218,5.2102,5.2158,5.2272,5.2483,5.3031,5.4153,5.3667,5.3636,5.472,5.444,5.419,5.4207,5.4399,5.4512,5.4512,5.4512,5.4399,5.4239,5.4367,5.4399,5.4173,5.4367,5.4463,5.4477,5.4463,5.4115,5.3356,5.1873,5.0804,5.0149,5.1597,5.1787,5.123,5.3016,5.3129,5.2093,5.1674,5.1309,5.108,5.1132,5.1149,5.1149,0.0,0.0,0.0,0.0,0.0,0.0,0.0,0.0,0.0,0.0,0.0,0.0,0.0,0.0,0.0,0.0,3.0317,3.0965,3.1359,3.2164,3.2867,3.3398,3.3224,3.3668,3.4895,3.5607,3.6865,3.8702,4.0759,4.2367,4.3513,4.5495,4.7304,4.889,5.0167,5.1441,5.2623,5.342,5.4143,5.4835,5.4818,5.4629,5.4297,5.3974,5.3101,5.2002,0.0,0.0,5.1915,5.1374,5.1287,5.1363,5.1269,5.1022,5.0947,5.1684,5.1987,5.258,5.4851,5.5461,5.5829,5.7169,5.7785,5.7991,5.7918,5.7695,5.7338,5.6648,5.5761,5.479,5.3859,5.3144,5.2511,5.1973,5.203,5.2086,5.2109,5.2272,5.2707,5.3498,5.3347,5.3382,5.389,5.4003,5.411,5.419,5.4367,5.4512,5.4512,5.4512,5.448,5.4399,5.4335,5.4335,5.4399,5.4335,5.4367,5.4494,5.4011,5.3908,5.408,5.2546,5.1994,5.2287,5.2787,5.2684,5.224,5.3366,5.3403,5.2759,5.2612,5.2067,5.1442,5.1963,5.1724,5.1183,0.0,0.0,0.0,0.0,0.0,0.0,0.0,0.0,0.0,0.0,0.0,0.0,0.0,0.0,0.0,0.0,0.0,2.9767,3.0022,3.0305,3.0753,3.1288,3.0741,3.1021,3.2227,3.2737,3.3812,3.5573,3.771,3.9173,4.0028,4.2237,4.3903,4.5156,4.6639,4.797,4.916,5.0196,5.1181,5.2018,5.2048,5.2352,5.2772,5.2334,5.1846,0.0,0.0,0.0,5.1104,5.0562,5.0421,5.0389,5.0124,5.0014,5.015,5.1119,5.1663,5.2455,5.4636,5.5099,5.5368,5.7012,5.7384,5.7487,5.7741,5.7735,5.749,5.6908,5.6054,5.5118,5.4259,5.3307,5.2528,5.2066,5.2106,5.2178,5.2109,5.2343,5.2677,5.3041,5.3144,5.3298,5.3551,5.3833,5.4045,5.411,5.4367,5.4512,5.4512,5.4512,5.4512,5.4512,5.4367,5.4367,5.4512,5.4367,5.4367,5.4494,5.3753,5.3649,5.4063,5.2787,5.2494,5.2994,5.3287,5.3237,5.3021,5.3736,5.3857,5.3567,5.3305,5.277,5.2223,5.2448,5.2075,5.1498,0.0,0.0,0.0,0.0,0.0,0.0,0.0,0.0,0.0,0.0,0.0,0.0,0.0,0.0,0.0,0.0,0.0,0.0,2.9292,2.8872,2.8903,2.9463,2.8375,2.8437,2.9964,2.9931,3.0963,3.3128,3.4562,3.5902,3.7088,3.8954,4.0409,4.1566,4.3568,4.5132,4.6238,4.7486,4.8711,4.9739,4.8845,4.9727,5.1457,5.0303,0.0,0.0,0.0,5.1333,5.0955,5.0287,5.0013,4.9754,4.8672,4.9031,4.9955,5.037,5.114,5.2152,5.3182,5.3849,5.4574,5.6037,5.639,5.6595,5.7352,5.7355,5.7189,5.7222,5.645,5.5551,5.4852,5.3881,5.297,5.2387,5.2272,5.2272,5.2272,5.2607,5.2868,5.2903,5.3076,5.3349,5.3684,5.3882,5.4013,5.4013,5.4303,5.4512,5.4512,5.4512,5.4512,5.4512,5.4512,5.4512,5.4512,5.4512,5.4512,5.4494,5.3787,5.3442,5.3391,5.2666,5.2291,5.2321,5.3115,5.346,5.3511,5.4218,5.4512,5.4443,5.3701,5.3373,5.3253,5.2494,5.217,5.2033,0.0,0.0,0.0,0.0,0.0,0.0,0.0,0.0,0.0,0.0,0.0,0.0,0.0,0.0,0.0,0.0,0.0,0.0,2.8276,2.7964,2.7733,2.767,2.7201,2.7071,2.7491,2.7898,2.8648,2.9829,3.1627,3.2823,3.3397,3.5061,3.6625,3.8122,3.9641,4.1221,4.2846,4.4696,4.5699,4.6207,4.6899,4.773,4.8559,0.0,0.0,0.0,5.1221,5.1528,5.1379,5.091,5.0191,4.9374,4.8729,4.8949,4.9517,4.9955,5.0448,5.1189,5.2581,5.3074,5.3473,5.4712,5.5018,5.5238,5.6137,5.587,5.5599,5.6146,5.5192,5.417,5.3805,5.3119,5.2517,5.2191,5.2158,5.2158,5.2158,5.234,5.2572,5.2868,5.3076,5.3349,5.3684,5.3882,5.4045,5.4143,5.4385,5.4512,5.4512,5.4512,5.4512,5.4512,5.4512,5.4512,5.4512,5.4512,5.4512,5.4512,5.4322,5.3942,5.3408,5.377,5.3615,5.3149,5.3891,5.4236,5.4236,5.4425,5.4512,5.4443,5.3701,5.3046,5.2494,5.2274,5.1843,5.1343,0.0,0.0,0.0,0.0,0.0,0.0,0.0,0.0,0.0,0.0,0.0,0.0,0.0,0.0,0.0,0.0,0.0,0.0,0.0,2.7314,2.7107,2.6836,2.6554,2.6445,2.6618,2.6686,2.7216,2.814,2.974,3.0854,3.1401,3.3098,3.4723,3.6151,3.7389,3.8813,4.0374,4.2249,4.3341,0.0,0.0,0.0,0.0,0.0,0.0,4.9339,5.0305,5.1224,5.185,5.1333,5.0537,4.9705,4.9408,4.9581,4.9854,4.9928,5.0142,5.0541,5.1308,5.1609,5.1961,5.3187,5.3405,5.3656,5.4757,5.4646,5.4406,5.4927,5.4175,5.3453,5.3291,5.2801,5.2489,5.2752,5.2536,5.2454,5.2876,5.2805,5.2782,5.3007,5.3195,5.3467,5.3816,5.3915,5.4078,5.4303,5.4448,5.4512,5.4512,5.4512,5.4512,5.4512,5.4512,5.4512,5.4512,5.4512,5.4512,5.4512,5.4512,5.4287,5.3891,5.3977,5.3977,5.3891,0.0,5.4029,5.4029,5.4029,5.3822,5.346,5.3046,5.2615,5.2222,5.2615,5.2252,5.1597,0.0,0.0,0.0,0.0,0.0,0.0,0.0,0.0,0.0,0.0,0.0,0.0,0.0,0.0,0.0,0.0,0.0,0.0,0.0,0.0,2.6919,2.6555,2.6318,2.6245,2.6364,2.6,2.6324,2.7371,2.834,2.9289,3.0193,3.1843,3.3389,3.4774,3.5897,3.7156,3.852,4.028,4.1488,4.2331,4.2916,4.4229,0.0,0.0,0.0,4.8478,4.9151,5.0513,5.1864,5.1466,5.09,5.0411,5.0275,5.0314,5.0303,5.0016,4.9921,4.9936,4.9787,4.9908,5.0326,5.1556,5.1717,5.1949,5.3318,5.3416,5.3345,5.3744,5.3309,5.2897,5.2864,5.2514,5.2495,5.3235,5.2938,5.2857,5.372,5.3461,5.3179,5.3195,5.3382,5.3618,5.3965,5.398,5.4143,5.448,5.4512,5.4512,5.4512,5.4512,5.4512,5.4512,5.4425,5.4408,5.4512,5.4512,5.4512,5.4512,5.4512,5.446,5.4339,5.3787,5.3787,5.4184,5.3736,5.3442,5.3253,5.3356,5.2942,5.217,5.2084,5.2033,5.2136,5.2808,5.2636,5.2002,0.0,0.0,0.0,0.0,0.0,0.0,0.0,0.0,0.0,0.0,3.2104,3.1294,0.0,0.0,0.0,0.0,0.0,0.0,0.0,0.0,0.0,2.6381,2.6454,2.6063,2.5154,2.5223,2.5564,2.6009,2.6399,2.7004,2.7885,2.8833,3.0234,3.2145,3.3658,3.5238,3.6836,3.9017,4.0129,4.0556,4.179,4.2801,0.0,0.0,0.0,0.0,4.8314,4.9449,5.0199,5.1011,5.1221,5.0978,5.0208,4.9632,4.9321,4.9368,4.9067,4.8701,4.9015,4.9091,4.9284,4.9883,4.9994,5.0382,5.1878,5.1742,5.1691,5.3058,5.23,5.1449,5.1574,5.1545,5.1547,5.1698,5.213,5.2513,5.2807,5.2917,5.3007,5.3179,5.3382,5.3618,5.3965,5.398,5.4143,5.448,5.4512,5.4512,5.4512,5.4512,5.4512,5.4512,5.3908,5.3891,5.4494,5.4512,5.4512,5.4512,5.4512,5.4184,5.3615,5.4098,5.3684,5.2653,5.3822,0.0,5.2477,5.3132,5.2942,5.2136,5.1545,5.1304,5.1291,5.1309,5.1262,5.1094,0.0,0.0,0.0,0.0,0.0,0.0,0.0,3.4181,3.4188,3.3557,3.3123,3.2508,3.1527,3.0998,3.0463,0.0,0.0,0.0,0.0,0.0,0.0,0.0,0.0,0.0,2.5822,2.573,2.5636,2.5603,0.0,2.6808,2.7329,2.8767,3.0119,3.139,3.3255,3.4706,3.5819,3.8011,3.9185,3.9646,4.105,4.2027,0.0,0.0,0.0,0.0,4.7692,4.8665,4.9179,5.0004,5.026,5.0365,5.0953,5.0455,4.9642,4.9369,4.8648,4.7916,4.7882,4.7861,4.7946,4.8464,4.8728,4.9216,5.0239,5.0499,5.0759,5.181,5.1614,5.127,5.1379,5.1246,5.1423,5.2274,5.2113,5.2306,5.3337,5.3224,5.3127,5.3348,5.3433,5.3584,5.3816,5.3948,5.4078,5.4335,5.4448,5.4512,5.4512,5.4512,5.4512,5.4512,5.4167,5.4149,5.4512,5.4512,5.4512,5.4512,5.4512,5.4322,5.3977,5.3942,5.3449,5.2698,5.3043,5.2561,5.1563,5.1941,5.1709,5.0998,5.056,5.0393,5.0398,5.0768,5.0922,5.0892,0.0,0.0,0.0,0.0,0.0,0.0,0.0,3.429,3.4382,3.3995,3.4105,3.3827,3.2717,3.1821,3.1052,0.0,0.0,0.0,0.0,0.0,0.0,0.0,0.0,0.0,0.0,0.0,0.0,2.5559,2.6234,0.0,0.0,0.0,0.0,0.0,3.3256,3.4539,3.5326,3.7368,3.8556,0.0,0.0,4.1501,0.0,0.0,0.0,0.0,0.0,4.7425,4.7944,4.8684,4.891,4.9194,5.1046,5.0789,4.9672,4.9149,4.8223,4.7288,4.6889,4.6785,4.6961,4.7457,4.7827,4.8275,4.9073,4.966,5.0175,5.0689,5.1032,5.1197,5.1271,5.109,5.1361,5.2663,5.2196,5.2227,5.3798,5.3531,5.3264,5.3467,5.3501,5.3551,5.3684,5.3849,5.4013,5.4207,5.4367,5.4512,5.4512,5.4356,5.4339,5.4512,5.4356,5.4339,5.4512,5.4512,5.4512,5.4512,5.4512,5.4512,5.4494,5.3908,5.338,5.2894,5.2434,5.1644,0.0,5.1025,5.0673,4.9982,5.0002,5.0007,5.0064,5.0682,5.1008,5.1115,0.0,0.0,0.0,0.0,0.0,0.0,0.0,3.3863,3.4845,3.5025,3.5082,3.4969,3.4567,3.3565,3.239,0.0,0.0,0.0,0.0,0.0,0.0,0.0,0.0,0.0,0.0,0.0,0.0,2.5689,2.5379,0.0,0.0,0.0,0.0,0.0,0.0,3.4171,3.5596,3.7326,0.0,0.0,0.0,0.0,0.0,0.0,0.0,0.0,0.0,4.5189,4.5657,4.7209,4.7596,4.7653,4.9119,4.8895,4.8105,4.8045,4.7392,4.6624,4.6314,4.6447,4.6771,4.7362,4.745,4.7746,4.9174,4.9435,4.9582,5.037,5.037,5.0285,5.0485,5.0638,5.0854,5.118,5.1787,5.24,5.2952,5.3126,5.3264,5.3467,5.3501,5.3551,5.3684,5.3717,5.3882,5.4175,5.4367,5.4512,5.4512,5.3873,5.3822,5.4494,5.3856,5.3822,5.4494,5.4512,5.4512,5.4512,5.4512,5.4512,5.4512,5.4443,5.3601,5.2326,5.2791,5.1894,0.0,5.1382,5.1137,5.0062,5.0723,5.0981,5.0952,5.0918,5.1304,5.1888,0.0,0.0,0.0,0.0,0.0,0.0,3.2468,3.3716,3.4614,3.4718,3.5289,3.5443,3.4867,3.4697,3.4053,3.2588,0.0,0.0,0.0,0.0,0.0,0.0,0.0,0.0,0.0,0.0,2.5624,2.5395,2.5191,0.0,0.0,0.0,0.0,0.0,0.0,3.4102,3.5183,3.6781,0.0,0.0,0.0,0.0,0.0,0.0,0.0,0.0,0.0,0.0,4.5043,4.602,4.6289,4.6318,4.7168,4.708,4.6828,4.7524,4.7081,4.6402,4.6512,4.6523,4.6596,4.698,4.7256,4.7525,4.8013,4.8607,4.9178,4.9661,5.0069,5.0391,5.0467,5.0595,5.09,5.1506,5.1361,5.1557,5.2751,5.2689,5.2741,5.3247,5.3433,5.3534,5.3584,5.3651,5.3832,5.4158,5.3874,5.3917,5.4477,5.4236,5.4201,5.4494,5.4218,5.3994,5.3839,5.3839,5.3839,5.3839,5.3839,5.408,5.4512,5.4512,5.359,5.1977,5.2207,5.1254,0.0,5.0227,5.0245,4.9848,5.014,5.026,5.0312,5.0734,5.1111,5.139,0.0,0.0,0.0,0.0,0.0,3.1178,3.1811,3.3208,3.4129,3.4073,3.5061,3.558,3.5113,3.545,3.5253,3.414,3.2631,0.0,0.0,0.0,0.0,0.0,0.0,0.0,0.0,0.0,2.5569,2.534,2.5174,2.545,0.0,0.0,2.8953,2.9998,0.0,0.0,0.0,0.0,0.0,0.0,0.0,0.0,0.0,0.0,0.0,0.0,0.0,0.0,0.0,0.0,0.0,4.5367,4.5956,4.6001,4.6058,4.6946,4.6665,4.6148,4.628,4.6258,4.6316,4.655,4.6922,4.7273,4.736,4.8098,4.8769,4.9031,4.9821,5.0393,5.0393,5.0655,5.1099,5.1809,5.1175,5.1006,5.2296,5.2252,5.2287,5.2825,5.3028,5.3247,5.3484,5.3668,5.378,5.3785,5.3398,5.3441,5.4038,5.3928,5.4046,5.4494,5.4512,5.4149,5.3408,5.3408,5.3408,5.3408,5.3408,5.3684,5.4184,5.4184,5.3201,5.1511,5.148,5.0605,0.0,4.9636,4.9753,4.9725,4.9965,5.0081,5.0179,5.0729,5.1258,5.1722,0.0,0.0,0.0,0.0,0.0,0.0,3.0256,3.2174,3.3557,3.3335,3.4416,3.5319,3.5573,3.5837,3.5947,3.5898,3.3859,0.0,0.0,0.0,0.0,0.0,0.0,0.0,0.0,0.0,2.5688,2.5679,2.509,2.5238,2.6145,2.7286,2.8562,3.0016,0.0,0.0,0.0,0.0,0.0,0.0,0.0,0.0,0.0,0.0,0.0,0.0,0.0,0.0,0.0,0.0,0.0,0.0,0.0,4.588,4.5925,4.6135,4.606,4.579,4.5276,4.5518,4.5949,4.6078,4.6359,4.6816,4.7704,4.8119,4.837,4.8578,4.9446,5.0198,5.0198,5.0771,5.1333,5.1741,5.1352,5.1123,5.1472,5.1866,5.2101,5.2101,5.2217,5.2638,5.3416,5.38,5.3673,5.2887,5.3186,5.3329,5.3138,5.2557,5.2912,5.446,5.4512,5.4149,5.3408,5.3408,5.3408,5.3408,5.3408,5.3408,5.3408,5.3408,5.2488,5.0892,5.0707,5.0201,0.0,5.0124,5.011,4.9777,5.0566,5.0965,5.1097,5.1097,5.208,5.3391,0.0,0.0,0.0,0.0,0.0,0.0,0.0,3.1188,3.2497,3.2936,3.4041,3.4815,3.5008,3.5613,3.5868,3.5474,3.4096,0.0,0.0,0.0,0.0,0.0,0.0,0.0,0.0,0.0,2.6462,2.5962,2.5183,2.5008,2.5496,2.61,2.7232,2.8807,3.0865,3.2645,0.0,0.0,0.0,0.0,0.0,0.0,4.2338,0.0,0.0,0.0,0.0,0.0,0.0,0.0,0.0,0.0,0.0,0.0,0.0,4.5911,4.6046,4.6193,4.6463,4.6534,4.6623,4.6964,4.7134,4.7229,4.7199,4.7673,4.8133,4.8175,4.9056,4.9821,4.9995,5.0672,5.1296,5.1536,5.0834,5.0639,5.1735,5.1477,5.1514,5.2537,5.2944,5.3247,5.36,5.3717,5.3591,5.3046,5.2657,5.2475,5.2471,5.1843,5.2088,5.351,5.3139,5.255,5.1839,5.1839,5.1839,5.1839,5.1839,5.2097,5.2597,5.2597,5.1972,5.0922,5.0845,5.0249,0.0,4.9744,4.9783,4.9624,5.0106,5.0297,5.0424,5.0925,5.1752,5.2567,0.0,0.0,0.0,0.0,0.0,0.0,0.0,3.0244,3.1274,3.1728,3.2994,3.4002,3.4233,3.5224,3.5714,3.5392,3.4817,0.0,0.0,0.0,0.0,0.0,0.0,0.0,2.8452,2.7503,2.6763,2.6343,2.5539,2.5215,2.5263,2.5833,2.6673,2.7854,2.9796,3.166,0.0,0.0,0.0,0.0,0.0,0.0,4.2749,0.0,0.0,0.0,0.0,0.0,0.0,0.0,0.0,0.0,0.0,0.0,0.0,0.0,4.6225,4.6402,4.6646,4.6718,4.6779,4.7109,4.7288,4.7392,4.7195,4.7666,4.8133,4.8133,4.8908,4.9677,4.9876,5.0333,5.0859,5.1524,5.0602,5.0237,5.1616,5.1356,5.1313,5.2101,5.2471,5.2687,5.2835,5.3205,5.3214,5.2729,5.231,5.1976,5.1683,5.102,5.1146,5.2197,5.2213,5.1843,5.1114,5.1114,5.1114,5.1114,5.1114,5.1356,5.1774,5.1774,5.13,5.0429,5.0386,0.0,0.0,4.9441,4.95,4.9518,4.9801,4.9935,5.0062,5.0528,5.0994,5.136,0.0,0.0,0.0,0.0,0.0,0.0,0.0,2.9341,3.0035,2.9919,3.1619,3.2965,3.3254,3.4626,3.5507,3.5557,0.0,0.0,0.0,0.0,0.0,0.0,0.0,0.0,2.9109,2.765,2.6862,2.6816,2.6162,2.5717,2.5461,2.6198,2.6733,2.7067,2.893,3.0779,0.0,0.0,0.0,0.0,4.0808,4.2085,0.0,0.0,0.0,0.0,0.0,0.0,0.0,0.0,0.0,0.0,0.0,0.0,0.0,0.0,0.0,0.0,0.0,4.6328,4.6639,4.6683,4.699,4.7381,4.7596,4.8007,0.0,4.8328,4.9015,4.9677,4.9876,4.985,5.0198,5.1488,5.0468,4.992,5.1047,5.1355,5.1362,5.1058,5.1137,5.1314,5.1522,5.2362,5.264,5.2004,5.2092,5.1765,5.0819,5.0268,5.0216,5.0721,5.1563,5.1688,5.1045,5.1028,5.1028,5.1028,5.1028,5.1028,5.1028,5.1028,5.0543,0.0,4.956,0.0,0.0,4.9229,4.9286,4.9402,4.9602,4.9767,4.9895,4.9947,4.9964,4.9964,0.0,0.0,0.0,0.0,0.0,0.0,0.0,0.0,0.0,0.0,3.1273,3.2309,3.2913,3.3981,3.4759,0.0,0.0,0.0,0.0,0.0,0.0,0.0,0.0,0.0,2.9948,2.9115,2.8349,2.7696,2.6616,2.6026,2.576,2.551,2.5923,2.69,2.811,3.0482,0.0,0.0,0.0,0.0,4.0035,4.1421,0.0,0.0,0.0,0.0,4.5911,4.5977,0.0,0.0,0.0,0.0,0.0,0.0,0.0,0.0,4.7332,4.7806,4.7327,0.0,4.7164,4.7337,4.7581,4.7852,0.0,4.837,4.8744,4.8578,4.9235,4.9876,5.0097,4.9812,4.9829,5.0599,4.9608,4.9148,5.0234,5.0827,5.1159,5.1348,5.1427,5.1554,5.185,5.2598,5.2557,5.1387,5.186,5.1619,5.0263,4.9916,4.9823,4.9965,5.0167,5.029,5.0269,5.0269,5.0269,5.0269,5.0269,5.0269,5.0269,5.0269,5.0137,4.9935,0.0,0.0,4.9428,4.9428,4.904,4.8503,4.9248,4.9235,4.8883,4.9519,4.9696,4.9538,0.0,0.0,0.0,0.0,0.0,0.0,0.0,0.0,0.0,0.0,0.0,0.0,0.0,0.0,0.0,0.0,0.0,0.0,0.0,0.0,0.0,0.0,0.0,3.1789,3.1114,2.9959,2.9131,2.8606,2.7721,2.6994,2.6473,2.6318,2.638,2.6749,2.8427,3.0837,3.3746,3.5549,3.6931,3.8046,3.9213,0.0,0.0,0.0,0.0,0.0,4.6432,4.6606,0.0,4.6681,4.678,4.6959,0.0,0.0,0.0,0.0,4.775,4.8151,4.8235,4.7951,4.7681,4.788,4.8091,4.8328,4.8537,4.8908,4.9235,4.9194,4.9661,5.0097,5.0315,5.0041,5.0063,5.0884,5.0309,5.005,5.0842,5.0742,5.0695,5.0915,5.072,5.0806,5.1442,5.1867,5.1812,5.1136,5.1476,5.1218,5.0062,4.9813,4.9708,4.9708,4.9708,4.9737,4.986,4.9964,5.0011,5.0011,5.0011,5.0011,5.0011,5.0011,5.0011,4.9982,0.0,0.0,4.8975,4.8899,4.8367,4.7695,4.8626,4.859,4.8083,4.8819,4.8648,4.798,0.0,0.0,0.0,0.0,0.0,0.0,0.0,0.0,0.0,0.0,0.0,0.0,0.0,0.0,0.0,0.0,0.0,0.0,0.0,0.0,0.0,0.0,3.2929,3.235,3.2242,3.0742,2.9812,2.9566,2.8993,2.8262,2.7358,2.7673,2.7452,2.6891,2.9313,3.1384,3.3231,3.4874,3.6373,3.7709,3.8452,0.0,0.0,0.0,0.0,0.0,0.0,0.0,0.0,4.7307,4.7234,4.7347,4.7807,0.0,0.0,0.0,0.0,0.0,4.9078,4.8909,4.8634,4.8634,4.885,4.9089,4.9431,4.9676,4.9876,4.9955,5.0214,5.0448,5.0624,5.0381,5.0477,5.1589,5.1491,5.1393,5.1714,5.0832,5.0193,5.0195,4.9803,4.9864,5.0682,5.0867,5.0931,5.0929,5.1045,5.0787,5.0045,4.9813,4.9708,4.9708,4.9708,4.9627,4.9507,4.9837,5.0011,5.0011,5.0011,5.0011,5.0011,4.9844,4.9809,4.9763,0.0,0.0,4.8177,4.7967,4.7466,4.6889,4.78,4.7762,4.7312,4.7933,4.733,4.6182,0.0,0.0,0.0,0.0,0.0,0.0,0.0,0.0,0.0,0.0,0.0,0.0,0.0,0.0,0.0,0.0,0.0,0.0,0.0,0.0,0.0,3.468,3.4056,3.3455,3.2954,3.2177,3.1492,3.0831,3.0063,2.9204,2.8394,2.823,2.8161,2.827,3.0301,3.1639,3.2483,3.4065,3.5381,3.6617,3.8104,0.0,0.0,0.0,0.0,0.0,0.0,0.0,0.0,4.6912,4.7006,4.7141,4.7543,0.0,0.0,0.0,0.0,0.0,5.0207,5.0695,5.1226,5.0499,5.0596,5.0809,5.0461,5.0628,5.0778,5.0486,5.0886,5.1355,5.1492,5.0884,5.0625,5.1431,5.1346,5.1085,5.0716,5.0567,5.0342,4.9859,4.9718,4.9789,5.0107,5.0705,5.0826,5.0218,5.0752,5.0787,5.0045,4.9813,4.9708,4.9708,4.9708,4.9358,4.8624,4.9521,5.0011,5.0011,5.0011,5.0011,4.9976,4.9177,4.881,4.8776,0.0,4.7321,4.7202,4.7073,4.6544,4.5969,4.6743,4.6603,4.6072,4.6918,4.6617,4.5772,0.0,0.0,0.0,0.0,0.0,0.0,0.0,0.0,0.0,0.0,0.0,0.0,0.0,0.0,0.0,0.0,0.0,0.0,0.0,0.0,3.5601,3.5673,3.5278,3.474,3.3916,3.3182,3.2656,3.2346,3.1731,3.0958,3.0015,2.9537,2.9634,3.0222,3.0543,3.1171,3.2045,3.3036,3.4087,3.5233,0.0,0.0,0.0,0.0,0.0,0.0,0.0,0.0,0.0,0.0,4.7428,4.7443,4.8278,0.0,0.0,0.0,0.0,0.0,5.0874,5.1781,5.2701,5.2635,5.2451,5.2181,5.2061,5.2417,5.2611,5.1913,5.2128,5.2347,5.205,5.1776,5.1829,5.2572,5.2184,5.1804,5.1831,5.122,5.0708,5.0467,5.0101,4.9918,5.0092,5.0362,5.0402,5.0126,5.0333,5.0373,5.0028,4.9813,4.9708,4.9708,4.9708,4.9524,4.9093,4.9583,4.9389,4.8524,4.8524,4.8747,4.9095,4.8295,4.81,4.8431,0.0,4.6765,4.6408,4.6252,4.5811,4.5303,4.6021,4.5909,4.5365,4.5677,4.5507,4.5094,0.0,0.0,0.0,0.0,0.0,0.0,0.0,0.0,0.0,0.0,0.0,0.0,0.0,0.0,0.0,0.0,0.0,0.0,0.0,0.0,3.549,3.6202,3.5944,3.5607,3.5192,3.445,3.3974,3.3768,3.3417,3.2698,3.1694,3.126,3.1318,3.1809,3.1136,3.1186,3.188,3.2407,3.3163,3.412,0.0,0.0,0.0,0.0,0.0,0.0,0.0,0.0,0.0,0.0,0.0,0.0,0.0,0.0,0.0,5.0143,5.0582,5.0993,5.1694,5.2644,5.3574,5.4189,5.3795,5.3383,5.3678,5.3765,5.3643,5.3185,5.3045,5.2947,5.2566,5.2696,5.3076,5.3716,5.324,5.2927,5.3249,5.2295,5.1481,5.1178,5.0702,5.0316,5.0166,5.0109,5.008,5.0149,5.0051,5.0011,5.0011,4.986,4.9784,4.9784,4.9784,4.9652,4.9451,4.9451,4.8809,4.7592,4.7563,4.7871,4.8401,4.7432,4.7404,4.807,4.6912,4.6141,4.5597,4.549,4.5179,4.4816,4.5365,4.5314,4.4886,4.4776,4.4709,4.4626,0.0,0.0,0.0,0.0,0.0,0.0,0.0,0.0,0.0,0.0,0.0,0.0,0.0,0.0,0.0,0.0,0.0,0.0,0.0,0.0,3.5356,3.5635,3.5412,3.574,3.683,3.6542,3.5889,3.4885,3.4666,3.4115,3.3228,3.3228,3.2951,3.2624,3.2942,3.2652,3.1919,3.2616,3.3163,3.3767,3.4947,0.0,0.0,0.0,0.0,0.0,0.0,0.0,0.0,0.0,0.0,0.0,0.0,0.0,5.0432,5.0685,5.1648,5.267,5.2975,5.3459,5.3957,5.439,5.4298,5.4295,5.4991,5.3779,5.2741,5.3465,5.3102,5.2761,5.3093,5.3399,5.3733,5.4091,5.4267,5.4198,5.3875,5.3744,5.3075,5.1471,5.1414,5.1107,5.0109,5.012,5.0149,5.0022,5.0011,5.0011,5.0011,4.9982,4.9982,4.9982,4.9982,4.9562,4.8695,4.8678,4.8627,4.8495,4.8396,4.8413,4.8529,4.6783,4.6516,4.7278,4.5518,4.4733,4.4682,4.4682,4.4649,4.4615,4.4666,4.4677,4.4626,4.4626,4.4682,4.4776,0.0,0.0,0.0,0.0,0.0,0.0,0.0,0.0,0.0,0.0,0.0,0.0,0.0,0.0,0.0,0.0,0.0,0.0,0.0,3.5512,3.572,3.6306,3.6064,3.6548,3.7786,3.7194,3.6748,3.6615,3.5841,3.518,3.4652,3.4652,3.4543,3.4299,3.381,3.3206,3.2569,3.2392,3.2704,3.3459,3.4427,3.6175,0.0,0.0,0.0,0.0,0.0,0.0,0.0,0.0,4.9107,4.9725,5.023,5.0541,5.0778,5.1285,5.2121,5.2856,5.2851,5.3522,5.4262,5.4186,5.405,5.4219,5.5414,5.5402,5.5039,5.4639,5.5026,5.5191,5.45,5.4189,5.4126,5.4494,5.4543,5.4534,5.4578,5.4204,5.3652,5.3001,5.2021,5.1315,5.1026,5.0443,5.0109,5.012,5.0051,5.0011,5.0011,5.0011,5.0011,5.0011,5.0011,4.9844,4.9476,4.9371,4.9056,4.8592,4.7986,4.7734,4.7695,4.6538,4.6231,4.6498,4.5346,4.4858,4.4831,4.4748,4.4776,4.4831,4.4765,4.472,4.4709,4.4626,4.4626,4.4682,0.0,0.0,0.0,0.0,0.0,0.0,0.0,0.0,0.0,0.0,0.0,0.0,0.0,0.0,0.0,0.0,0.0,0.0,3.5872,3.5764,3.5985,3.6501,3.6431,3.6995,3.8313,3.7814,3.763,3.783,3.6833,3.6154,3.5823,3.5884,3.5763,3.5329,3.4662,3.4,3.3323,3.2813,3.2827,3.3304,3.4146,3.5578,0.0,0.0,0.0,0.0,0.0,0.0,0.0,0.0,4.9134,5.0167,5.0682,5.1026,5.1285,5.1778,5.2302,5.2811,5.318,5.3598,5.3961,5.4272,5.3868,5.3864,5.5369,5.5847,5.5877,5.5737,5.5922,5.586,5.4986,5.4329,5.4086,5.4447,5.462,5.4838,5.5131,5.4707,5.4201,5.3636,5.2585,5.172,5.1268,5.0564,5.0149,5.0189,5.008,5.0011,5.0011,5.0011,5.0011,5.0011,5.0011,5.0011,5.0011,4.9784,4.9497,4.9028,4.838,4.7752,4.7199,4.6458,4.6088,4.6071,4.5302,4.5005,4.4978,4.4913,4.4913,4.4978,4.4858,4.4803,4.4776,4.4654,4.4643,4.4654,0.0,0.0,0.0,0.0,0.0,0.0,0.0,0.0,0.0,0.0,0.0,0.0,0.0,0.0,0.0,0.0,0.0,0.0,3.5657,3.586,3.6015,3.6015,3.6234,3.7035,3.8375,3.8611,3.8635,3.8412,3.7732,3.7194,3.6697,3.6982,3.6531,3.5499,3.5595,3.5016,3.4103,3.3882,3.3678,3.3437,3.4075,3.4917,3.6013,0.0,0.0,0.0,0.0,0.0,0.0,0.0,4.8606,5.0512,5.0656,5.1366,5.2102,5.2102,5.2247,5.2776,5.4369,5.3756,5.3042,5.4692,5.3991,5.3358,5.5011,5.4705,5.4587,5.6672,5.5468,5.4063,5.4175,5.3782,5.3531,5.3848,5.462,5.5277,5.5478,5.5507,5.487,5.3102,5.3088,5.2446,5.06,5.0415,5.0341,5.0217,5.008,5.0011,5.0011,5.0011,5.0011,5.0011,5.0011,5.0011,4.9993,4.9784,4.9784,4.9993,4.9767,4.886,4.7273,4.6475,4.6116,4.6048,4.533,4.5005,4.5005,4.5005,4.5005,4.4978,4.4858,4.4803,4.4776,4.4654,4.4682,4.4776,0.0,0.0,0.0,0.0,0.0,0.0,0.0,0.0,0.0,0.0,0.0,0.0,0.0,0.0,0.0,0.0,0.0,0.0,3.5897,3.5968,3.592,3.5716,3.6512,3.7232,3.7829,3.8838,3.9256,3.9008,3.8286,3.7576,3.7008,3.6725,3.6202,3.5488,3.5264,3.5017,3.4804,3.4217,3.4351,3.4923,3.5087,3.5487,3.6217,0.0,0.0,0.0,0.0,0.0,0.0,0.0,0.0,0.0,5.0783,5.1431,5.1941,5.2161,5.3016,5.3957,5.436,5.4606,5.4745,5.4572,5.4377,5.4499,5.5411,5.5074,5.5196,5.7431,5.6413,5.5206,5.5493,5.4981,5.4426,5.4084,5.468,5.5277,5.5478,5.5507,5.5092,5.4028,5.3409,5.2634,5.149,5.0784,5.0341,5.0217,5.016,5.0092,5.0011,5.0011,5.0011,5.0011,5.0011,4.9735,4.9154,4.9108,4.885,4.8361,4.8333,4.8008,4.7437,4.7309,4.6577,4.5449,4.535,4.5291,4.5264,4.5194,4.5086,4.5005,4.4968,4.4886,4.482,4.4765,4.4709,4.4654,0.0,0.0,0.0,0.0,0.0,0.0,0.0,0.0,0.0,0.0,3.5254,0.0,0.0,0.0,0.0,0.0,0.0,0.0,0.0,3.6345,3.6374,3.6085,3.6981,3.7716,3.8252,3.9247,3.9795,3.9726,3.8792,3.785,3.706,3.6866,3.6418,3.5849,3.5847,3.5757,3.5582,3.5322,3.5276,3.5403,3.565,3.5823,3.6117,0.0,0.0,0.0,0.0,0.0,0.0,0.0,0.0,0.0,4.9491,5.0514,5.1408,5.1716,5.2685,5.3761,5.4077,5.4425,5.4751,5.499,5.5009,5.5144,5.5945,5.6321,5.6661,5.7441,5.664,5.5816,5.5767,5.5179,5.4593,5.4238,5.4875,5.5425,5.5507,5.5507,5.5104,5.398,5.3385,5.2656,5.1553,5.0872,5.0425,5.0302,5.0246,5.016,5.0063,5.0022,4.9913,4.9734,4.9602,4.9137,4.8361,4.8305,4.8053,4.7606,4.7533,4.7333,4.7013,4.7186,4.6515,4.522,4.5344,4.5397,4.5397,4.53,4.522,4.514,4.5113,4.5005,4.4886,4.4831,4.4709,4.4649,0.0,0.0,0.0,0.0,0.0,0.0,0.0,0.0,0.0,0.0,3.5263,3.6009,0.0,0.0,0.0,0.0,0.0,0.0,0.0,0.0,3.7177,3.6897,3.7654,3.8429,3.9193,3.9807,4.0186,4.0358,3.9201,3.8087,3.7102,3.7224,3.6938,3.6374,3.6872,3.6823,3.6409,3.6721,3.6253,3.5462,3.6031,3.606,3.5857,3.6769,0.0,0.0,0.0,0.0,0.0,0.0,0.0,0.0,4.7378,4.8969,5.0599,5.0933,5.1706,5.2665,5.3755,5.375,5.389,5.5724,5.579,5.5667,5.6735,5.8027,5.8563,5.7095,5.6573,5.6125,5.5387,5.4817,5.4442,5.4354,5.5091,5.5666,5.5537,5.5507,5.4957,5.3394,5.3218,5.2604,5.1058,5.0729,5.0575,5.0397,5.0302,5.0183,5.0085,4.9959,4.9688,4.9159,4.8875,4.8344,4.7603,4.7492,4.7402,4.7305,4.7113,4.6764,4.6217,4.6463,4.6084,4.522,4.5344,4.5397,4.5371,4.5397,4.5397,4.5397,4.5274,4.514,4.4978,4.4858,4.4737,4.4699,0.0,0.0,0.0,0.0,0.0,0.0,0.0,0.0,0.0,0.0,0.0,0.0,0.0,0.0,0.0,0.0,0.0,0.0,0.0,0.0,3.7741,3.7518,3.8079,3.8689,3.9245,3.9837,3.9989,3.9765,3.9097,3.8506,3.8017,3.7361,3.6748,3.6195,3.6513,3.6652,3.6606,3.6306,3.6453,3.6948,3.6996,3.6666,3.6367,3.7281,3.6997,0.0,0.0,0.0,0.0,0.0,0.0,0.0,4.6901,4.8259,4.9414,5.0962,5.2042,5.3037,5.4157,5.477,5.5255,5.6012,5.6847,5.7675,5.8174,5.8614,5.8643,5.7747,5.7588,5.7226,5.5965,5.5634,5.5362,5.479,5.5252,5.5695,5.5666,5.5666,5.5085,5.3535,5.3369,5.2752,5.121,5.0927,5.0719,5.0415,5.0464,5.0091,4.9153,4.9221,4.892,4.8059,4.7986,4.7569,4.6855,4.68,4.649,0.0,4.5799,4.5713,4.5629,4.6134,4.5952,4.522,4.5344,4.5344,4.5247,4.5371,4.5397,4.5397,4.5371,4.5194,4.5005,4.4951,4.4803,4.4632,0.0,0.0,0.0,0.0,0.0,0.0,0.0,0.0,0.0,0.0,0.0,0.0,0.0,0.0,0.0,0.0,0.0,0.0,0.0,0.0,3.8692,3.8856,3.9145,3.9486,3.9878,4.0287,4.0465,4.0427,4.0027,3.938,3.8543,3.7766,3.7194,3.6884,3.729,3.732,3.703,3.703,3.7001,3.6992,3.6982,3.6785,3.6532,3.7031,3.6688,3.6004,3.6804,0.0,0.0,0.0,0.0,0.0,0.0,0.0,4.8004,4.9303,5.0545,5.1742,5.3061,5.3817,5.4649,5.6291,5.7634,5.8651,5.9132,5.9176,5.8919,5.8179,5.7794,5.7247,5.6234,5.6049,5.5801,5.5021,5.5094,5.5246,5.516,5.5056,5.4633,5.3528,5.3341,5.2725,5.1237,5.0972,5.0792,5.0509,5.0215,4.9767,4.908,4.8716,4.8179,4.74,4.7237,4.6803,4.6027,4.6044,4.5784,4.53,4.53,4.5274,4.5211,4.5589,4.5564,4.5203,4.5274,4.5274,4.5203,4.5327,4.5397,4.5397,4.5397,4.5238,4.5005,4.5005,4.5052,4.5162,0.0,0.0,0.0,0.0,0.0,0.0,0.0,0.0,0.0,0.0,0.0,0.0,0.0,0.0,0.0,0.0,0.0,0.0,0.0,0.0,0.0,4.0211,4.0275,4.0427,4.0643,4.0946,4.1235,4.1521,4.1272,4.0605,3.9501,3.8622,3.8095,3.7869,3.84,3.8222,3.7522,3.7724,3.7403,3.6787,3.6749,3.6669,3.66,3.6645,3.6406,3.6008,3.6508,3.6819,3.7241,3.8308,0.0,0.0,0.0,0.0,4.64,4.7287,4.8546,5.0002,5.1464,5.2431,5.3727,5.6449,5.7908,5.8815,5.9351,5.9258,5.8869,5.8279,5.7652,5.6972,5.6367,5.6235,5.5958,5.5176,5.5003,5.4899,5.4589,5.4552,5.4259,5.3503,5.3313,5.2687,5.1273,5.0998,5.0819,5.063,5.007,4.9534,4.9065,4.8348,4.7557,4.676,4.6496,4.6079,4.5406,4.5406,4.5327,4.523,4.523,4.5194,4.5059,4.5167,4.5194,4.5167,4.5167,4.5177,4.522,4.53,4.5371,4.5397,4.5397,4.5238,4.5022,4.5132,4.5399,4.5821,0.0,0.0,0.0,0.0,0.0,0.0,0.0,0.0,0.0,0.0,3.6569,3.6663,0.0,0.0,0.0,0.0,0.0,0.0,0.0,0.0,0.0,4.0782,4.1021,4.1172,4.1172,4.167,4.2079,4.236,4.2311,4.2305,4.2319,4.0767,3.9533,3.8592,3.8864,3.8617,3.7956,3.7133,3.7063,3.7401,3.6838,3.6601,3.6656,3.6868,3.6679,3.6279,3.6385,3.6744,3.7154,3.756,3.8851,0.0,0.0,0.0,4.4684,4.6369,4.7703,4.9004,5.0476,5.2464,5.4485,5.6115,5.7139,5.7876,5.8176,5.7806,5.7457,5.7644,5.7593,5.7318,5.6516,5.6373,5.6106,5.5303,5.5502,5.5518,5.4836,5.5199,5.5047,5.3722,5.3462,5.2835,5.1414,5.1052,5.0819,5.063,5.0686,4.9948,4.8164,4.8089,4.7324,4.5683,4.5579,4.55,4.5397,4.5397,4.5397,4.5371,4.5371,4.5371,4.5344,4.5247,4.514,4.5032,4.5032,4.5086,4.5203,4.522,4.53,4.5397,4.5397,4.5238,4.5091,4.573,4.5858,4.5821,0.0,0.0,0.0,0.0,0.0,0.0,0.0,0.0,0.0,0.0,0.0,3.7316,0.0,0.0,0.0,3.9037,0.0,0.0,0.0,0.0,0.0,4.1097,4.1534,4.1819,4.1967,4.252,4.2908,4.3122,4.3122,4.3291,4.358,4.2515,4.1449,4.0403,4.033,3.9843,3.9034,3.8469,3.7908,3.7425,3.7177,3.6991,3.6834,3.6989,3.6919,3.6743,3.6949,3.6996,3.6904,3.7208,3.8155,3.9177,3.9446,0.0,0.0,0.0,4.5175,4.6763,4.9105,5.1043,5.2781,5.44,5.5567,5.6449,5.6974,5.7158,5.7231,5.7288,5.7231,5.7012,5.659,5.6437,5.599,5.4741,5.4642,5.4426,5.3582,5.401,5.4173,5.3568,5.3369,5.2901,5.1891,5.1272,5.0819,5.063,5.029,4.9657,4.8622,4.78,4.6984,4.6113,4.5638,4.5397,4.5397,4.5397,4.545,4.5502,4.5423,4.5397,4.5406,4.5257,4.515,4.5113,4.5113,4.5167,4.522,4.5274,4.5344,4.5397,4.53,4.5167,4.508,4.5738,4.6112,4.6363,0.0,0.0,0.0,0.0,0.0,0.0,0.0,0.0,0.0,0.0,0.0,0.0,0.0,0.0,0.0,0.0,3.9775,0.0,0.0,0.0,0.0,4.161,4.2275,4.2668,4.2798,4.341,4.3698,4.3709,4.3757,4.398,4.4261,4.3954,4.3318,4.2313,4.1641,4.0821,4.0034,3.9585,3.8834,3.7942,3.7785,3.7521,3.7173,3.7095,3.7087,3.7144,3.7397,3.7228,3.6947,3.7211,3.7854,3.8505,3.8431,3.9648,0.0,0.0,0.0,4.5008,4.7725,4.9342,5.072,5.2499,5.3922,5.4969,5.5426,5.6112,5.6603,5.6379,5.6384,5.6436,5.6384,5.6456,5.5973,5.4348,5.4109,5.3744,5.2573,5.2986,5.3415,5.3415,5.3099,5.2702,5.2242,5.1394,5.0846,5.0702,5.0122,4.9602,4.9163,4.7825,4.6921,4.6613,4.5811,4.5397,4.5397,4.5397,4.545,4.5554,4.545,4.5406,4.5389,4.53,4.5247,4.5247,4.5194,4.5194,4.5247,4.53,4.5344,4.5344,4.5247,4.5113,4.5043,4.5875,4.6309,4.6566,0.0,0.0,0.0,0.0,0.0,0.0,0.0,0.0,0.0,0.0,0.0,0.0,3.8372,3.8921,3.927,3.931,3.9775,4.0326,4.0883,4.1398,0.0,4.2413,4.3514,0.0,4.3566,4.4414,4.46,4.3988,4.4223,4.4389,4.4518,4.5035,4.4885,4.4085,4.2172,4.1087,4.0655,3.967,3.9451,3.9706,3.8646,3.8053,3.7689,3.7184,3.719,3.7432,3.7223,3.7292,3.7565,3.7549,3.8116,3.8692,3.8324,3.913,4.0298,0.0,0.0,0.0,4.6502,4.7803,4.9046,5.0798,5.2455,5.3601,5.3154,5.4024,5.478,5.4278,5.4847,5.5532,5.5815,5.6369,5.6239,5.4566,5.4767,5.4492,5.267,5.2986,5.3415,5.3415,5.2607,5.2104,5.2171,5.1394,5.0891,5.0891,5.0667,5.018,4.9318,4.8365,4.7467,4.6631,4.5811,4.5397,4.5397,4.5397,4.5397,4.5397,4.5397,4.5397,4.5397,4.5397,4.5397,4.5371,4.5113,4.514,4.5371,4.5274,4.5203,4.522,4.5203,4.5032,4.4973,4.6408,4.6428,4.5974,0.0,0.0,0.0,0.0,0.0,0.0,0.0,0.0,0.0,0.0,0.0,0.0,0.0,3.9322,3.9633,3.9775,4.0824,4.1593,4.1985,4.2708,0.0,4.3877,4.4034,4.4235,4.449,4.4562,4.4508,4.427,4.4364,4.4625,4.4988,4.4725,4.4761,4.5042,4.4123,4.305,4.1854,4.1457,4.0894,4.0218,3.9982,3.9371,3.8659,3.9081,3.8642,3.7841,3.8317,3.8138,3.7648,3.7827,3.815,3.8492,3.8329,3.8886,3.9758,4.0232,4.1018,4.2119,4.3724,4.4918,4.6236,4.8247,4.9941,5.1213,5.1732,5.2997,5.3981,5.377,5.439,5.5109,5.5577,5.6359,5.6395,5.4694,5.4625,5.4102,5.223,5.2414,5.2915,5.3344,5.3029,5.2779,5.2835,5.2094,5.1372,5.0764,5.0564,5.0304,4.992,4.854,4.7634,4.7338,4.6069,4.5397,4.5397,4.5397,4.545,4.5528,4.545,4.545,4.5528,4.545,4.5397,4.5397,4.5291,4.5318,4.5397,4.5344,4.5344,4.5352,4.5661,4.5432,4.5084,4.6401,4.6675,4.6481,0.0,0.0,0.0,0.0,0.0,0.0,0.0,0.0,0.0,3.9274,0.0,0.0,0.0,0.0,4.035,4.0605,4.1668,4.2387,4.2541,4.3376,4.4165,4.4751,4.46,4.4782,4.5366,4.5134,4.4856,4.463,4.4504,4.4574,4.4825,4.4456,4.4547,4.507,4.518,4.4472,4.324,4.2905,4.2233,4.1396,4.1408,4.0852,4.011,4.0495,3.9928,3.9029,3.9086,3.8736,3.8178,3.816,3.826,3.8429,3.8527,3.8972,3.9545,3.9673,4.0159,4.086,4.174,4.2965,4.4446,4.6271,4.7848,4.9291,5.0627,5.1801,5.2641,5.2794,5.3508,5.4266,5.4727,5.5617,5.5909,5.4756,5.4334,5.3587,5.1987,5.2034,5.2449,5.3003,5.2982,5.2898,5.2815,5.2312,5.1625,5.0682,5.0481,0.0,5.0217,4.8612,4.7448,4.6931,4.5931,4.5397,4.5397,4.5397,4.545,4.5528,4.545,4.545,4.5511,4.5174,4.5156,4.538,4.5147,4.5156,4.5397,4.5397,4.5371,4.5352,4.5679,4.5449,4.5067,4.6101,4.6489,4.6464,0.0,0.0,0.0,0.0,0.0,0.0,0.0,0.0,4.1035,4.0208,0.0,0.0,0.0,0.0,0.0,4.1726,4.2288,4.2631,4.2592,4.3399,4.4217,4.5072,0.0,0.0,4.6152,4.6124,4.5795,4.5152,4.4644,4.427,4.4035,4.4422,4.4478,4.4286,4.5135,4.5246,4.4722,4.3835,4.3449,4.3394,4.2793,4.2375,4.1938,4.1198,4.1046,4.1066,3.9425,3.9062,3.9226,3.863,3.8437,3.8529,3.8899,3.9355,3.9664,3.9378,4.0203,4.1111,0.0,0.0,0.0,4.5046,4.6333,4.7781,4.9654,5.0282,5.0642,5.114,5.2074,5.2909,5.3257,5.414,5.4792,5.4681,5.4032,5.3123,5.2057,5.1907,5.2044,5.2396,5.2414,5.2297,5.2042,5.2014,5.1625,5.0682,5.0481,5.0359,5.0217,4.8612,4.6983,4.5449,4.5397,4.5397,4.5397,4.5397,4.5397,4.5397,4.5397,4.5397,4.5363,4.4647,4.4716,4.5345,4.463,4.4734,4.5397,4.5397,4.53,4.522,4.5238,4.5049,4.4905,4.5626,4.5818,4.5838,0.0,0.0,0.0,0.0,0.0,0.0,4.2323,4.2296,4.2137,0.0,0.0,0.0,4.1952,4.1801,4.1904,4.2518,4.2928,4.3529,4.4348,4.5198,4.6123,4.7191,4.6883,4.6904,4.7452,4.6567,4.6024,4.5838,4.5057,4.4644,4.4565,4.4771,4.5045,4.5379,4.5696,4.6002,4.6245,4.5167,4.4572,4.4341,4.4177,4.3592,4.281,4.3174,4.2254,4.0727,4.0678,4.0112,3.9287,3.9314,3.9356,3.936,3.9581,3.9677,3.9664,3.9448,3.9816,4.04,4.0831,0.0,0.0,0.0,0.0,0.0,4.6804,4.7728,4.8567,4.9631,5.0391,5.1485,5.3427,5.3311,5.3225,5.4316,5.3995,5.3267,5.221,5.1956,5.2144,5.2751,5.2659,5.2467,5.2297,5.2107,5.1671,0.0,5.0471,5.0274,5.0359,4.8668,4.6983,4.5449,4.5397,4.5397,4.5397,4.5397,4.5397,4.5397,4.53,4.5247,4.5247,4.4944,4.4978,4.523,4.505,4.5138,4.5397,4.5397,4.5371,4.5396,4.5839,4.562,4.5162,4.571,4.6226,4.6661,0.0,0.0,0.0,0.0,0.0,4.3759,4.3925,4.3899,4.3804,0.0,0.0,0.0,4.3244,4.3177,4.32,4.3285,4.3814,4.4402,4.5015,4.5857,4.6917,4.8318,4.7783,4.7826,4.8629,4.7384,4.6746,4.6746,4.5729,4.5184,4.5075,4.509,4.5372,4.5824,4.6063,4.648,4.7043,4.635,4.5808,4.5368,4.5167,4.4795,4.4372,4.4563,4.3523,4.1923,4.1773,4.0976,3.9934,3.9772,3.9688,3.9677,3.9821,3.9866,3.9888,3.9923,4.0238,4.064,4.0858,4.0793,4.112,4.2809,0.0,0.0,4.5635,4.6355,4.6931,4.8287,4.8888,4.9776,5.175,5.1653,5.1658,5.2873,5.3005,5.2768,5.227,5.215,5.2264,5.2572,5.2694,5.2535,5.1971,5.1985,5.1671,5.0827,5.0415,4.994,4.9299,4.8266,4.6983,4.5449,4.5397,4.5397,4.5397,4.5397,4.5397,4.5397,4.5274,4.5203,4.5203,4.4734,4.4795,4.5186,4.4877,4.4981,4.5397,4.5397,4.5397,4.5432,4.5799,4.5589,4.5138,4.5418,4.613,4.6903,0.0,0.0,4.5635,4.5395,4.5408,4.5322,4.508,4.55,4.5786,0.0,4.5286,4.5113,4.5076,4.5172,4.498,4.4271,4.4747,4.5186,4.5225,4.5943,4.7105,4.8764,4.829,4.8482,4.9587,4.838,4.7716,4.7761,4.6471,4.579,4.571,4.5572,4.5717,4.607,4.6462,4.6943,4.7456,4.7405,4.7119,4.6637,4.602,4.5914,4.602,4.5555,4.4811,4.39,4.2746,4.1811,4.0975,4.0131,3.9817,3.9715,3.9786,3.9987,4.02,4.0568,4.0958,4.1281,4.1013,4.0981,4.1239,4.2379,4.2153,0.0,4.5208,4.5414,4.5404,4.6863,4.7382,4.7927,4.9112,4.96,5.0081,5.084,5.1353,5.1799,5.2198,5.2382,5.2364,5.215,5.2572,5.2472,5.143,5.1678,5.1565,5.071,5.0397,4.9502,4.7814,4.7717,4.6983,4.5422,4.5371,4.5371,4.5371,4.5371,4.5397,4.5397,4.5274,4.5177,4.5159,4.4348,4.4416,4.5115,4.449,4.4646,4.5371,4.5397,4.5397,4.5397,4.5397,4.5264,4.5005,4.5005,4.5767,4.6815,0.0,0.0,4.6684,4.6832,4.6902,4.6948,4.6881,4.7365,4.7729,4.7675,4.7635,4.75,4.7216,4.6621,4.6308,4.6572,4.5861,4.5829,4.6714,4.7137,4.7905,4.9138,4.9281,4.962,5.0294,4.9012,4.8425,4.8637,4.693,4.6473,4.7106,4.7026,4.72,4.7565,4.7928,4.8181,4.8243,4.8027,4.8142,4.8344,4.7377,4.6873,4.6665,4.6337,4.5644,4.4793,4.3571,4.2786,4.2107,4.1026,4.0608,4.0477,4.0017,4.0154,4.0498,4.0409,4.0588,4.0972,4.1614,4.1328,4.1077,4.2132,4.16,0.0,4.2744,4.2782,4.2988,4.4652,4.5252,4.6085,4.8025,4.8221,4.8412,4.9338,4.9872,5.0545,5.1817,5.2102,5.2198,5.2264,5.2155,5.1994,5.1658,5.1414,5.121,5.1025,5.0702,4.9729,4.7944,4.7765,4.6948,4.5282,4.514,4.514,4.5247,4.5247,4.53,4.5397,4.5274,4.5123,4.5032,4.476,4.4722,4.4886,4.4824,4.4976,4.5247,4.5371,4.5397,4.5397,4.5397,4.53,4.5167,4.5032,4.5823,4.6961,4.8106,4.7787,4.7531,4.7685,4.7733,4.7873,4.8174,4.8475,4.883,4.9132,4.8912,4.8612,4.8491,4.7792,4.7293,4.7108,0.0,0.0,0.0,4.7525,4.8301,4.9473,4.996,5.0442,5.0852,5.0118,4.9808,4.996,4.8372,4.7703,4.7897,4.768,4.7716,4.788,4.8221,4.8595,4.8881,4.8389,4.8409,4.8747,4.8016,4.7633,4.748,4.7171,4.6425,4.5465,4.4549,4.3416,4.2266,4.1676,4.1287,4.1044,4.1077,4.0863,4.0682,4.1044,4.084,4.0716,4.1465,4.1035,4.0572,4.1317,4.0972,0.0,0.0,4.1594,4.2061,4.3319,4.3739,4.4373,4.6075,4.6329,4.6544,4.7396,4.7991,4.8655,4.9521,5.0817,5.1705,5.1829,5.1604,5.1426,5.1375,5.1052,5.0828,5.0764,5.0537,4.9636,4.7889,4.7655,4.6828,4.5147,4.5032,4.5032,4.5113,4.5113,4.514,4.5211,4.514,4.5059,4.5005,4.4858,4.4831,4.4913,4.4913,4.4995,4.5113,4.5167,4.522,4.53,4.5371,4.5291,4.5086,4.5032,4.5812,4.6903,4.8994,4.8631,4.833,4.8431,4.8444,4.8722,4.932,0.0,4.982,5.0364,4.9919,4.9598,4.9544,4.8945,4.8201,4.7457,4.7221,0.0,4.7133,4.7794,4.8612,4.9654,5.0394,5.087,5.112,5.1,5.0879,5.0848,4.9573,4.8825,4.8697,4.8224,4.8082,4.8272,4.8427,4.8808,4.9271,4.8654,4.857,4.877,4.8442,4.8283,4.8197,4.7859,4.7216,4.6381,4.5463,4.3927,4.2324,4.2324,4.2016,4.1762,4.2188,4.1671,4.1012,4.1665,4.1237,4.063,4.1185,4.087,4.0467,4.0865,4.0749,4.0598,0.0,0.0,0.0,4.2285,4.2411,4.2778,4.3957,4.4271,4.4589,4.523,4.5975,4.6559,4.6829,4.8844,5.0444,5.0927,5.0929,5.092,5.092,5.0694,5.0519,5.0453,5.0285,4.9457,4.7779,4.7561,4.6735,4.5002,4.494,4.494,4.4951,4.4978,4.5005,4.5032,4.5059,4.5059,4.5005,4.4896,4.4886,4.4913,4.4858,4.4886,4.4968,4.5005,4.5113,4.5203,4.53,4.522,4.5032,4.5005,4.5784,4.6844,4.9375,4.9192,4.9256,4.9473,4.956,4.9848,0.0,0.0,5.1534,5.1889,5.1637,5.1307,5.1095,5.019,4.949,4.9163,4.8635,4.8282,4.8332,4.8646,4.9071,4.9669,5.0231,5.0614,5.0855,5.0694,5.0547,5.0369,4.9199,4.9154,5.0053,4.9194,4.9286,5.0155,4.9578,4.9325,4.9354,4.8925,4.8889,4.9147,4.907,4.8884,4.8586,4.8087,4.8042,4.7976,4.6093,4.4461,4.3163,4.3163,4.3115,4.3019,4.2514,4.2237,4.1949,4.153,4.1179,4.0958,4.1001,4.138,4.1794,4.1845,4.1806,4.173,4.1528,0.0,4.0842,4.101,0.0,4.1272,4.2075,0.0,0.0,4.2921,4.385,4.4615,4.4947,4.6072,4.7481,4.9234,5.0157,5.064,5.064,5.0492,5.0481,5.0575,5.0341,4.9457,4.7779,4.7571,4.669,4.4882,4.4709,4.4709,4.4831,4.4923,4.5059,4.5177,4.53,4.5238,4.5005,4.5113,4.4951,4.4654,4.4886,4.4913,4.4831,4.5086,4.5194,4.5203,4.522,4.5203,4.515,4.5032,4.5823,4.6944,4.9717,4.9522,4.9537,4.9502,4.9472,0.0,0.0,0.0,5.238,5.2677,5.2583,5.2425,5.212,5.1189,5.0432,5.0034,4.9228,4.8695,4.8481,4.8895,4.9256,4.9453,5.0264,5.0502,5.0211,5.0606,5.074,5.0524,4.9898,4.9913,5.0524,5.0144,5.0095,5.0337,5.027,5.0105,4.9859,4.9554,4.9283,4.9069,4.8793,4.8756,4.8863,4.8799,4.8399,4.7724,4.6566,4.5306,4.4176,0.0,4.4082,0.0,0.0,4.349,4.2943,4.2961,4.2215,4.1381,4.1553,4.1312,4.1085,4.1076,4.1061,4.1088,4.1122,4.0823,4.0622,4.1039,0.0,0.0,0.0,0.0,0.0,0.0,4.2414,4.2928,4.318,4.4018,4.5559,4.8133,0.0,0.0,5.0017,5.0028,5.0057,5.0165,4.9942,4.9143,4.764,4.7347,4.6465,4.4854,4.4682,4.4643,4.4682,4.4737,4.482,4.4858,4.4995,4.4995,4.4886,4.4923,4.4886,4.4737,4.4748,4.4483,4.4037,4.4616,4.4685,4.4487,4.4915,4.514,4.5177,4.514,4.5945,4.7101,5.025,5.0057,4.996,4.9732,4.9649,4.9985,5.107,5.2324,5.3237,5.3381,5.3288,5.3135,5.2991,5.2201,5.1432,5.0987,5.0083,4.9401,4.9252,4.9258,4.9404,4.9614,5.0313,5.0552,5.0218,5.0879,5.1164,5.0959,5.071,5.071,5.0959,5.0885,5.0827,5.0773,5.1075,5.0908,5.0411,5.0173,4.9717,4.9132,4.8861,4.8993,4.9319,4.9342,4.8573,4.7445,4.688,4.5944,4.5046,4.4922,4.4737,0.0,4.4986,4.4499,4.3865,0.0,0.0,4.2133,4.2093,0.0,0.0,0.0,0.0,0.0,0.0,0.0,0.0,0.0,0.0,0.0,0.0,0.0,0.0,0.0,0.0,4.1554,4.1638,4.2298,4.3816,4.6765,4.7578,0.0,0.0,4.9266,4.9205,4.9382,0.0,4.8409,4.7067,4.6783,4.6062,4.4799,4.4654,4.4615,4.4615,4.4626,4.4654,4.4654,4.4776,4.4831,4.4803,4.4831,4.4803,4.4737,4.4682,4.4304,4.3775,4.4406,4.447,4.427,4.4827,4.5096,4.5194,4.515,4.5881,4.6914,5.1214,5.0964,5.076,5.076,5.0614,5.0894,5.2176,5.3442,5.4252,5.4252,5.3737,5.347,5.3757,5.3184,5.2655,5.2373,5.1537,5.1022,5.1022,4.9948,4.9663,5.0453,5.0501,5.071,5.1137,5.168,5.185,5.1561,5.1356,5.1356,5.1577,5.1356,0.0,0.0,5.2017,5.1587,5.0979,5.07,5.0175,4.9589,4.9773,4.9965,5.0102,4.946,4.8641,4.7792,4.7036,0.0,0.0,4.5261,4.5078,0.0,0.0,0.0,0.0,0.0,0.0,0.0,0.0,0.0,0.0,4.1709,0.0,0.0,0.0,0.0,4.143,0.0,0.0,0.0,0.0,0.0,0.0,0.0,0.0,0.0,0.0,4.0854,4.2078,4.4789,4.6457,0.0,0.0,4.8152,4.7808,0.0,4.7838,0.0,4.5828,4.576,4.5376,4.4632,4.4615,4.4615,4.4615,4.4737,4.4776,4.482,4.494,4.494,4.4803,4.4923,4.4858,4.4598,4.4737,4.472,4.4564,4.472,4.4869,4.4971,4.5123,4.5194,4.5177,4.5059,4.549,4.6203,5.2871,5.313,5.2958,5.1583,5.1808,5.2592,5.3916,5.4142,5.439,5.5089,5.4581,5.4326,5.486,5.4355,5.395,5.3852,5.2621,5.1817,5.1817,5.0844,5.0394,5.0695,5.0852,5.0817,5.0541,5.1046,5.1438,5.1682,5.1446,5.1705,5.2535,5.2624,5.263,0.0,5.3143,5.2567,5.1218,5.1568,5.0958,4.9797,4.9876,4.9939,4.9925,0.0,4.8944,4.8486,4.7926,4.72,0.0,4.6329,4.621,4.609,4.609,4.6034,4.5917,4.5814,4.5171,0.0,0.0,0.0,4.3198,4.2238,0.0,0.0,0.0,0.0,0.0,0.0,0.0,0.0,0.0,0.0,0.0,0.0,0.0,0.0,0.0,4.0913,4.1759,4.2766,4.5063,4.6994,0.0,0.0,0.0,0.0,4.7002,0.0,0.0,4.5503,4.5194,4.4553,4.4598,4.4615,4.4615,4.4654,4.4682,4.4682,4.4709,4.4709,4.4682,4.4709,4.4682,4.4598,4.4654,4.4338,4.3859,4.445,4.4376,4.4007,4.4773,4.4934,4.4752,4.5042,4.5603,4.6371,5.4259,5.4554,5.4312,5.2627,5.284,5.3651,5.483,5.4828,5.4903,5.5554,5.5417,5.5481,5.602,5.5734,5.5475,5.5475,5.4231,5.3403,5.3338,5.2212,5.1575,5.159,5.1521,5.1269,5.0955,5.1319,5.1757,5.2421,5.2346,5.2651,5.3396,5.3752,5.3598,5.3115,5.3801,5.3228,5.182,5.2568,5.1965,5.048,5.0386,5.0347,0.0,0.0,4.9403,4.9109,0.0,4.8026,4.748,4.7206,4.7004,4.6785,4.6712,4.6683,4.6594,4.6594,4.5903,4.5069,4.4749,4.4298,0.0,4.2682,4.2567,0.0,4.254,0.0,4.1645,0.0,0.0,0.0,0.0,0.0,0.0,0.0,0.0,0.0,0.0,4.0558,4.1208,4.1654,4.3904,4.5781,4.6651,0.0,0.0,0.0,0.0,0.0,0.0,0.0,4.474,4.4452,4.4452,4.4542,4.4615,4.4615,4.4615,4.4615,4.4615,4.4615,4.4615,4.4615,4.4615,4.4615,4.4615,4.4327,4.3876,4.4395,4.4338,4.3986,4.4654,4.4742,4.4558,4.4961,4.572,4.6725,5.5363,5.5205,5.4911,5.4033,5.3805,5.4082,5.5053,5.5457,5.5653,5.5731,5.624,5.6705,5.7039,5.707,5.7085,5.7133,5.6245,5.5622,5.5446,5.3847,5.2914,5.2974,5.2336,5.2124,5.2352,5.2428,5.2887,5.3822,5.4065,5.4185,5.4185,5.4572,5.4477,5.3833,5.4017,5.3581,5.2733,5.3632,5.3048,5.1548,5.1312,5.1221,5.1146,5.0525,5.0058,4.9637,4.9147,4.8836,4.8563,4.7919,4.7521,4.7248,4.7076,4.6844,4.6683,4.6683,4.6211,4.549,4.4657,4.4705,4.4603,4.3156,0.0,0.0,0.0,0.0,4.1836,0.0,0.0,0.0,0.0,0.0,0.0,0.0,0.0,0.0,0.0,0.0,4.033,4.1381,4.3031,4.4175,4.4458,4.5603,0.0,0.0,0.0,0.0,0.0,0.0,4.3998,4.4281,4.4293,4.4395,4.457,4.4615,4.4615,4.4615,4.4615,4.4615,4.4615,4.4615,4.4615,4.4615,4.4615,4.4615,4.4615,4.4615,4.4682,4.4776,4.4803,4.472,4.4609,4.492,4.5857,4.7075,5.7197,5.6881,5.6616,5.6529,5.555,5.5103,5.6224,5.5621,5.5336,5.6107,5.5693,5.5648,5.6557,5.6788,5.6994,5.7362,5.6397,5.5732,5.5702,5.3986,5.2929,5.2779,5.3055,5.3162,5.304,5.3929,5.4761,5.5472,5.5269,5.5127,5.5127,5.4896,5.4505,5.4017,5.4242,5.4045,5.3656,5.4092,5.3607,5.2473,5.1896,5.1631,5.1631,0.0,5.1242,5.0902,4.9979,4.9501,4.9316,4.9138,4.8821,4.846,4.8392,4.813,4.7864,4.7864,4.7375,4.6794,4.6587,4.6002,4.5244,4.4545,4.4095,4.3846,0.0,0.0,0.0,0.0,0.0,0.0,0.0,0.0,0.0,0.0,0.0,0.0,0.0,0.0,3.97,4.0137,4.1406,4.2815,4.4207,4.4734,4.474,0.0,0.0,0.0,0.0,0.0,0.0,4.3998,4.4212,4.4338,4.4367,4.4542,4.4615,4.4615,4.4615,4.4615,4.4615,4.4615,4.4615,4.4615,4.4615,4.4615,4.4598,4.4709,4.4609,4.448,4.4923,4.5248,4.5473,4.5496,4.5933,4.6632,5.8157,5.7631,5.723,5.6921,5.666,5.6622,5.7184,5.6269,5.5862,5.6776,5.6335,5.6228,5.6888,5.7324,5.7634,5.7796,5.751,5.7111,5.6586,5.5396,5.4379,5.367,5.4056,5.4153,5.3805,5.4744,5.5673,5.6466,5.6306,5.6158,5.5949,5.5762,5.5225,5.4417,5.4513,5.4448,5.4301,5.4505,5.4262,5.3663,5.2864,5.2333,0.0,5.1851,5.1721,5.1557,5.094,5.048,5.0129,4.9955,4.9606,4.9325,4.9228,4.8918,4.8547,4.8547,4.7947,4.7286,4.7202,4.6548,4.5822,4.5462,4.4863,4.4265,4.4051,4.3268,4.2642,0.0,0.0,0.0,0.0,0.0,0.0,0.0,0.0,0.0,0.0,3.9496,3.9711,3.9818,4.1189,4.2564,4.3504,4.4095,4.4153,0.0,0.0,0.0,0.0,0.0,0.0,4.3763,4.3981,4.4155,4.4196,4.4384,4.4468,4.4468,4.4542,4.4615,4.4615,4.4615,4.4615,4.4615,4.4615,4.4615,4.4615,4.4682,4.4609,4.4502,4.506,4.5433,4.5703,4.6355,4.6756,4.715,5.8733,5.8181,5.7618,5.6678,5.7606,5.8363,5.8247,5.7369,5.6902,5.743,5.7485,5.7459,5.7502,5.815,5.8486,5.8281,5.8855,5.8791,5.7627,5.7169,5.6356,5.4974,5.5232,5.5175,5.4637,5.5479,5.6304,5.7114,5.7326,5.714,5.6555,5.6833,5.6226,5.4896,5.4896,5.4898,5.4907,5.492,5.4889,5.4775,5.3914,5.3144,5.2492,5.2201,5.2092,5.2092,5.2035,5.1601,5.0972,5.0563,5.0253,5.0034,4.9876,4.9486,4.9066,4.9066,4.8337,4.7497,4.7307,4.6857,4.6376,4.6269,4.5409,4.4511,4.4282,4.3405,4.2446,4.1833,4.1927,4.208,0.0,0.0,0.0,0.0,0.0,0.0,0.0,3.9649,3.9955,4.0082,4.1597,0.0,4.2627,0.0,4.4037,0.0,0.0,0.0,0.0,0.0,0.0,4.3568,4.3793,4.3956,4.4068,0.0,4.431,4.431,4.4497,4.4615,4.4615,4.4615,4.4615,4.4615,4.4615,4.4598,4.4643,4.4755,4.4857,4.501,4.5306,4.5538,4.5875,4.7201,4.7831,4.8122,6.0008,6.0024,5.981,5.9036,5.926,5.9683,6.0064,5.8725,5.7624,5.7518,5.7314,5.7274,5.7469,5.797,5.8329,5.8511,5.8831,5.8716,5.7901,5.7399,5.6713,5.5676,5.659,5.6778,5.5926,5.7322,5.8126,5.8282,5.8571,5.8052,5.6833,5.7034,5.6492,5.5303,5.5303,5.5604,5.6076,5.5627,0.0,5.4993,5.4221,5.3837,5.372,5.3649,5.3613,5.3578,5.3307,5.2543,5.1631,5.154,5.128,5.0978,5.094,5.0486,4.9963,4.9781,4.9343,4.8901,4.8728,4.7886,4.7209,4.7474,4.6746,4.5886,4.5615,4.474,4.3826,4.3397,4.3064,4.2694,4.2345,0.0,0.0,0.0,0.0,0.0,0.0,3.9805,3.9763,4.0471,4.1013,4.1551,4.2134,0.0,4.4578,4.448,0.0,0.0,0.0,0.0,0.0,0.0,4.3734,0.0,0.0,0.0,4.431,4.431,4.4497,4.4615,4.4615,4.4615,4.4615,4.4615,4.4615,4.4654,4.4827,4.5533,4.6276,4.6879,4.5821,4.625,4.7487,4.7619,4.8107,4.8695,6.0631,6.0561,6.0211,5.9261,5.9578,5.9886,5.966,5.9129,5.867,5.8561,5.7752,5.7271,5.7365,5.8283,5.8717,5.8353,5.9515,5.9729,5.8503,5.8559,5.8179,5.7129,5.7861,5.7976,5.7289,5.831,5.8837,5.8956,5.9213,5.871,5.7419,5.7615,5.7035,5.575,5.5974,5.6251,5.6547,0.0,0.0,5.5274,5.5274,5.4821,5.4132,5.4062,5.401,5.3924,5.338,5.2817,5.2305,5.1924,5.1668,5.152,5.152,5.1205,5.0864,5.0749,5.0347,4.99,4.9797,4.88,4.792,4.8461,4.7191,4.5802,4.5928,4.4908,4.3816,4.3438,4.3233,4.3145,4.3097,4.2689,0.0,0.0,0.0,0.0,0.0,0.0,4.0085,4.0164,4.077,4.1551,4.2548,4.389,4.4379,4.3606,4.388,4.3881,0.0,0.0,0.0,0.0,0.0,0.0,0.0,0.0,0.0,4.431,4.4497,4.4615,4.4615,4.4682,4.4654,4.4632,4.5156,4.5133,4.476,4.5563,4.6368,4.7123,4.6802,4.717,4.7939,4.825,4.8605,4.8925,6.112,6.0947,6.0469,5.939,6.0071,6.0465,5.9515,5.9578,5.9643,5.9376,5.8337,5.7599,5.7599,5.8828,5.9253,5.8363,6.0278,6.0832,5.9182,5.9873,5.9819,5.8684,5.9074,5.9046,5.8529,5.8859,5.923,0.0,5.9436,5.8879,0.0,0.0,0.0,0.0,0.0,0.0,0.0,0.0,5.6993,5.5898,5.6455,5.5898,5.4699,5.4543,5.432,5.4084,5.3478,5.3141,5.2868,5.2233,5.1997,5.1924,5.1924,5.1741,5.1536,5.1499,5.1146,5.0679,5.0618,4.9661,4.878,4.9124,4.7563,4.5969,4.6152,4.502,4.3841,4.3509,4.3459,4.3542,4.3793,4.3524,0.0,0.0,0.0,0.0,0.0,0.0,4.0861,4.0504,4.1269,4.216,4.3083,0.0,4.3997,4.2671,4.3541,4.3913,4.3357,4.3887,4.3959,0.0,0.0,4.3898,4.3898,0.0,4.4293,0.0,4.4542,4.4626,4.4682,4.4748,4.4748,4.4743,4.568,4.584,4.5428,4.5811,4.6506,4.7369,4.775,4.799,4.8193,4.8798,4.9001,4.9001,6.1902,6.2024,6.177,6.0945,6.2007,6.2672,6.1661,6.0992,6.014,5.8938,5.8661,5.856,5.856,5.9473,5.9734,5.897,6.0757,6.1295,5.9811,6.0702,6.0828,5.9893,6.0307,6.0137,5.9229,5.9236,5.9595,0.0,0.0,5.828,0.0,0.0,0.0,0.0,0.0,0.0,0.0,5.8116,5.78,5.7225,5.7293,5.6815,5.6014,5.6014,5.5468,5.4686,5.4533,5.3905,5.3144,5.2868,5.2537,5.2236,5.2236,5.2053,5.1758,5.1536,5.1462,5.1312,5.0972,5.0586,5.0053,4.9149,4.8435,4.7744,4.6988,4.594,4.5065,4.4838,4.4343,4.4026,4.4205,4.4197,4.4113,0.0,0.0,0.0,0.0,0.0,4.2127,4.2899,0.0,0.0,4.3125,4.3617,0.0,0.0,4.467,4.5372,4.4821,4.441,4.3959,4.3435,0.0,4.3898,4.3898,4.4184,4.435,4.4474,4.4553,4.4737,4.4951,4.4858,4.4858,4.5002,4.5764,4.684,4.7989,4.7185,4.7721,4.8897,4.8169,4.8325,4.8917,4.8984,4.9001,4.9001,6.2532,6.2606,6.2382,6.1498,6.1878,6.2099,6.1573,6.1155,6.0681,6.0137,5.9118,5.8581,5.9021,5.938,5.9335,5.8589,6.0595,6.1444,6.0425,6.1595,6.193,6.0959,6.1394,6.1179,6.0115,6.0374,6.0382,0.0,0.0,0.0,0.0,0.0,0.0,0.0,0.0,5.8044,5.8224,5.8348,5.7993,5.7431,5.7875,5.7602,5.6918,5.6918,5.6696,5.6235,5.5264,5.489,5.472,5.372,5.3059,5.2642,5.2642,5.2589,5.2447,5.234,5.2161,5.1944,5.1782,5.0778,4.9837,5.0225,4.8658,4.7156,4.759,4.6602,4.565,4.5872,4.5874,4.5626,4.5187,4.5526,4.5603,0.0,0.0,0.0,0.0,0.0,0.0,4.2729,0.0,4.3211,4.3286,4.3709,0.0,0.0,0.0,4.5114,4.4542,4.4814,0.0,4.3737,0.0,4.4056,4.4155,4.444,4.4637,4.4676,4.4803,4.4913,4.5005,4.5032,4.561,4.6612,4.6652,4.7556,4.8992,4.7976,4.8162,4.906,4.8711,4.8748,4.9001,4.9001,4.9001,4.9001,6.2855,6.2891,6.2649,6.1554,6.1901,6.2178,6.1552,6.155,6.1667,6.1836,6.0125,5.9038,5.9443,5.9716,5.9513,5.8523,6.0669,6.1699,6.0852,6.2221,6.2603,6.1537,6.1859,0.0,6.0477,6.0571,6.0395,5.9951,5.9693,0.0,0.0,0.0,0.0,0.0,5.8473,5.8544,5.8614,5.8771,5.8496,5.805,5.8324,5.7947,5.7261,5.697,5.6867,5.6662,5.5584,5.5416,5.5605,5.4753,5.3906,5.3213,5.3041,5.2938,5.2903,5.2903,5.2677,5.2449,5.2343,5.1262,5.0295,5.0834,4.905,4.7396,4.8242,4.7196,4.6104,4.6308,4.6686,4.6741,4.6066,4.6687,4.6943,4.5937,0.0,0.0,0.0,4.4493,0.0,4.3416,4.3593,4.3787,4.3866,4.4042,0.0,0.0,0.0,0.0,0.0,0.0,0.0,0.0,0.0,0.0,0.0,4.4581,4.4776,4.4858,4.5118,4.532,4.5402,4.5733,4.6519,4.7623,4.7489,4.8175,4.9346,4.8534,4.8545,4.9001,4.9001,4.9001,4.9001,4.9001,4.8987,4.8956,6.2858,6.2997,6.251,6.0978,6.2631,6.3641,6.2127,6.251,6.3205,6.3788,6.1883,6.0307,5.9922,6.0734,6.0668,5.9116,6.1258,6.2224,6.1071,6.2424,6.2754,0.0,0.0,6.1066,6.0144,5.94,5.9383,6.0089,0.0,0.0,5.8998,0.0,5.8719,5.9268,5.9285,5.9386,5.957,5.9588,5.957,5.9501,5.8571,5.7725,5.6913,5.5958,5.5537,5.5424,5.5407,5.5291,5.5244,5.6013,5.5261,5.3882,5.3349,5.3041,5.2903,5.2903,5.2903,5.2799,5.243,5.2291,5.1966,5.0736,4.9821,4.9232,4.9013,4.7771,4.6477,4.6088,4.6443,4.6803,4.6803,4.7372,4.7884,4.7868,0.0,0.0,0.0,0.0,0.0,4.5823,4.576,4.5579,4.5027,4.4687,0.0,0.0,0.0,0.0,0.0,0.0,0.0,4.3898,4.4155,0.0,4.431,4.4497,4.4737,4.5005,4.5591,4.6032,4.6316,4.7116,4.7477,4.7545,4.8111,4.8699,4.9199,4.9046,4.9001,4.9001,4.9001,4.9001,4.9001,4.9001,4.8925,4.8818,6.3616,6.3564,6.3247,6.2246,6.2585,6.2958,6.2874,6.3049,6.3415,6.4022,6.3014,6.2005,6.1466,6.0531,5.9685,0.0,6.0445,6.1363,0.0,6.2003,6.2158,6.1811,6.1775,6.1306,6.0318,6.0594,6.0523,6.0105,0.0,0.0,0.0,5.9202,5.9319,5.9504,5.9504,5.9537,5.9621,5.9621,5.929,5.8753,5.8477,5.7871,5.7176,5.6705,5.6522,5.6405,5.5757,5.5764,5.6027,5.5787,5.5276,5.4818,5.5196,5.455,5.3617,5.3484,5.3332,5.3196,5.2956,5.2098,5.1192,5.1164,4.982,4.8612,4.8817,4.8364,4.7798,4.7554,4.8045,4.8437,4.8166,4.8817,4.9191,4.8599,4.8466,0.0,0.0,0.0,4.645,4.6191,4.6388,4.6341,4.5787,4.5647,0.0,0.0,0.0,0.0,0.0,0.0,0.0,0.0,4.4196,0.0,4.4497,4.4654,4.5048,4.5614,4.5891,4.6424,4.715,4.7906,4.8249,4.8272,4.891,4.9176,4.9199,4.9063,4.9001,4.9001,4.9001,4.9001,4.9001,4.9001,4.8925,4.8818,6.4444,6.4338,6.4109,6.335,6.311,6.317,6.3528,6.3616,6.3795,6.4323,6.3519,6.2697,6.2173,6.0607,0.0,5.93,6.0231,6.0926,6.1224,6.1726,6.183,6.1465,6.1465,6.1032,6.0097,6.0548,0.0,5.9892,5.9892,5.9752,5.9485,5.9602,5.9718,5.9801,5.9801,5.9801,5.9783,5.9504,5.926,5.8998,5.8357,5.782,5.7352,5.688,5.6663,5.6497,5.5917,5.591,5.6158,5.5986,5.5441,5.5032,5.5769,5.5169,5.4194,5.4206,5.3921,5.3567,5.3349,5.2505,5.1766,5.1946,5.0793,4.9476,4.9094,4.8678,4.8346,4.8143,4.8682,4.9085,4.8787,4.9408,4.9867,4.956,4.9244,4.8868,4.8291,0.0,4.7098,0.0,0.0,0.0,0.0,4.6321,4.6307,0.0,0.0,0.0,0.0,0.0,0.0,4.4184,4.4327,0.0,4.4615,4.4682,4.5111,4.5915,4.6561,4.7187,4.7855,4.8533,4.8663,4.8441,4.9086,4.929,4.9107,4.9094,4.9063,4.9001,4.9063,4.9032,4.9001,4.9001,4.8877,4.8707,6.5282,6.5262,6.4997,0.0,6.4061,0.0,6.4096,6.4096,6.423,6.4617,6.3504,6.2554,6.2118,6.0887,6.0025,5.9879,0.0,0.0,0.0,6.1548,6.1652,6.0786,6.0682,6.0334,5.9654,5.9636,5.9636,5.9636,5.9636,5.9718,5.9829,5.9829,5.9911,6.0089,6.0089,6.0089,6.0054,5.9369,5.9422,5.9826,5.83,5.7643,5.7436,5.6617,5.6182,5.6007,5.5955,5.5793,5.5768,5.6493,5.5768,5.4649,5.5443,5.515,5.4586,5.4932,5.456,5.3915,5.3534,5.3399,5.3298,5.2957,5.2301,5.1346,4.9809,4.8843,4.8229,4.8066,4.8514,4.8911,4.8825,4.9335,4.9976,5.0555,5.0093,4.9667,4.967,0.0,0.0,0.0,0.0,0.0,0.0,4.6797,4.6471,0.0,0.0,0.0,0.0,0.0,4.4335,4.4461,4.4666,4.475,4.475,4.475,4.5162,4.5988,4.7415,4.8201,4.8411,4.895,4.8825,4.8214,4.8893,4.9107,4.9001,4.9138,4.9107,4.9001,4.9138,4.9107,4.9001,4.9001,4.8815,4.8515,0.0,0.0,6.4571,6.4344,6.3733,6.3441,6.4008,6.4096,6.4134,6.4213,6.3415,6.2584,6.1955,6.0797,6.0139,6.0252,6.0826,6.1152,6.0936,6.1276,6.1378,6.1169,6.0574,6.0153,5.9978,5.9978,5.9978,5.9978,5.9978,5.9993,6.0025,6.0025,6.0057,6.0089,6.0089,6.0089,6.0089,5.9914,5.9264,5.8369,5.8601,5.7921,5.6886,5.7157,5.7252,5.7102,5.6401,5.6112,5.6067,5.6223,5.5574,5.4942,5.6257,5.5677,5.4483,5.4445,5.428,5.411,5.3915,5.344,5.2982,5.2736,5.1914,5.0958,5.0129,4.9584,4.9105,4.8505,4.8393,4.8464,4.8743,4.916,4.9592,5.0149,5.0219,5.0206,5.0206,4.9525,0.0,0.0,4.868,4.8216,4.9027,4.8231,4.78,0.0,0.0,0.0,0.0,4.6118,4.5963,4.5976,4.6157,4.6261,4.6261,4.6261,4.6392,4.6607,4.7509,4.8022,4.8184,4.8889,4.9097,4.8944,4.9114,4.9107,4.9001,4.9032,4.9032,4.9001,4.9032,4.9032,4.9001,4.9001,4.8877,4.8738,6.5593,6.5319,6.5034,6.5034,6.433,6.3999,6.4749,6.4554,6.4433,6.4705,6.4067,6.3254,6.2411,6.1443,6.0921,6.1051,6.0882,6.0739,6.0724,6.0821,6.0935,6.0981,6.0512,6.0266,6.0329,6.0329,6.0297,6.0252,6.0297,6.0297,6.0252,6.0297,6.0297,6.0252,6.0252,6.0171,6.0072,5.9738,5.9317,5.886,5.8966,5.8492,5.7719,5.7697,5.7639,5.7489,5.6499,5.6384,5.668,5.655,5.5969,5.5438,5.6252,5.5571,5.448,5.4367,5.4335,5.4303,5.4143,5.3787,5.3447,5.3188,5.2349,5.1493,5.1103,5.0652,5.0117,4.9281,4.9082,4.9002,4.8827,4.8974,4.9256,4.9793,4.9659,4.9775,5.0426,4.9625,0.0,5.0009,4.8959,4.8458,4.9053,4.8557,4.8356,4.8704,4.8289,0.0,4.7753,4.7676,4.719,4.6149,4.6587,4.6786,4.6786,4.7124,4.731,4.731,4.8054,4.844,4.8514,4.8938,4.9107,4.9107,4.9107,4.9063,4.9001,4.9063,4.9063,4.9035,4.9483,4.9368,4.9086,4.9763,4.9719,4.9342,6.5772,6.5836,6.5818,6.5804,6.5233,6.505,6.5697,6.5233,6.492,6.5311,6.4813,6.4017,6.2917,6.2336,6.1897,6.1649,6.0885,6.0442,6.0603,6.0603,6.0595,6.0596,6.0472,6.0472,6.0596,6.0578,6.0534,6.0427,6.0534,6.0534,6.0427,6.0534,6.0503,6.0396,6.0364,6.0252,6.0054,5.944,5.9457,5.9879,5.9369,5.9106,5.8931,5.8246,5.7907,5.7678,5.6561,5.6586,5.7112,5.6831,5.6299,5.5764,5.5733,5.5188,5.4543,5.4512,5.4512,5.4463,5.4303,5.4222,5.4126,5.3849,5.3158,5.2452,5.2251,5.1761,5.1117,5.0145,5.0023,4.9833,4.8998,4.8849,4.9003,4.9434,4.9082,4.9182,5.0424,0.0,4.8999,4.9705,4.8906,4.8406,4.8683,4.8455,4.8483,4.9001,4.8894,4.8906,0.0,4.8995,4.8105,4.6092,4.6752,4.7124,4.7124,4.7648,4.7889,4.7889,4.8545,4.8832,4.8849,4.8951,4.9001,4.9001,4.9001,4.9001,4.9001,4.9107,4.9175,4.9238,5.0037,4.9938,4.9492,5.076,5.0732,5.0182,6.5772,6.5895,6.5927,6.5836,6.5806,6.5784,6.5818,6.5697,6.5411,6.4813,6.4634,6.3993,6.2549,6.2764,6.244,6.1072,6.1401,6.1676,6.1587,6.1587,6.1286,6.0645,6.0596,6.0596,6.0578,6.0578,6.0596,6.0565,6.0596,6.0596,6.0565,6.0472,6.0427,6.0396,6.0202,6.0139,6.0089,5.9966,5.9633,5.9229,5.9721,5.9563,5.9001,5.886,5.8794,5.8601,5.7079,5.6532,5.6427,5.5715,5.5345,5.5122,5.5015,5.4884,5.4717,5.4543,5.4512,5.4512,5.4463,5.4335,5.419,5.4143,5.3813,5.3327,5.2794,5.2411,5.1774,5.0498,5.0147,4.9864,4.9106,4.9063,4.9128,4.9092,4.9531,4.9936,5.0173,0.0,4.9966,5.0689,4.953,4.8959,4.9629,4.9076,4.8832,4.9138,4.9032,4.8744,4.8311,4.8738,4.8562,4.7584,4.8274,4.8663,4.8663,4.8156,4.7889,4.7889,4.8007,4.8058,4.8075,4.8731,4.9001,4.9001,4.9001,4.9001,4.9001,4.9032,4.9405,4.9932,5.0082,5.0454,5.0896,5.1133,5.1117,5.1,6.5772,6.585,6.5881,6.5804,6.585,6.5913,6.5895,6.5895,6.5802,6.5537,6.5421,6.4769,6.3214,6.3578,6.3307,6.1752,6.2292,6.2546,6.2093,6.1556,6.1148,6.0871,6.0775,6.0775,6.0854,6.0854,6.0823,6.0714,6.0823,6.0805,6.0714,6.0762,6.0732,6.0622,6.0512,6.0436,6.036,6.0297,6.0058,5.9777,5.9998,5.9896,5.951,5.8761,5.8677,5.8808,5.7162,5.6834,5.7088,5.6611,5.6117,5.5741,5.5697,5.5309,5.4886,5.4793,5.462,5.4512,5.4512,5.4367,5.419,5.419,5.4045,5.378,5.3487,5.3321,5.2781,5.1347,5.0946,5.0512,4.9328,4.9077,4.9063,4.8925,4.9181,0.0,0.0,4.9527,4.9577,5.0318,4.9521,4.9029,4.9384,4.9097,4.9201,4.9913,4.9828,4.9845,5.0032,4.9845,4.9582,4.926,4.9083,4.9001,4.9001,4.8663,4.8494,4.8494,4.8494,4.8494,4.8511,4.8849,4.9001,4.9001,4.9001,4.9001,4.9001,4.9001,4.9424,5.0135,5.0541,5.0913,5.1286,5.2147,5.2164,5.1827,6.5804,6.5836,6.5818,6.5804,6.5836,6.5881,6.5972,6.6003,6.6066,6.6269,6.6177,6.5546,6.4165,6.4567,6.4314,6.276,6.3265,6.3288,6.2342,6.1562,6.1134,6.1111,6.0956,6.0938,6.1111,6.1093,6.1016,6.0878,6.1016,6.1016,6.0878,6.0986,6.0956,6.08,6.0709,6.0653,6.0565,6.0441,6.0364,6.0315,6.0202,6.0139,5.9981,5.8748,5.847,5.8575,5.717,5.6912,5.7232,5.7044,5.6597,5.6108,5.6078,5.5584,5.5035,5.5022,5.4807,5.4606,5.4575,5.448,5.4335,5.4271,5.4143,5.4045,5.4045,5.4013,5.3637,5.2287,5.195,5.1464,5.0087,4.962,4.9396,4.9196,0.0,0.0,0.0,4.906,4.902,4.9577,4.9263,4.9001,4.8956,4.897,4.9345,5.0213,5.0359,5.0703,5.1404,5.0785,5.0317,5.0068,4.9399,4.9032,4.9001,4.9001,4.9001,4.9001,4.9001,4.9001,4.9001,4.9001,4.9001,4.9001,4.9001,4.9001,4.9018,4.9187,4.9695,5.0422,5.1183,5.1589,5.1894,5.3061,5.3112,5.2639,6.5804,6.5895,6.5958,6.5818,6.5895,6.6003,6.6003,6.6003,6.6066,6.6269,6.6287,6.5963,6.51,6.5559,6.5274,6.3716,6.4166,6.3895,6.2396,6.2235,6.186,6.1129,6.1093,6.1093,6.1093,6.1093,6.1093,6.1064,6.1093,6.1093,6.1064,6.0908,6.08,6.08,6.0547,6.0427,6.0427,6.0396,6.0283,6.0139,6.0315,6.0283,6.0033,5.9346,5.8686,5.7968,5.7187,5.6346,5.5636,5.5452,5.5321,5.5256,5.5122,5.5131,5.5169,5.5053,5.4992,5.493,5.4811,5.4749,5.4717,5.4512,5.4335,5.4207,5.4207,5.4078,5.3823,5.3144,5.2972,5.2732,5.1926,5.1222,5.0655,5.0331,0.0,0.0,4.9055,4.8897,4.8834,4.8885,4.8959,4.8956,4.8849,4.8925,4.908,4.9284,4.9977,5.0495,5.0666,5.0495,5.0,4.9134,4.9172,4.9124,4.9001,4.9001,4.9001,4.9001,4.9001,4.9001,4.9001,4.9001,4.9001,4.9001,4.9001,4.9001,4.9052,4.9729,5.0456,5.12,5.1944,5.2672,5.3348,5.3467,5.3467,5.3382,6.5804,6.585,6.585,6.5804,6.585,6.5895,6.5972,6.6115,6.6238,6.6391,6.6421,6.6133,6.537,6.537,6.5028,6.3914,6.4391,6.4281,6.3226,6.3046,6.2414,6.1165,6.1093,6.1093,6.1093,6.1093,6.1093,6.1093,6.1093,6.1093,6.1093,6.1016,6.0986,6.0986,6.0884,6.0841,6.0811,6.0627,6.0485,6.0392,6.0266,6.0234,6.0195,5.9483,5.902,5.858,5.7328,5.6587,5.6104,5.5589,5.5401,5.5401,5.5312,5.5341,5.5354,5.5187,5.5109,5.5079,5.4961,5.4917,5.4886,5.4717,5.4623,5.4575,5.4575,5.4448,5.4129,5.3435,5.3201,5.2835,5.1956,5.1534,5.116,5.0828,0.0,5.0045,4.9429,4.9428,4.9308,4.8868,4.8925,4.897,4.8925,4.897,4.9249,4.9879,5.0105,5.043,5.0949,5.0403,4.9765,4.9035,4.9063,4.9063,4.9001,4.9001,4.9001,4.9001,4.9001,4.9001,4.9001,4.9001,4.9001,4.9035,4.9475,4.9678,4.9729,5.049,5.1234,5.1911,5.2198,5.2724,5.3298,5.3298,5.3298,5.3264,6.5804,6.5804,6.5804,6.585,6.585,6.5945,6.6128,6.6269,6.6409,6.656,6.659,6.6391,6.5879,6.5676,6.5322,6.4776,6.5076,6.4967,6.4195,6.3507,6.251,6.1165,6.1093,6.1093,6.1093,6.1093,6.1093,6.1093,6.1093,6.1093,6.1093,6.1093,6.1093,6.1093,6.1016,6.1016,6.0986,6.0745,6.064,6.0578,6.036,6.0329,6.0388,5.9796,5.9457,5.913,5.8011,5.7374,5.6955,5.6403,5.6227,5.6192,5.5946,5.5701,5.553,5.5616,5.5481,5.5299,5.541,5.5257,5.5074,5.5137,5.4953,5.4849,5.5012,5.4779,5.4374,5.3856,5.3625,5.3295,5.256,5.216,5.1798,5.1475,5.1224,5.0821,5.017,5.0015,4.9791,4.9268,4.9092,4.9086,4.9323,4.9357,4.9723,5.058,5.0803,5.111,5.1619,5.1131,5.0507,4.9729,4.9757,4.9757,4.9695,4.9238,4.9001,4.9001,4.9001,4.9001,4.9001,4.9001,4.9137,4.9373,4.9864,5.0219,5.049,5.1251,5.1725,5.2012,5.2486,5.2791,5.296,5.3213,5.3298,5.323,6.5804,6.5804,6.585,6.5972,6.6003,6.6097,6.6452,6.6482,6.656,6.6775,6.6804,6.6804,6.6804,6.662,6.6482,6.6482,6.6361,6.5958,6.5136,6.349,6.2093,6.1147,6.1093,6.1093,6.1093,6.1093,6.1093,6.1093,6.1093,6.1093,6.1093,6.1093,6.1093,6.1093,6.0878,6.08,6.08,6.08,6.0727,6.0578,6.0578,6.0578,6.0596,6.0441,5.9977,5.9375,5.9241,5.8686,5.8003,5.7851,5.7807,5.7667,5.6859,5.6122,5.5665,5.6385,5.6087,5.5624,5.6256,5.5811,5.5331,5.5793,5.5351,5.4956,5.5475,5.5046,5.4512,5.4512,5.4512,5.4416,5.4045,5.3382,5.2791,5.2382,5.1708,5.1202,5.1217,5.0574,5.0101,5.0101,4.9458,4.9306,5.0033,5.0101,5.0405,5.115,5.2041,5.258,5.258,5.2791,5.2369,5.1251,5.1378,5.1378,5.1185,4.9763,4.9018,4.9018,4.9018,4.9018,4.9018,4.9018,4.9424,5.0101,5.0101,5.0524,5.1268,5.1995,5.1877,5.1369,5.2909,5.301,5.2401,5.3213,5.3501,5.3467,6.5836,6.5804,6.5804,6.585,6.5927,6.6034,6.6128,6.6361,6.653,6.659,6.6697,6.6804,6.6804,6.622,6.6083,6.6643,6.6007,6.5412,6.4985,6.4457,6.3507,6.2015,6.1397,6.1093,6.1093,6.1093,6.1093,6.1093,6.1093,6.1093,6.1093,6.1093,6.1093,6.1093,6.1034,6.1016,6.0986,6.0861,6.077,6.0727,6.064,6.0578,6.0596,6.0565,6.0406,6.0154,5.9557,5.9203,5.889,5.8179,5.7925,5.789,5.7539,5.7298,5.7145,5.7281,5.6685,5.6051,5.6199,5.5601,5.5091,5.5838,5.581,5.5629,5.5773,5.562,5.5277,5.4647,5.4606,5.4543,5.4095,5.3809,5.3558,5.3212,5.2959,5.2671,5.226,5.1857,5.1519,5.1138,5.0757,5.0642,5.0862,5.0879,5.098,5.1168,5.1372,5.1475,5.1475,5.1409,5.1308,5.1185,5.1169,5.1169,5.1185,5.0905,5.0684,5.0557,5.0557,5.0557,5.0557,5.0557,5.0676,5.0879,5.0879,5.1014,5.1268,5.1995,5.2181,5.208,5.3112,5.3281,5.2977,5.3213,5.3298,5.323,6.5895,6.5881,6.5913,6.6039,6.6083,6.6159,6.63,6.65,6.662,6.662,6.6727,6.6834,6.6874,6.6399,6.629,6.6838,6.6275,6.5652,6.5124,6.5106,6.4441,6.2928,6.2379,6.1795,6.1111,6.1093,6.1093,6.1093,6.1093,6.1093,6.1093,6.1093,6.1093,6.1093,6.1093,6.1093,6.1093,6.0986,6.0908,6.0908,6.0727,6.0732,6.0762,6.064,6.064,6.0613,6.0091,5.9853,5.9721,5.9201,5.8769,5.8444,5.8325,5.7991,5.7719,5.8069,5.7199,5.6258,5.6652,5.58,5.5071,5.6189,5.6177,5.603,5.6571,5.6257,5.5736,5.5173,5.4925,5.4686,5.4271,5.4143,5.398,5.3634,5.3651,5.3548,5.3122,5.275,5.2393,5.1983,5.1564,5.14,5.1623,5.1657,5.1775,5.2097,5.2081,5.2048,5.1999,5.1849,5.1849,5.1998,5.1965,5.1965,5.1998,5.2227,5.1972,5.1185,5.1185,5.1185,5.1185,5.1185,5.1369,5.1657,5.1657,5.1826,5.2147,5.2604,5.2587,5.2384,5.3196,5.323,5.2876,5.318,5.3298,5.3264,6.6034,6.6003,6.6097,6.6421,6.6379,6.6409,6.6727,6.6804,6.6804,6.6804,6.6804,6.6845,6.6972,6.6874,6.6845,6.6972,6.6874,6.6438,6.5549,6.5495,6.4986,6.3866,6.38,6.3006,6.1266,6.12,6.1165,6.1093,6.1093,6.1093,6.1093,6.1093,6.1093,6.1093,6.1093,6.1093,6.1093,6.1093,6.1093,6.1093,6.0908,6.0908,6.1034,6.0762,6.0714,6.08,6.0684,6.0565,6.0441,6.0547,6.0008,5.9272,5.9151,5.8486,5.7905,5.8815,5.78,5.6534,5.7458,5.6346,5.5261,5.6683,5.6475,5.6272,5.7597,5.6971,5.6062,5.5891,5.5351,5.4804,5.4529,5.4335,5.411,5.3766,5.3882,5.3948,5.3783,5.3302,5.2925,5.2747,5.2134,5.1917,5.2366,5.2434,5.2706,5.345,5.3601,5.3634,5.3501,5.3433,5.3332,5.323,5.3349,5.3332,5.323,5.3517,5.2939,5.1388,5.1388,5.1388,5.1388,5.1388,5.1775,5.2401,5.2334,5.2723,5.3399,5.3399,5.2959,5.2384,5.3196,5.3061,5.2503,5.323,5.3501,5.3501,6.6066,6.6003,6.6066,6.63,6.6318,6.6348,6.653,6.6697,6.6804,6.6804,6.6804,6.6845,6.6972,6.6874,6.6845,6.6972,6.6874,6.6655,6.6295,6.6277,6.5827,6.4837,6.4716,6.3872,6.223,6.2093,6.1718,6.1093,6.1093,6.1093,6.1093,6.1093,6.1093,6.1093,6.1093,6.1093,6.1093,6.1093,6.1093,6.1111,6.1064,6.0986,6.0878,6.0974,6.0926,6.08,6.0944,6.0866,6.0696,6.064,6.0268,5.9907,6.0055,5.9851,5.9583,5.9808,5.905,5.8174,5.838,5.7206,5.6126,5.6999,5.6634,5.6365,5.7613,5.7883,5.7456,5.5971,5.5655,5.5378,5.4439,5.4239,5.4126,5.3948,5.398,5.4013,5.4061,5.3909,5.3758,5.3709,5.3572,5.3423,5.3412,5.3396,5.3414,5.3484,5.3534,5.3534,5.3501,5.3332,5.3298,5.3416,5.3298,5.3298,5.3416,5.3501,5.3365,5.301,5.301,5.301,5.301,5.301,5.3095,5.3213,5.257,5.2401,5.2553,5.2553,5.2469,5.2384,5.3196,5.3399,5.3264,5.345,5.3501,5.3501,6.6207,6.619,6.63,6.65,6.647,6.6439,6.6638,6.6786,6.6874,6.6804,6.6863,6.6961,6.7069,6.6932,6.6834,6.6903,6.6834,6.6775,6.6668,6.662,6.6379,6.5797,6.5706,6.4848,6.3113,6.3381,6.2736,6.1093,6.1093,6.1093,6.1093,6.1093,6.1093,6.1093,6.1093,6.1093,6.1093,6.1093,6.1093,6.1093,6.1093,6.1034,6.0938,6.1064,6.1016,6.0956,6.1064,6.1016,6.0896,6.0578,6.0441,6.0329,6.0266,6.0139,5.9993,6.0057,5.9386,5.8581,5.8677,5.7726,5.6833,5.7202,5.7056,5.6938,5.7365,5.7391,5.7002,5.5949,5.5548,5.5185,5.4581,5.4399,5.4303,5.411,5.411,5.411,5.411,5.411,5.4045,5.3882,5.3948,5.3899,5.3634,5.3601,5.3584,5.3501,5.3501,5.3501,5.3501,5.3298,5.3264,5.3348,5.3264,5.3264,5.3348,5.3467,5.3501,5.3501,5.3501,5.3501,5.3501,5.3501,5.3501,5.3484,5.3061,5.2875,5.2875,5.2875,5.2875,5.2909,5.3348,5.3501,5.3501,5.3501,5.3721,5.4076,6.6409,6.6421,6.656,6.6757,6.662,6.656,6.6775,6.6903,6.6943,6.6834,6.6932,6.7058,6.7182,6.703,6.6921,6.6874,6.6874,6.6845,6.6834,6.6815,6.6757,6.656,6.653,6.5671,6.3837,6.4511,6.3668,6.1093,6.1236,6.1236,6.1093,6.1093,6.1093,6.1093,6.1093,6.1093,6.1093,6.1093,6.1093,6.1093,6.1093,6.1093,6.1093,6.1093,6.1093,6.1111,6.1064,6.1034,6.0944,6.0565,6.0503,6.0547,6.0266,6.0025,5.9943,6.0057,5.9441,5.8741,5.8902,5.8279,5.7607,5.7593,5.7601,5.7545,5.7193,5.6776,5.6443,5.6319,5.577,5.5303,5.5164,5.49,5.462,5.446,5.434,5.4207,5.411,5.4175,5.4143,5.3766,5.3882,5.3866,5.3601,5.3551,5.3517,5.3517,5.3501,5.3501,5.3501,5.3348,5.3264,5.3264,5.3264,5.3264,5.3264,5.3433,5.3501,5.3501,5.3501,5.3501,5.3501,5.3501,5.3501,5.3501,5.3501,5.3501,5.3501,5.3501,5.3501,5.3501,5.3501,5.3501,5.3518,5.3653,5.4143,5.4871,6.653,6.65,6.656,6.6757,6.662,6.656,6.6775,6.6903,6.6943,6.6834,6.6932,6.7058,6.7182,6.7313,6.7331,6.7154,6.7154,6.7097,6.6972,6.6972,6.6903,6.6775,6.659,6.576,6.418,6.4651,6.3668,6.1093,6.1789,6.1771,6.1093,6.1093,6.1093,6.1093,6.1093,6.1093,6.1093,6.1093,6.1093,6.1093,6.1093,6.1093,6.1093,6.1093,6.1093,6.1064,6.0908,6.0775,6.064,6.0578,6.0596,6.0565,6.0409,6.0346,6.0283,6.0139,5.9987,5.9885,5.9899,5.9341,5.878,5.878,5.8271,5.7714,5.7545,5.782,5.8042,5.7914,5.7662,5.7287,5.6648,5.5926,5.5428,5.5428,5.4894,5.4448,5.4448,5.4448,5.4353,5.398,5.3849,5.3783,5.3915,5.3783,5.3684,5.3684,5.3551,5.3501,5.3501,5.3467,5.3467,5.3467,5.3467,5.3467,5.3467,5.3501,5.3501,5.3501,5.3501,5.3501,5.3501,5.3501,5.3501,5.3501,5.3501,5.3501,5.3501,5.3501,5.3501,5.3501,5.3501,5.3501,5.3585,5.4211,5.4921,5.5581,6.653,6.659,6.6697,6.6775,6.6745,6.6697,6.6775,6.6972,6.703,6.6834,6.7076,6.7257,6.721,6.7387,6.7414,6.7238,6.721,6.7182,6.7126,6.7097,6.704,6.6932,6.6827,6.6184,6.4899,6.5461,6.4753,6.2648,6.2826,6.2503,6.1753,6.1753,6.1521,6.1093,6.1093,6.1093,6.1093,6.1093,6.1093,6.1093,6.1093,6.1093,6.1093,6.1093,6.1093,6.1093,6.0986,6.0926,6.0854,6.0745,6.0696,6.0684,6.0547,6.0458,6.0396,6.0283,6.0202,6.0089,6.0089,5.9861,5.9527,5.9106,5.8737,5.8412,5.8255,5.8323,5.8233,5.7654,5.742,5.7185,5.6857,5.6512,5.6271,5.6271,5.5553,5.5144,5.5556,5.4886,5.4239,5.4013,5.3816,5.3717,5.3718,5.3651,5.3584,5.3584,5.3534,5.3501,5.3501,5.3382,5.3382,5.3501,5.3382,5.3382,5.3501,5.3501,5.3501,5.3501,5.3501,5.3501,5.3501,5.3501,5.3501,5.3501,5.3501,5.3501,5.3501,5.3501,5.3501,5.3501,5.3501,5.3754,5.4245,5.5412,5.6038,5.6376]}]]